[[{"header":{"parameterUnit":"m.s-1","parameterCategory":1,"la1":31.0,"la2":29.5877,"lo1":-88.7671,"lo2":-86.6584,"dy":0.0162,"dx":0.0185,"nx":115,"ny":88,"refTime":"2025-04-12T12:00:00:Z","depth":0,"parameterNumber":2,"parameterNumberName":"U-component_of_WINDS"},"data":[0.0,0.0,0.0,0.0,0.0,0.0,0.0,0.0,0.0,0.0,0.0,0.0,0.0,0.0,0.0,0.0,0.0,0.0,0.0,0.0,0.0,0.0,0.0,0.0,0.0,0.0,0.0,0.0,0.0,0.0,0.0,0.0,0.0,0.0,0.0,0.0,0.0,0.0,0.0,0.0,0.0,0.0,0.0,0.0,0.0,0.0,0.0,0.0,0.0,0.0,0.0,0.0,0.0,0.0,0.0,0.0,0.0,0.0,0.0,0.0,0.0,0.0,0.0,0.0,0.0,0.0,0.0,0.0,0.0,0.0,0.0,0.0,0.0,0.0,0.0,0.0,0.0,0.0,0.0,0.0,0.0,0.0,0.0,0.0,0.0,0.0,0.0,0.0,0.0,0.0,0.0,0.0,0.0,0.0,0.0,0.0,0.0,0.0,0.0,0.0,0.0,0.0,0.0,0.0,0.0,0.0,0.0,0.0,0.0,0.0,0.0,0.0,0.0,0.0,0.0,0.0,0.0,0.0,0.0,0.0,0.0,0.0,0.0,0.0,0.0,0.0,0.0,0.0,0.0,0.0,0.0,0.0,0.0,0.0,0.0,0.0,0.0,0.0,0.0,0.0,0.0,0.0,0.0,0.0,0.0,0.0,0.0,0.0,0.0,0.0,0.0,0.0,0.0,0.0,0.0,0.0,0.0,0.0,0.0,0.0,0.0,0.0,0.0,0.0,0.0,0.0,0.0,0.0,0.0,0.0,0.0,0.0,0.0,0.0,0.0,0.0,0.0,0.0,0.0,0.0,0.0,0.0,0.0,0.0,0.0,0.0,0.0,0.0,0.0,0.0,0.0,0.0,0.0,0.0,0.0,0.0,0.0,0.0,0.0,0.0,0.0,0.0,0.0,0.0,0.0,0.0,0.0,0.0,0.0,0.0,0.0,0.0,0.0,0.0,0.0,0.0,0.0,0.0,0.0,0.0,0.0,0.0,0.0,0.0,0.0,0.0,0.0,0.0,0.0,0.0,0.0,0.0,0.0,0.0,0.0,0.0,0.0,0.0,0.0,0.0,0.0,0.0,0.0,0.0,0.0,0.0,0.0,0.0,0.0,0.0,0.0,0.0,0.0,0.0,0.0,0.0,0.0,0.0,0.0,0.0,0.0,0.0,0.0,0.0,0.0,0.0,0.0,0.0,0.0,0.0,0.0,0.0,0.0,0.0,0.0,0.0,0.0,0.0,0.0,0.0,0.0,0.0,0.0,0.0,0.0,0.0,0.0,0.0,0.0,0.0,0.0,0.0,0.0,0.0,0.0,0.0,0.0,0.0,0.0,0.0,0.0,0.0,0.0,0.0,0.0,0.0,0.0,0.0,0.0,0.0,0.0,0.0,0.0,0.0,0.0,0.0,0.0,0.0,0.0,0.0,0.0,0.0,0.0,0.0,0.0,0.0,0.0,0.0,0.0,0.0,0.0,0.0,0.0,0.0,0.0,0.0,0.0,0.0,0.0,0.0,0.0,0.0,0.0,0.0,0.0,0.0,0.0,0.0,0.0,0.0,0.0,0.0,0.0,0.0,0.0,0.0,0.0,0.0,0.0,0.0,0.0,0.0,0.0,0.0,0.0,0.0,0.0,0.0,0.0,0.0,0.0,0.0,0.0,0.0,0.0,0.0,0.0,0.0,0.0,0.0,0.0,0.0,0.0,0.0,0.0,0.0,0.0,0.0,0.0,0.0,0.0,0.0,0.0,0.0,0.0,0.0,0.0,0.0,0.0,0.0,0.0,0.0,0.0,0.0,0.0,0.0,0.0,0.0,0.0,0.0,0.0,0.0,0.0,0.0,0.0,0.0,0.0,0.0,0.0,0.0,0.0,0.0,0.0,0.0,0.0,0.0,0.0,0.0,0.0,0.0,0.0,0.0,0.0,0.0,0.0,0.0,0.0,0.0,0.0,0.0,0.0,0.0,0.0,0.0,0.0,0.0,0.0,0.0,0.0,0.0,0.0,0.0,0.0,0.0,0.0,0.0,0.0,0.0,0.0,0.0,0.0,0.0,0.0,0.0,0.0,0.0,0.0,0.0,0.0,0.0,0.0,0.0,0.0,0.0,0.0,0.0,0.0,0.0,0.0,0.0,0.0,0.0,0.0,0.0,0.0,0.0,0.0,0.0,0.0,0.0,0.0,0.0,0.0,0.0,0.0,0.0,0.0,0.0,0.0,0.0,0.0,0.0,0.0,0.0,0.0,0.0,0.0,0.0,0.0,0.0,0.0,0.0,0.0,0.0,0.0,0.0,0.0,0.0,0.0,0.0,0.0,0.0,0.0,0.0,0.0,0.0,0.0,0.0,0.0,0.0,0.0,0.0,0.0,0.0,0.0,0.0,0.0,0.0,0.0,0.0,0.0,0.0,0.0,0.0,0.0,0.0,0.0,0.0,0.0,0.0,0.0,0.0,0.0,0.0,0.0,0.0,0.0,0.0,0.0,0.0,0.0,0.0,0.0,0.0,0.0,0.0,0.0,0.0,0.0,0.0,0.0,0.0,0.0,0.0,0.0,0.0,0.0,0.0,0.0,0.0,0.0,0.0,0.0,0.0,0.0,0.0,0.0,0.0,0.0,0.0,0.0,0.0,0.0,0.0,0.0,0.0,0.0,0.0,0.0,0.0,0.0,0.0,0.0,0.0,0.0,0.0,0.0,0.0,0.0,0.0,0.0,0.0,0.0,0.0,0.0,0.0,0.0,0.0,0.0,0.0,0.0,0.0,0.0,0.0,0.0,0.0,0.0,0.0,0.0,0.0,0.0,0.0,0.0,0.0,0.0,0.0,0.0,0.0,0.0,0.0,0.0,0.0,0.0,0.0,0.0,0.0,0.0,0.0,0.0,0.0,0.0,0.0,0.0,0.0,0.0,0.0,0.0,0.0,0.0,0.0,0.0,0.0,0.0,0.0,0.0,0.0,0.0,0.0,0.0,0.0,0.0,0.0,0.0,0.0,0.0,0.0,0.0,0.0,0.0,0.0,0.0,0.0,0.0,0.0,0.0,0.0,0.0,0.0,0.0,0.0,0.0,0.0,0.0,0.0,0.0,0.0,0.0,0.0,0.0,0.0,0.0,0.0,0.0,0.0,0.0,0.0,0.0,0.0,0.0,0.0,0.0,0.0,0.0,0.0,0.0,0.0,0.0,0.0,0.0,0.0,0.0,0.0,0.0,0.0,0.0,0.0,0.0,0.0,0.0,0.0,0.0,0.0,0.0,0.0,0.0,0.0,0.0,0.0,0.0,0.0,0.0,0.0,0.0,0.0,0.0,0.0,0.0,0.0,0.0,0.0,0.0,0.0,0.0,0.0,0.0,0.0,0.0,0.0,0.0,0.0,0.0,0.0,0.0,0.0,0.0,0.0,0.0,0.0,0.0,0.0,0.0,0.0,0.0,0.0,0.0,0.0,0.0,0.0,0.0,0.0,0.0,0.0,0.0,0.0,0.0,0.0,0.0,0.0,0.0,0.0,0.0,0.0,0.0,0.0,0.0,0.0,0.0,0.0,0.0,0.0,0.0,0.0,0.0,0.0,0.0,0.0,0.0,0.0,0.0,0.0,0.0,0.0,0.0,0.0,0.0,0.0,0.0,0.0,0.0,0.0,0.0,0.0,0.0,0.0,0.0,0.0,0.0,0.0,0.0,0.0,0.0,0.0,0.0,0.0,0.0,0.0,0.0,0.0,0.0,0.0,0.0,0.0,0.0,0.0,0.0,0.0,0.0,0.0,0.0,0.0,0.0,0.0,0.0,0.0,0.0,0.0,0.0,0.0,0.0,0.0,0.0,0.0,0.0,0.0,0.0,0.0,0.0,0.0,0.0,0.0,0.0,0.0,0.0,0.0,0.0,0.0,0.0,0.0,0.0,0.0,0.0,0.0,0.0,0.0,0.0,0.0,0.0,0.0,0.0,0.0,0.0,0.0,0.0,0.0,0.0,0.0,0.0,0.0,0.0,0.0,0.0,0.0,0.0,0.0,0.0,0.0,0.0,0.0,0.0,0.0,0.0,0.0,0.0,0.0,0.0,0.0,0.0,0.0,0.0,0.0,0.0,0.0,0.0,0.0,0.0,0.0,0.0,0.0,0.0,0.0,0.0,0.0,0.0,0.0,0.0,0.0,0.0,0.0,0.0,0.0,0.0,0.0,0.0,0.0,0.0,0.0,0.0,0.0,0.0,0.0,0.0,0.0,0.0,0.0,0.0,0.0,0.0,0.0,0.0,0.0,0.0,0.0,0.0,0.0,0.0,0.0,-1.7486,0.0,0.0,0.0,0.0,0.0,0.0,0.0,0.0,0.0,0.0,0.0,0.0,0.0,0.0,0.0,0.0,0.0,0.0,0.0,0.0,0.0,0.0,0.0,0.0,0.0,0.0,0.0,0.0,0.0,0.0,0.0,0.0,0.0,0.0,0.0,0.0,0.0,0.0,0.0,0.0,0.0,0.0,0.0,0.0,0.0,0.0,0.0,0.0,0.0,0.0,0.0,0.0,0.0,0.0,0.0,0.0,0.0,0.0,0.0,0.0,0.0,0.0,0.0,0.0,0.0,0.0,0.0,0.0,0.0,0.0,0.0,0.0,0.0,0.0,0.0,0.0,0.0,0.0,0.0,0.0,0.0,0.0,0.0,0.0,0.0,0.0,0.0,0.0,0.0,0.0,0.0,0.0,0.0,0.0,0.0,0.0,0.0,0.0,0.0,0.0,0.0,0.0,0.0,0.0,0.0,0.0,0.0,0.0,0.0,0.0,-1.7486,-1.7486,-1.7486,-1.7486,-1.7503,0.0,0.0,0.0,0.0,0.0,0.0,0.0,0.0,0.0,0.0,0.0,0.0,0.0,0.0,0.0,0.0,0.0,0.0,0.0,0.0,0.0,0.0,0.0,0.0,0.0,0.0,0.0,0.0,0.0,0.0,0.0,0.0,0.0,0.0,0.0,0.0,0.0,0.0,0.0,0.0,0.0,0.0,0.0,0.0,0.0,0.0,0.0,0.0,0.0,0.0,0.0,0.0,0.0,0.0,0.0,0.0,0.0,0.0,0.0,0.0,0.0,0.0,0.0,0.0,0.0,0.0,0.0,0.0,0.0,0.0,0.0,0.0,0.0,0.0,0.0,0.0,0.0,0.0,0.0,0.0,0.0,0.0,0.0,0.0,0.0,0.0,0.0,0.0,0.0,0.0,0.0,0.0,0.0,0.0,0.0,0.0,0.0,0.0,0.0,0.0,0.0,0.0,0.0,0.0,0.0,0.0,0.0,0.0,0.0,0.0,0.0,0.0,-1.7967,-1.7984,-1.8017,0.0,0.0,0.0,0.0,0.0,0.0,0.0,0.0,0.0,0.0,0.0,0.0,0.0,0.0,0.0,0.0,0.0,0.0,0.0,0.0,0.0,0.0,0.0,0.0,0.0,0.0,0.0,0.0,0.0,0.0,0.0,0.0,0.0,0.0,0.0,0.0,0.0,0.0,0.0,0.0,0.0,0.0,0.0,0.0,0.0,0.0,0.0,0.0,0.0,0.0,0.0,0.0,0.0,0.0,0.0,0.0,0.0,0.0,0.0,0.0,0.0,0.0,0.0,0.0,0.0,0.0,0.0,0.0,0.0,0.0,0.0,0.0,0.0,0.0,0.0,0.0,0.0,0.0,0.0,0.0,0.0,0.0,0.0,0.0,0.0,0.0,0.0,0.0,0.0,0.0,0.0,0.0,0.0,0.0,0.0,0.0,0.0,0.0,0.0,0.0,0.0,0.0,0.0,0.0,0.0,0.0,0.0,0.0,0.0,0.0,-1.8116,-1.9366,-1.9399,0.0,-1.9452,0.0,0.0,0.0,0.0,0.0,0.0,0.0,0.0,0.0,0.0,0.0,0.0,0.0,0.0,0.0,0.0,0.0,0.0,0.0,0.0,0.0,0.0,0.0,0.0,0.0,0.0,0.0,0.0,0.0,0.0,0.0,0.0,0.0,0.0,0.0,0.0,0.0,0.0,0.0,0.0,0.0,0.0,0.0,0.0,0.0,0.0,0.0,0.0,0.0,0.0,0.0,0.0,0.0,0.0,0.0,0.0,0.0,0.0,0.0,0.0,0.0,0.0,0.0,0.0,0.0,0.0,0.0,0.0,0.0,0.0,0.0,0.0,0.0,0.0,0.0,0.0,0.0,0.0,0.0,0.0,0.0,0.0,0.0,0.0,0.0,0.0,0.0,0.0,0.0,0.0,0.0,0.0,0.0,0.0,0.0,0.0,0.0,0.0,0.0,0.0,0.0,0.0,0.0,0.0,0.0,0.0,0.0,0.0,0.0,0.0,0.0,-1.9584,-1.9584,-1.9584,0.0,0.0,0.0,0.0,0.0,0.0,0.0,0.0,0.0,0.0,0.0,0.0,0.0,0.0,0.0,0.0,0.0,0.0,0.0,0.0,0.0,0.0,0.0,0.0,0.0,0.0,0.0,0.0,0.0,0.0,0.0,0.0,0.0,0.0,0.0,0.0,0.0,0.0,0.0,0.0,0.0,0.0,0.0,0.0,0.0,0.0,0.0,0.0,0.0,0.0,0.0,0.0,0.0,0.0,0.0,0.0,0.0,0.0,0.0,0.0,0.0,0.0,0.0,0.0,0.0,0.0,0.0,0.0,0.0,0.0,0.0,0.0,0.0,0.0,0.0,0.0,0.0,0.0,0.0,0.0,0.0,0.0,0.0,0.0,0.0,0.0,0.0,0.0,0.0,0.0,0.0,0.0,0.0,0.0,0.0,0.0,0.0,0.0,0.0,0.0,0.0,0.0,0.0,0.0,0.0,0.0,0.0,0.0,0.0,0.0,-1.9283,0.0,-2.0177,-2.021,-2.0028,-1.9601,0.0,0.0,0.0,0.0,0.0,0.0,0.0,0.0,0.0,0.0,0.0,0.0,0.0,0.0,0.0,0.0,0.0,0.0,0.0,0.0,0.0,0.0,0.0,0.0,0.0,0.0,0.0,0.0,0.0,0.0,0.0,0.0,0.0,0.0,0.0,0.0,0.0,0.0,0.0,0.0,0.0,0.0,0.0,0.0,0.0,0.0,0.0,0.0,0.0,0.0,0.0,0.0,0.0,0.0,0.0,0.0,0.0,0.0,0.0,0.0,0.0,0.0,0.0,0.0,0.0,0.0,0.0,0.0,0.0,0.0,0.0,0.0,0.0,0.0,0.0,0.0,0.0,0.0,0.0,0.0,0.0,0.0,0.0,0.0,0.0,0.0,0.0,0.0,0.0,0.0,0.0,0.0,0.0,0.0,0.0,0.0,0.0,0.0,0.0,0.0,0.0,0.0,0.0,0.0,0.0,0.0,0.0,0.0,0.0,-2.0243,-2.0276,-2.1663,-2.1696,-2.1036,0.0,0.0,0.0,0.0,0.0,0.0,0.0,0.0,0.0,0.0,0.0,0.0,0.0,0.0,0.0,0.0,0.0,0.0,0.0,0.0,0.0,0.0,0.0,0.0,0.0,0.0,0.0,0.0,0.0,0.0,0.0,0.0,0.0,0.0,0.0,0.0,0.0,0.0,0.0,0.0,0.0,0.0,0.0,0.0,0.0,0.0,0.0,0.0,0.0,0.0,0.0,0.0,0.0,0.0,0.0,0.0,0.0,0.0,0.0,0.0,0.0,0.0,0.0,0.0,0.0,0.0,0.0,0.0,0.0,0.0,0.0,0.0,0.0,0.0,0.0,0.0,0.0,0.0,0.0,0.0,0.0,0.0,0.0,0.0,0.0,0.0,0.0,0.0,0.0,0.0,0.0,0.0,0.0,0.0,0.0,0.0,0.0,0.0,0.0,0.0,0.0,0.0,0.0,0.0,0.0,0.0,0.0,0.0,0.0,-1.9007,-1.9383,-2.0773,-2.3039,-2.1416,-2.0588,0.0,0.0,0.0,0.0,0.0,0.0,0.0,0.0,0.0,0.0,0.0,0.0,0.0,0.0,0.0,0.0,0.0,0.0,0.0,0.0,0.0,0.0,0.0,0.0,0.0,0.0,0.0,0.0,0.0,0.0,0.0,0.0,0.0,0.0,0.0,0.0,0.0,0.0,0.0,0.0,0.0,0.0,0.0,0.0,0.0,0.0,0.0,0.0,0.0,0.0,0.0,0.0,0.0,0.0,0.0,0.0,0.0,0.0,0.0,0.0,0.0,0.0,0.0,0.0,0.0,0.0,0.0,0.0,0.0,0.0,0.0,0.0,0.0,0.0,0.0,0.0,0.0,0.0,0.0,0.0,0.0,0.0,0.0,0.0,0.0,0.0,0.0,0.0,0.0,0.0,0.0,0.0,0.0,0.0,0.0,0.0,0.0,0.0,0.0,0.0,0.0,0.0,0.0,0.0,0.0,0.0,0.0,0.0,0.0,-1.9022,0.0,-2.1781,0.0,-2.1367,-2.0356,0.0,0.0,0.0,0.0,0.0,0.0,0.0,0.0,0.0,0.0,0.0,0.0,0.0,0.0,0.0,0.0,0.0,0.0,0.0,0.0,0.0,0.0,0.0,0.0,0.0,0.0,0.0,0.0,0.0,0.0,0.0,0.0,0.0,0.0,0.0,0.0,0.0,0.0,0.0,0.0,0.0,0.0,0.0,0.0,0.0,0.0,0.0,0.0,0.0,0.0,0.0,0.0,0.0,0.0,0.0,0.0,0.0,0.0,0.0,0.0,0.0,0.0,0.0,0.0,0.0,0.0,0.0,0.0,0.0,0.0,0.0,0.0,0.0,0.0,0.0,0.0,0.0,0.0,0.0,0.0,0.0,0.0,0.0,0.0,0.0,0.0,0.0,0.0,0.0,0.0,0.0,0.0,0.0,0.0,0.0,0.0,0.0,0.0,0.0,0.0,0.0,0.0,0.0,0.0,0.0,0.0,0.0,0.0,0.0,-2.2023,-2.3214,-2.3172,-2.1912,-2.1779,-2.0453,0.0,0.0,0.0,0.0,0.0,0.0,0.0,0.0,0.0,0.0,0.0,0.0,0.0,0.0,0.0,0.0,0.0,0.0,0.0,0.0,0.0,0.0,0.0,0.0,0.0,0.0,0.0,0.0,0.0,0.0,0.0,0.0,0.0,0.0,0.0,0.0,0.0,0.0,0.0,0.0,0.0,0.0,0.0,0.0,0.0,0.0,0.0,0.0,0.0,0.0,0.0,0.0,0.0,0.0,0.0,0.0,0.0,0.0,0.0,0.0,0.0,0.0,0.0,0.0,0.0,0.0,0.0,0.0,0.0,0.0,0.0,0.0,0.0,0.0,0.0,0.0,0.0,0.0,0.0,0.0,0.0,0.0,0.0,0.0,0.0,0.0,0.0,0.0,0.0,0.0,0.0,0.0,0.0,0.0,0.0,0.0,0.0,0.0,0.0,0.0,0.0,0.0,0.0,0.0,0.0,0.0,0.0,0.0,0.0,-2.1454,-2.2128,-2.2758,-2.3238,-2.1845,-2.0868,0.0,0.0,0.0,0.0,0.0,0.0,0.0,0.0,0.0,0.0,0.0,0.0,0.0,0.0,0.0,0.0,0.0,0.0,0.0,0.0,0.0,0.0,0.0,0.0,0.0,0.0,0.0,0.0,0.0,0.0,0.0,0.0,0.0,0.0,0.0,0.0,0.0,0.0,0.0,0.0,0.0,0.0,0.0,0.0,0.0,0.0,0.0,0.0,0.0,0.0,0.0,0.0,0.0,0.0,0.0,0.0,0.0,0.0,0.0,0.0,0.0,0.0,0.0,0.0,0.0,0.0,0.0,0.0,0.0,0.0,0.0,0.0,0.0,0.0,0.0,0.0,0.0,0.0,0.0,0.0,0.0,0.0,0.0,0.0,0.0,0.0,0.0,0.0,0.0,0.0,0.0,0.0,0.0,0.0,0.0,0.0,0.0,0.0,0.0,0.0,0.0,0.0,0.0,0.0,0.0,0.0,0.0,0.0,0.0,-2.4018,-2.4039,-2.4227,-2.4611,-2.2867,-2.1763,-2.1365,0.0,0.0,0.0,0.0,0.0,0.0,0.0,0.0,0.0,0.0,0.0,0.0,0.0,0.0,0.0,0.0,0.0,0.0,0.0,0.0,0.0,0.0,0.0,0.0,0.0,0.0,0.0,0.0,0.0,0.0,0.0,0.0,0.0,0.0,0.0,0.0,0.0,0.0,0.0,0.0,0.0,0.0,0.0,0.0,0.0,0.0,0.0,0.0,0.0,0.0,0.0,0.0,0.0,0.0,0.0,0.0,0.0,0.0,0.0,0.0,0.0,0.0,0.0,0.0,0.0,0.0,0.0,0.0,0.0,0.0,0.0,0.0,0.0,0.0,0.0,0.0,0.0,0.0,0.0,0.0,0.0,0.0,0.0,0.0,0.0,0.0,0.0,0.0,0.0,0.0,0.0,0.0,0.0,0.0,0.0,0.0,0.0,0.0,0.0,0.0,0.0,0.0,0.0,0.0,0.0,0.0,0.0,0.0,-2.9009,-2.8407,-2.7368,-2.5926,-2.4828,-2.3137,0.0,0.0,0.0,0.0,0.0,0.0,0.0,0.0,0.0,0.0,0.0,0.0,0.0,0.0,0.0,0.0,0.0,0.0,0.0,0.0,0.0,0.0,0.0,0.0,0.0,0.0,0.0,0.0,0.0,0.0,0.0,0.0,0.0,0.0,0.0,0.0,0.0,0.0,0.0,0.0,0.0,0.0,0.0,0.0,0.0,0.0,0.0,0.0,0.0,0.0,0.0,0.0,0.0,0.0,0.0,0.0,0.0,0.0,0.0,0.0,0.0,0.0,0.0,0.0,0.0,0.0,0.0,0.0,0.0,0.0,0.0,0.0,0.0,0.0,0.0,0.0,0.0,0.0,0.0,0.0,0.0,0.0,0.0,0.0,0.0,0.0,0.0,0.0,0.0,0.0,0.0,0.0,0.0,0.0,0.0,0.0,0.0,0.0,0.0,0.0,0.0,0.0,0.0,0.0,0.0,0.0,0.0,0.0,0.0,-3.0873,-3.1307,-3.0409,-2.8218,-2.7317,-2.5446,0.0,0.0,0.0,0.0,0.0,0.0,0.0,0.0,0.0,0.0,0.0,0.0,0.0,0.0,0.0,0.0,0.0,0.0,0.0,0.0,0.0,0.0,0.0,0.0,0.0,0.0,0.0,0.0,0.0,0.0,0.0,0.0,0.0,0.0,0.0,0.0,0.0,0.0,0.0,0.0,0.0,0.0,0.0,0.0,0.0,0.0,0.0,0.0,0.0,0.0,0.0,0.0,0.0,0.0,0.0,0.0,0.0,0.0,0.0,0.0,0.0,0.0,0.0,0.0,0.0,0.0,0.0,0.0,0.0,0.0,0.0,0.0,0.0,0.0,0.0,0.0,0.0,0.0,0.0,0.0,0.0,0.0,0.0,0.0,0.0,0.0,0.0,0.0,0.0,0.0,0.0,0.0,0.0,0.0,0.0,0.0,0.0,0.0,0.0,0.0,0.0,0.0,0.0,0.0,0.0,0.0,0.0,0.0,-3.0814,-3.267,-3.3759,-3.3382,-3.1441,-2.983,-2.7389,0.0,0.0,0.0,0.0,0.0,0.0,0.0,0.0,0.0,0.0,0.0,0.0,0.0,0.0,0.0,0.0,0.0,0.0,0.0,0.0,0.0,0.0,0.0,0.0,0.0,0.0,0.0,0.0,0.0,0.0,0.0,0.0,0.0,0.0,0.0,0.0,0.0,0.0,0.0,0.0,0.0,0.0,0.0,0.0,0.0,0.0,0.0,0.0,0.0,0.0,0.0,0.0,0.0,0.0,0.0,0.0,0.0,0.0,0.0,0.0,0.0,0.0,0.0,0.0,0.0,0.0,0.0,0.0,0.0,0.0,0.0,0.0,0.0,0.0,0.0,0.0,0.0,0.0,0.0,0.0,0.0,0.0,0.0,0.0,0.0,0.0,0.0,0.0,0.0,0.0,0.0,0.0,0.0,0.0,0.0,0.0,0.0,0.0,0.0,0.0,0.0,0.0,0.0,0.0,0.0,0.0,0.0,0.0,-3.192,-3.4294,-3.5704,-3.5971,-3.4921,-3.2236,-2.9071,0.0,0.0,0.0,0.0,0.0,0.0,0.0,0.0,0.0,0.0,0.0,0.0,0.0,0.0,0.0,0.0,0.0,0.0,0.0,0.0,0.0,0.0,0.0,0.0,0.0,0.0,0.0,0.0,0.0,0.0,0.0,0.0,0.0,0.0,0.0,0.0,0.0,0.0,0.0,0.0,0.0,0.0,0.0,0.0,0.0,0.0,0.0,0.0,0.0,0.0,0.0,0.0,0.0,0.0,0.0,0.0,0.0,0.0,0.0,0.0,0.0,0.0,0.0,0.0,0.0,0.0,0.0,0.0,0.0,0.0,0.0,0.0,0.0,0.0,0.0,0.0,0.0,0.0,0.0,0.0,0.0,0.0,0.0,0.0,0.0,0.0,0.0,0.0,0.0,0.0,0.0,0.0,0.0,0.0,0.0,0.0,0.0,0.0,0.0,0.0,0.0,0.0,0.0,0.0,0.0,0.0,0.0,0.0,-3.3526,-3.5846,-3.6481,-3.67,-3.6487,-3.3888,-3.0837,0.0,0.0,0.0,0.0,0.0,0.0,0.0,0.0,0.0,0.0,0.0,0.0,0.0,0.0,0.0,0.0,0.0,0.0,0.0,0.0,0.0,0.0,0.0,0.0,0.0,0.0,0.0,0.0,0.0,0.0,0.0,0.0,0.0,0.0,0.0,0.0,0.0,0.0,0.0,0.0,0.0,0.0,0.0,0.0,0.0,0.0,0.0,0.0,-1.5368,0.0,0.0,0.0,0.0,0.0,0.0,0.0,0.0,0.0,0.0,0.0,0.0,0.0,0.0,0.0,0.0,0.0,0.0,0.0,0.0,0.0,0.0,0.0,0.0,0.0,0.0,0.0,0.0,0.0,0.0,0.0,0.0,0.0,0.0,0.0,0.0,0.0,0.0,0.0,0.0,0.0,0.0,0.0,0.0,0.0,0.0,0.0,0.0,0.0,0.0,0.0,0.0,0.0,0.0,0.0,0.0,0.0,0.0,0.0,-3.4936,-3.6881,-3.7497,-3.7828,-3.7758,-3.5196,-3.2101,0.0,0.0,0.0,0.0,0.0,0.0,0.0,0.0,0.0,0.0,0.0,0.0,0.0,0.0,0.0,0.0,0.0,0.0,0.0,0.0,0.0,0.0,0.0,0.0,0.0,0.0,0.0,0.0,0.0,0.0,0.0,0.0,0.0,0.0,0.0,0.0,0.0,0.0,0.0,0.0,0.0,0.0,0.0,0.0,0.0,0.0,0.0,0.0,0.0,0.0,0.0,0.0,0.0,0.0,0.0,0.0,0.0,0.0,0.0,0.0,0.0,0.0,0.0,0.0,0.0,0.0,0.0,0.0,0.0,0.0,0.0,0.0,0.0,0.0,0.0,0.0,0.0,0.0,0.0,0.0,0.0,0.0,0.0,0.0,0.0,0.0,0.0,0.0,0.0,0.0,0.0,0.0,0.0,0.0,0.0,0.0,0.0,0.0,0.0,0.0,0.0,0.0,0.0,0.0,0.0,0.0,0.0,-3.3526,-3.6149,-3.8059,-3.879,-3.9055,-3.8855,-3.6284,-3.3118,-2.951,0.0,0.0,0.0,0.0,0.0,0.0,0.0,0.0,0.0,0.0,0.0,0.0,0.0,0.0,0.0,0.0,0.0,0.0,0.0,0.0,0.0,0.0,0.0,0.0,0.0,0.0,0.0,0.0,0.0,0.0,0.0,0.0,0.0,0.0,0.0,0.0,0.0,0.0,-1.4081,-1.6498,0.0,0.0,0.0,0.0,0.0,0.0,0.0,0.0,-1.7225,0.0,0.0,0.0,0.0,0.0,0.0,0.0,0.0,0.0,0.0,0.0,0.0,0.0,0.0,0.0,0.0,0.0,0.0,0.0,0.0,0.0,0.0,0.0,0.0,0.0,0.0,0.0,0.0,0.0,0.0,0.0,0.0,0.0,0.0,0.0,0.0,0.0,0.0,0.0,0.0,0.0,0.0,0.0,0.0,0.0,0.0,0.0,0.0,0.0,0.0,0.0,0.0,0.0,0.0,0.0,0.0,-3.432,-3.4934,-3.6934,-4.0414,-4.0646,-4.0237,-3.9203,-3.6872,-3.411,-3.0955,0.0,0.0,0.0,0.0,0.0,0.0,0.0,0.0,0.0,0.0,0.0,0.0,0.0,0.0,0.0,0.0,0.0,0.0,0.0,0.0,0.0,0.0,0.0,0.0,0.0,0.0,0.0,0.0,0.0,0.0,0.0,0.0,0.0,0.0,0.0,0.0,0.0,0.0,0.0,-1.8372,-1.9244,0.0,0.0,0.0,0.0,0.0,0.0,0.0,0.0,-1.6308,0.0,0.0,0.0,0.0,0.0,0.0,0.0,0.0,0.0,0.0,0.0,0.0,0.0,0.0,0.0,0.0,0.0,0.0,0.0,0.0,0.0,0.0,0.0,0.0,0.0,0.0,0.0,0.0,0.0,0.0,0.0,0.0,0.0,0.0,0.0,0.0,0.0,0.0,0.0,0.0,0.0,0.0,0.0,0.0,0.0,0.0,0.0,0.0,0.0,0.0,0.0,0.0,0.0,0.0,0.0,-3.457,-3.6666,-3.9163,-4.2216,-4.193,-4.1261,-4.0205,-3.6988,-3.4084,0.0,0.0,0.0,0.0,0.0,0.0,0.0,0.0,0.0,0.0,0.0,0.0,0.0,0.0,0.0,0.0,0.0,0.0,0.0,0.0,0.0,0.0,0.0,0.0,0.0,0.0,0.0,0.0,0.0,0.0,0.0,0.0,0.0,0.0,0.0,0.0,0.0,0.0,0.0,0.0,-1.9467,-2.009,-2.0402,0.0,0.0,0.0,0.0,0.0,0.0,-1.8478,-1.7398,0.0,0.0,0.0,0.0,0.0,0.0,0.0,0.0,0.0,0.0,0.0,0.0,0.0,0.0,0.0,0.0,0.0,0.0,0.0,0.0,0.0,0.0,0.0,0.0,0.0,0.0,0.0,0.0,0.0,0.0,0.0,0.0,0.0,0.0,0.0,0.0,0.0,0.0,0.0,0.0,0.0,0.0,0.0,0.0,0.0,0.0,0.0,0.0,0.0,0.0,0.0,0.0,0.0,0.0,0.0,-3.4443,-3.7899,-4.0822,-4.3108,-4.2787,-4.1961,-4.0722,-3.7117,-3.4124,0.0,0.0,0.0,0.0,0.0,0.0,0.0,0.0,0.0,0.0,0.0,0.0,0.0,0.0,0.0,0.0,0.0,0.0,0.0,0.0,0.0,0.0,0.0,0.0,0.0,0.0,0.0,0.0,0.0,0.0,0.0,0.0,0.0,0.0,0.0,0.0,0.0,0.0,0.0,0.0,0.0,-2.1186,-2.176,-2.0901,0.0,0.0,0.0,0.0,-2.1017,-1.9953,0.0,0.0,0.0,0.0,0.0,0.0,0.0,0.0,0.0,0.0,0.0,0.0,0.0,0.0,0.0,0.0,0.0,0.0,0.0,0.0,0.0,0.0,0.0,0.0,0.0,0.0,0.0,0.0,0.0,0.0,0.0,0.0,0.0,0.0,0.0,0.0,0.0,0.0,0.0,0.0,0.0,0.0,0.0,0.0,0.0,0.0,0.0,0.0,0.0,0.0,0.0,0.0,0.0,0.0,0.0,0.0,-3.5226,-3.7721,-4.0057,-4.2323,-4.3054,-4.2118,-3.9588,-3.7701,-3.5154,0.0,0.0,0.0,0.0,0.0,0.0,0.0,0.0,0.0,0.0,0.0,0.0,0.0,0.0,0.0,0.0,0.0,0.0,0.0,0.0,0.0,0.0,0.0,0.0,0.0,0.0,0.0,0.0,0.0,0.0,0.0,0.0,0.0,0.0,0.0,0.0,0.0,0.0,0.0,0.0,0.0,-2.2933,-2.2167,-2.158,-2.1222,0.0,0.0,-2.1335,-2.2052,-2.1297,0.0,0.0,0.0,0.0,0.0,0.0,0.0,0.0,0.0,0.0,0.0,0.0,0.0,0.0,0.0,0.0,0.0,0.0,0.0,0.0,0.0,0.0,0.0,0.0,0.0,0.0,0.0,0.0,0.0,0.0,0.0,0.0,0.0,0.0,0.0,0.0,0.0,0.0,0.0,0.0,0.0,0.0,0.0,0.0,0.0,0.0,0.0,0.0,0.0,0.0,0.0,0.0,0.0,0.0,0.0,-3.1814,-3.6016,-3.8758,-4.1234,-4.35,-4.3554,-4.2507,-4.0349,-3.7552,-3.4587,0.0,0.0,0.0,0.0,0.0,0.0,0.0,0.0,0.0,0.0,0.0,0.0,0.0,0.0,0.0,0.0,0.0,0.0,0.0,0.0,0.0,0.0,0.0,0.0,0.0,0.0,0.0,0.0,0.0,0.0,0.0,0.0,0.0,0.0,0.0,0.0,0.0,0.0,0.0,0.0,0.0,0.0,-2.3244,-2.2964,0.0,0.0,0.0,-2.2981,-2.3618,0.0,0.0,0.0,0.0,0.0,0.0,0.0,0.0,0.0,0.0,0.0,0.0,0.0,0.0,0.0,0.0,0.0,0.0,0.0,0.0,0.0,0.0,0.0,0.0,0.0,0.0,0.0,0.0,0.0,0.0,0.0,0.0,0.0,0.0,0.0,0.0,0.0,0.0,0.0,0.0,0.0,0.0,0.0,0.0,0.0,0.0,0.0,0.0,0.0,0.0,0.0,0.0,0.0,0.0,0.0,0.0,0.0,-3.6302,-3.9276,-4.1841,-4.3929,-4.35,-4.2409,-4.0804,-3.76,0.0,0.0,0.0,0.0,0.0,0.0,0.0,0.0,0.0,0.0,0.0,0.0,0.0,0.0,0.0,0.0,0.0,0.0,0.0,0.0,0.0,0.0,0.0,0.0,0.0,0.0,0.0,-1.0104,0.0,0.0,0.0,0.0,0.0,0.0,0.0,0.0,0.0,0.0,0.0,0.0,0.0,0.0,-2.3942,-2.4348,-2.4474,-2.4685,0.0,0.0,-2.4568,-2.4864,-2.4259,-2.3103,0.0,0.0,0.0,0.0,0.0,0.0,0.0,0.0,0.0,0.0,0.0,0.0,0.0,0.0,0.0,0.0,0.0,0.0,0.0,0.0,0.0,0.0,0.0,0.0,0.0,0.0,0.0,0.0,0.0,0.0,0.0,0.0,0.0,0.0,0.0,0.0,0.0,0.0,0.0,0.0,0.0,0.0,0.0,0.0,0.0,0.0,0.0,0.0,0.0,0.0,0.0,0.0,0.0,0.0,0.0,-3.553,-3.8489,-4.0806,-4.2376,-4.2415,-4.1609,-4.0002,-3.8342,-3.5954,0.0,0.0,0.0,0.0,0.0,0.0,0.0,0.0,0.0,0.0,0.0,0.0,0.0,0.0,0.0,0.0,0.0,0.0,0.0,0.0,0.0,0.0,0.0,0.0,0.0,0.0,0.0,0.0,0.0,0.0,0.0,0.0,0.0,0.0,0.0,0.0,0.0,0.0,0.0,0.0,0.0,-2.5173,-2.522,-2.5968,-2.652,0.0,0.0,-2.6004,-2.5367,-2.496,-2.3833,-2.1315,0.0,0.0,0.0,0.0,0.0,0.0,0.0,0.0,0.0,0.0,0.0,0.0,0.0,0.0,0.0,0.0,0.0,0.0,0.0,0.0,0.0,0.0,0.0,0.0,0.0,0.0,0.0,0.0,0.0,0.0,0.0,0.0,0.0,0.0,0.0,0.0,0.0,0.0,0.0,0.0,0.0,0.0,0.0,0.0,0.0,0.0,0.0,0.0,0.0,0.0,0.0,0.0,0.0,-3.2361,-3.5476,-3.8473,-4.0776,-4.2236,-4.2308,-4.1538,-3.993,-3.8172,-3.5652,0.0,0.0,0.0,0.0,0.0,0.0,0.0,0.0,0.0,0.0,0.0,0.0,0.0,0.0,0.0,0.0,0.0,0.0,0.0,0.0,0.0,0.0,0.0,0.0,0.0,0.0,0.0,0.0,-1.3396,-1.3664,-1.3238,0.0,0.0,0.0,0.0,0.0,0.0,0.0,0.0,0.0,0.0,-2.6058,-2.6531,-2.7169,0.0,0.0,-2.7238,-2.707,-2.6649,-2.6129,-2.5188,-2.3465,-2.2524,0.0,0.0,0.0,0.0,0.0,0.0,0.0,0.0,0.0,0.0,0.0,0.0,0.0,0.0,0.0,0.0,0.0,0.0,0.0,0.0,0.0,0.0,0.0,0.0,0.0,0.0,0.0,0.0,0.0,0.0,0.0,0.0,0.0,0.0,0.0,0.0,0.0,0.0,0.0,0.0,0.0,0.0,0.0,0.0,0.0,0.0,0.0,0.0,0.0,0.0,0.0,0.0,-3.2394,-3.5476,-3.8491,-4.0776,-4.2272,-4.2308,-4.1645,-4.0287,-3.8507,-3.6023,0.0,0.0,0.0,0.0,0.0,0.0,0.0,0.0,0.0,0.0,0.0,0.0,0.0,0.0,0.0,0.0,0.0,0.0,0.0,0.0,0.0,0.0,0.0,0.0,0.0,0.0,0.0,0.0,-1.4736,-1.4521,-1.3798,0.0,0.0,0.0,0.0,0.0,0.0,0.0,0.0,0.0,0.0,-2.6752,-2.7692,-2.8237,-2.8462,-2.8266,-2.7987,-2.767,-2.734,-2.6882,-2.6072,-2.4628,0.0,0.0,0.0,0.0,0.0,0.0,0.0,0.0,0.0,0.0,0.0,0.0,0.0,0.0,0.0,0.0,0.0,0.0,0.0,0.0,0.0,0.0,0.0,0.0,0.0,0.0,0.0,0.0,0.0,0.0,-2.3868,0.0,0.0,0.0,0.0,0.0,0.0,0.0,0.0,0.0,0.0,0.0,0.0,0.0,0.0,0.0,0.0,0.0,0.0,0.0,0.0,0.0,0.0,0.0,-3.5476,-3.84,-4.0681,-4.2254,-4.2308,-4.1895,-4.1056,-3.9556,-3.7594,-3.5079,0.0,0.0,0.0,0.0,0.0,0.0,0.0,0.0,0.0,0.0,0.0,0.0,0.0,0.0,0.0,0.0,0.0,0.0,0.0,0.0,0.0,0.0,0.0,0.0,0.0,0.0,-1.6056,-1.4794,-1.371,0.0,0.0,0.0,0.0,0.0,0.0,0.0,0.0,0.0,0.0,-2.5762,-2.7219,-2.8563,-2.916,-2.9422,-2.9438,-2.8624,-2.7788,-2.7172,-2.7014,-2.6293,0.0,0.0,0.0,0.0,0.0,0.0,0.0,0.0,0.0,0.0,0.0,0.0,0.0,0.0,0.0,0.0,0.0,0.0,0.0,0.0,0.0,0.0,0.0,0.0,0.0,0.0,0.0,-2.9427,-2.8232,0.0,0.0,0.0,0.0,0.0,0.0,0.0,0.0,0.0,0.0,0.0,-3.4244,-3.502,0.0,0.0,0.0,0.0,0.0,0.0,0.0,0.0,0.0,0.0,0.0,0.0,-3.297,-3.5557,-3.8564,-4.0856,-4.2371,-4.2346,-4.1912,-4.1109,-3.9611,-3.6934,-3.2991,0.0,0.0,0.0,0.0,0.0,0.0,0.0,0.0,0.0,0.0,0.0,0.0,0.0,0.0,0.0,0.0,0.0,0.0,0.0,0.0,0.0,0.0,0.0,0.0,0.0,-1.7238,0.0,0.0,0.0,0.0,0.0,0.0,0.0,0.0,0.0,0.0,0.0,-2.4061,-2.5729,-2.7187,-2.8454,-2.9394,-2.9653,-2.9704,0.0,0.0,0.0,0.0,0.0,0.0,0.0,0.0,0.0,0.0,0.0,0.0,0.0,0.0,-2.3679,-1.9545,-1.8637,-1.831,-1.7674,0.0,0.0,0.0,0.0,0.0,0.0,0.0,0.0,0.0,0.0,0.0,0.0,0.0,0.0,0.0,0.0,-3.1292,0.0,0.0,0.0,0.0,0.0,0.0,0.0,0.0,-3.5457,-3.6979,-3.7469,-3.8246,-3.821,0.0,-3.6347,-3.4099,0.0,0.0,0.0,0.0,0.0,0.0,0.0,0.0,-3.3828,-3.6349,-3.9139,-4.1181,-4.2353,-4.2328,-4.2058,-4.1502,-3.9753,-3.6827,-3.267,-3.0796,-2.8888,0.0,0.0,0.0,0.0,0.0,0.0,0.0,0.0,0.0,0.0,0.0,0.0,0.0,0.0,0.0,0.0,0.0,0.0,0.0,0.0,0.0,0.0,0.0,-1.8385,0.0,0.0,0.0,0.0,0.0,0.0,0.0,0.0,0.0,-2.2329,-2.3851,-2.5503,-2.7203,-2.8207,-2.9049,-2.9783,0.0,0.0,0.0,0.0,0.0,0.0,0.0,-2.8483,-2.886,-2.8303,-2.7572,-2.6941,-2.7042,-2.7033,-2.6458,0.0,0.0,-2.2821,-2.1981,-2.1668,-2.1098,-2.151,-2.1869,-2.1724,-2.1997,-2.2376,0.0,0.0,0.0,0.0,0.0,0.0,0.0,0.0,-3.5261,-3.5331,0.0,-3.4353,0.0,0.0,0.0,0.0,0.0,-3.4045,0.0,0.0,-4.0637,-4.2067,-4.0764,-4.1433,-4.1415,-4.0673,-4.0564,-3.9369,-3.6977,-3.2466,0.0,0.0,0.0,0.0,0.0,0.0,-3.4817,-3.781,-4.0106,-4.1624,-4.2292,-4.229,-4.2272,-4.2129,-4.0021,-3.7362,-3.433,-3.333,-3.1151,-2.7406,-2.7014,0.0,0.0,0.0,0.0,0.0,0.0,0.0,0.0,0.0,0.0,0.0,0.0,0.0,0.0,0.0,0.0,0.0,0.0,0.0,0.0,-1.9399,0.0,0.0,0.0,0.0,0.0,0.0,0.0,0.0,0.0,0.0,-2.4711,-2.5327,-2.6474,-2.8498,0.0,0.0,0.0,0.0,-3.0204,-3.0839,-3.0376,-3.0182,-3.0839,-3.0904,-3.0645,-3.0075,0.0,0.0,-2.8252,-2.8279,-2.8328,-2.7681,-2.7688,-2.7535,-2.7454,-2.6634,-2.5997,-2.5552,-2.4988,-2.4677,-2.4269,-2.412,-2.4193,-4.1542,0.0,0.0,0.0,0.0,-3.8246,-3.9441,-4.1669,-4.0872,-4.0003,-3.9116,-3.8664,0.0,0.0,0.0,0.0,0.0,0.0,-3.8409,-4.0058,-4.2013,-4.3244,-4.3932,-4.4168,-4.415,-4.3914,-4.3335,-4.2429,-4.1144,-3.8663,-3.4896,-3.0079,0.0,0.0,0.0,0.0,-3.6911,-3.892,-4.0654,-4.1837,-4.2492,-4.2447,-4.185,-4.0628,-3.9968,-3.8397,-3.5846,-3.4472,-3.2973,-3.1258,-2.8526,0.0,0.0,0.0,0.0,0.0,0.0,0.0,0.0,0.0,0.0,0.0,0.0,0.0,0.0,0.0,0.0,0.0,0.0,0.0,-2.0095,-2.057,-2.0475,0.0,0.0,0.0,0.0,0.0,0.0,0.0,0.0,0.0,-2.8021,-2.827,-2.8379,0.0,0.0,-3.0631,-3.0609,-3.1056,-3.1477,-3.1672,0.0,0.0,0.0,-3.1244,-3.1017,-3.1332,-3.1355,-3.1126,-3.0609,-3.0678,-3.0757,-3.0555,-3.0773,-3.0975,-3.0758,-2.8188,-2.6063,-2.551,-2.558,-2.5746,-2.5627,-2.5912,-2.6206,-4.654,-4.3425,-4.1071,-4.0782,-4.1868,-4.1452,-4.252,-4.4512,-4.3715,-4.3172,-4.2827,-4.2212,-4.0691,-3.8554,-3.7631,0.0,0.0,0.0,-4.0999,-4.2701,-4.3824,-4.4838,-4.5761,-4.6106,-4.6087,-4.5743,-4.5291,-4.4639,-4.3861,-4.2556,-3.9677,-3.5349,0.0,0.0,-3.3951,-3.6578,-3.8683,-4.0149,-4.1375,-4.2161,-4.2472,-4.2447,-4.1616,-3.9985,-3.9877,-3.8808,-3.6488,-3.5525,-3.4347,-3.2936,-3.0633,-2.8419,0.0,0.0,0.0,0.0,0.0,0.0,0.0,0.0,0.0,0.0,0.0,-1.6958,0.0,0.0,0.0,0.0,-1.878,-2.061,-2.1983,-2.1936,0.0,0.0,0.0,0.0,0.0,0.0,0.0,-2.6579,-2.685,-2.7684,-2.9977,-3.0457,-3.0428,-3.0113,-3.1,-3.1658,-3.176,0.0,-3.2627,-3.3178,-3.3032,-3.2935,-3.3194,-3.2659,-3.2312,-3.2757,-3.2602,-3.2455,-3.2446,-3.2402,-3.2342,-3.2273,-3.2191,-3.2226,-3.2364,-2.9756,-2.7639,-2.7583,-2.7583,-2.7509,-2.7173,-2.698,-2.6864,-5.0873,-4.9822,-4.5347,-4.3916,-4.4548,-4.4566,-4.5001,-4.5599,-4.4838,-4.5273,-4.645,-4.4965,-4.3861,-4.2973,-4.0836,0.0,-4.1035,-4.2502,-4.3607,-4.444,-4.5906,-4.6595,-4.6631,-4.7355,-4.7319,-4.6595,-4.6613,-4.6214,-4.549,-4.4675,-4.3534,-4.2031,-3.9115,-3.7937,-3.8482,-3.9333,-4.0402,-4.1694,-4.2449,-4.2691,-4.2435,-4.2343,-4.1538,-3.993,-3.9877,-3.8843,-3.6631,-3.6363,-3.5293,-3.3221,-3.2918,-3.1097,-2.7402,0.0,0.0,0.0,0.0,0.0,0.0,0.0,0.0,0.0,0.0,0.0,0.0,0.0,0.0,0.0,-2.1297,0.0,-2.3993,-2.3465,0.0,0.0,0.0,-2.3148,-2.4444,-2.5045,-2.611,-2.8083,0.0,0.0,-3.0969,0.0,-3.2459,-3.2302,-3.223,-3.2408,-3.304,-3.3202,-3.3712,-3.4806,-3.4505,-3.4311,-3.4683,-3.4408,-3.4068,-3.4117,-3.4027,-3.3922,-3.3896,-3.3704,-3.3445,-3.3262,-3.2534,-3.2209,-3.2557,-3.1567,-3.0826,-3.1084,-3.0449,-2.9633,-2.8845,-2.7979,-2.738,-5.1199,-5.085,-4.9133,-4.8517,-4.868,-4.868,-4.8789,-4.8858,-4.8098,-4.7645,-4.7355,-4.6377,-4.549,-4.4693,-4.415,-4.4331,-4.511,-4.5472,-4.6087,-4.6848,-4.7246,-4.7428,-4.7428,-4.7609,-4.7609,-4.7428,-4.7428,-4.7319,-4.7102,-4.6323,-4.5743,-4.5309,-4.4005,-4.2502,-4.0999,-4.2266,-4.3424,-4.4361,-4.456,-4.4261,-4.3427,-4.2711,-4.152,-3.993,-3.9877,-3.9093,-3.7362,-3.6131,-3.5239,-3.465,-3.2955,-3.1043,-2.8923,-2.6568,0.0,0.0,0.0,0.0,0.0,0.0,0.0,0.0,0.0,-2.1633,-1.83,0.0,-2.3215,0.0,-2.1811,-2.3069,-2.4355,-2.4655,0.0,0.0,-2.6084,-2.6893,-2.763,-2.8086,-2.885,-3.0103,-3.048,-3.1154,-3.2417,-3.278,-3.334,-3.4271,-3.4145,-3.3786,-3.3267,-3.4036,-3.4628,-3.4424,-3.4262,-3.4149,-3.4376,-3.47,-3.4936,-3.4952,-3.5328,-3.5679,-3.5663,-3.5417,-3.517,-3.5088,-3.4593,-3.4238,-3.4278,-3.3847,-3.341,-3.3125,-3.1996,-3.0964,-3.0718,-3.0785,-3.084,-5.2896,-5.2842,-5.2027,-5.1701,-5.1629,-5.0583,-5.0112,-5.0075,-4.9637,-4.9184,-4.8713,-4.7935,-4.7319,-4.6902,-4.654,-4.6613,-4.7047,-4.7047,-4.7283,-4.7699,-4.7699,-4.7699,-4.7699,-4.7699,-4.7699,-4.7699,-4.7699,-4.7699,-4.7681,-4.7226,-4.7047,-4.7047,-4.6576,-4.5707,-4.4438,-4.4566,-4.4836,-4.5267,-4.5188,-4.4689,-4.3735,-4.3164,-4.1937,-3.9984,-3.9877,-3.9004,-3.7149,-3.6203,-3.5257,-3.4204,-3.2938,-3.151,-2.9958,-2.7995,-2.6139,0.0,0.0,0.0,0.0,0.0,0.0,0.0,0.0,0.0,0.0,0.0,-2.4828,0.0,-2.4562,-2.5673,-2.6851,-2.7365,-2.7706,-2.7859,-2.8659,-2.9417,-2.9943,-3.0041,-3.0555,-3.1727,-3.1898,-3.2303,-3.3372,-3.3534,-3.3809,-3.4603,-3.4812,-3.4797,-3.4605,-3.4984,-3.5163,-3.5072,-3.4797,-3.4612,-3.4586,-3.491,-3.5325,-3.5639,-3.6044,-3.6276,-3.6276,-3.6136,-3.5969,-3.5801,-3.5526,-3.5373,-3.5498,-3.5067,-3.4668,-3.4631,-3.3956,-3.3003,-3.2148,-3.2043,-3.202,-5.4907,-5.4834,-5.4146,-5.3856,-5.3675,-5.1466,-5.0488,-5.042,-5.0289,-5.0202,-5.0057,-4.9365,-4.9075,-4.9021,-4.8312,-4.8025,-4.8007,-4.7895,-4.7841,-4.7862,-4.7732,-4.7699,-4.7699,-4.7699,-4.7699,-4.7699,-4.7699,-4.7699,-4.7699,-4.7699,-4.7699,-4.7699,-4.7699,-4.7699,-4.7645,-4.6305,-4.5576,-4.5511,-4.5281,-4.4728,-4.3819,-4.3673,-4.243,-4.0076,-3.9825,-3.8701,-3.6524,-3.631,-3.5257,-3.3221,-3.3061,-3.2329,-3.0743,-2.9283,-2.8088,0.0,-2.58,0.0,0.0,0.0,0.0,0.0,0.0,0.0,0.0,-2.5477,-2.6479,-2.7575,-2.8287,-2.9073,-3.0,-3.0368,-3.0469,-3.0313,-3.068,-3.1129,-3.1638,-3.1414,-3.172,-3.3064,-3.321,-3.3477,-3.3987,-3.4101,-3.4117,-3.4327,-3.4677,-3.5163,-3.5866,-3.5525,-3.5373,-3.5995,-3.5477,-3.4887,-3.4952,-3.5098,-3.5428,-3.6108,-3.6416,-3.6465,-3.6659,-3.6643,-3.6497,-3.6247,-3.6197,-3.6218,-3.6537,-3.5841,-3.5424,-3.5879,-3.5702,-3.497,-3.3558,-3.2953,-3.241,-5.4907,-5.4888,-5.4762,-5.4671,-5.4581,-5.3494,-5.2643,-5.1991,-5.1339,-5.0687,-5.0093,-4.9927,-4.9894,-4.9858,-4.9709,-4.9659,-4.9601,-4.8967,-4.8674,-4.8656,-4.8004,-4.7699,-4.7699,-4.7699,-4.7699,-4.7699,-4.7699,-4.7699,-4.7699,-4.7699,-4.7699,-4.7699,-4.7699,-4.7699,-4.7699,0.0,0.0,0.0,-4.6449,-4.5665,-4.4906,-4.4022,-4.2468,-4.0156,-3.9381,0.0,-3.6488,-3.5774,-3.4937,-3.3955,-3.3883,0.0,0.0,0.0,0.0,0.0,0.0,0.0,0.0,0.0,0.0,0.0,-2.9896,-2.9213,-2.7294,-2.8641,-3.0139,-3.124,-3.0939,-3.074,-3.0914,-3.1197,-3.1337,-3.1281,-3.1813,-3.2346,-3.2798,-3.2802,-3.3088,-3.3818,-3.3906,-3.3955,-3.4052,-3.4101,-3.4327,-3.479,-3.4586,-3.4619,-3.5325,-3.5276,-3.5007,-3.4619,-3.4457,-3.4327,-3.4295,-3.4829,-3.5445,-3.6141,-3.6761,-3.7263,-3.776,-3.7938,-3.7987,-3.7838,-3.7689,-3.747,-3.7588,-3.7058,-3.6592,-3.6765,-3.6538,-3.6045,-3.517,-3.5293,-3.5477,-5.6029,0.0,-5.5613,-5.5432,0.0,-5.4617,-5.4074,-5.3603,-5.2408,-5.1647,-5.1249,-5.0868,-5.0709,-5.0673,-5.0293,-5.0112,-5.0093,-4.9673,-4.9492,-4.9456,-4.8659,-4.8315,-4.8257,-4.7877,-4.7699,-4.7699,-4.7699,-4.7699,-4.7699,-4.7699,-4.7699,-4.7699,-4.7699,-4.7699,-4.7699,-4.7699,-4.7699,-4.7699,-4.722,-4.66,-4.5743,-4.4805,-4.3317,-4.1359,0.0,0.0,0.0,0.0,0.0,0.0,0.0,0.0,0.0,0.0,0.0,-3.1655,-3.1278,-3.0886,-3.0547,-3.0871,-3.1457,-3.2224,-3.3009,-3.2517,-3.0424,-3.1572,-3.2613,-3.3171,-3.3195,-3.3172,-3.3207,-3.3661,-3.3933,-3.3808,-3.426,-3.4561,-3.4424,-3.4223,-3.4127,-3.4153,-3.4167,-3.4101,-3.4101,-3.4101,-3.423,-3.457,-3.436,-3.423,-3.4554,-3.4651,-3.4489,-3.4149,-3.4101,-3.4246,-3.4586,-3.492,-3.5454,-3.6189,-3.6842,-3.7392,-3.7781,-3.8165,-3.8391,-3.8363,-3.8278,-3.8132,-3.8119,-3.7772,-3.7389,-3.721,-3.6953,-3.66,-3.6107,-3.6261,-3.6429,-5.7188,-5.7134,-5.6482,-5.621,-5.6138,-5.5414,-5.5015,-5.4798,0.0,0.0,0.0,-5.1792,-5.1502,-5.1448,-5.0814,-5.0528,-5.0528,-5.0383,-5.0311,-5.0271,-4.9347,-4.8891,-4.8855,-4.8079,-4.7699,-4.7699,-4.7699,-4.7699,-4.7699,-4.7699,-4.7699,-4.7699,-4.7699,-4.7699,-4.7699,-4.7699,-4.7699,-4.7699,-4.7699,-4.7259,-4.6341,-4.5459,-4.4207,-4.2546,-4.0812,-3.9236,-3.7863,-3.7166,-3.581,-3.3668,-3.365,-3.3596,-3.3328,-3.3311,-3.3882,-3.5062,-3.5311,-3.515,-3.4561,-3.4775,-3.4972,-3.5115,-3.5685,-3.5328,-3.3668,-3.424,-3.4775,-3.4918,-3.5544,-3.5919,-3.5919,-3.6306,-3.6602,-3.6524,-3.6759,-3.6675,-3.6156,-3.579,-3.5438,-3.4956,-3.4889,-3.4609,-3.4478,-3.4462,-3.4305,-3.4158,-3.4133,-3.4101,-3.4101,-3.4149,-3.4149,-3.4101,-3.4101,-3.4311,-3.4806,-3.4952,-3.5283,-3.593,-3.6513,-3.6972,-3.7311,-3.7809,-3.8197,-3.8391,-3.8391,-3.8363,-3.8363,-3.8075,-3.7828,-3.7549,-3.727,-3.6999,-3.6723,-3.6616,-3.6585,-5.7188,-5.7188,-5.708,-5.7025,-5.6971,-5.6174,-5.5468,-5.4834,-5.3929,-5.3132,-5.2498,-5.2371,-5.2335,-5.2317,-5.2208,-5.2154,-5.21,-5.1448,-5.1122,0.0,-4.9601,-4.8891,-4.8855,-4.8076,-4.7699,-4.7699,-4.7699,-4.7699,-4.7699,-4.7699,-4.7699,-4.7699,-4.7699,-4.7699,-4.7699,-4.7699,-4.7699,-4.7699,-4.7699,-4.7298,-4.6502,-4.5518,-4.4227,-4.2627,-4.0869,-3.9502,-3.8665,-3.8522,-3.7684,-3.6024,-3.656,-3.6327,-3.4989,-3.49,-3.4989,-3.5204,-3.5846,-3.6185,-3.6114,-3.7362,-3.8433,-3.9003,-3.9181,-3.8308,-3.6167,-3.6649,-3.7398,-3.8058,-3.8396,-3.8722,-3.8681,-3.8044,-3.7787,-3.8114,-3.7882,-3.7648,-3.7626,-3.7557,-3.7341,-3.6901,-3.7035,-3.6497,-3.5663,-3.5498,-3.5151,-3.4395,-3.4403,-3.4165,-3.4246,-3.4101,-3.4101,-3.4101,-3.4101,-3.4149,-3.4392,-3.4279,-3.4628,-3.5244,-3.5461,-3.6027,-3.708,-3.7392,-3.7732,-3.8311,-3.8391,-3.8391,-3.8391,-3.8132,-3.7915,-3.7799,-3.7535,-3.7344,-3.7208,-3.7059,-3.6847,-5.7188,-5.7188,-5.7188,-5.7188,-5.717,-5.679,-5.621,-5.5486,-5.5106,-5.4273,-5.3204,-5.315,-5.2915,-5.2498,-5.2498,-5.2498,-5.248,-5.21,-5.1937,-5.1864,-5.0723,-4.9963,-4.951,-4.8731,-4.8131,-4.7735,-4.7699,-4.7699,-4.7699,-4.7699,-4.7699,-4.7699,-4.7699,-4.7699,-4.7699,-4.7699,-4.7699,-4.7699,-4.7699,-4.7518,-4.7135,-4.6194,-4.5374,-4.4599,-4.2474,-4.1173,-4.0815,-3.9898,-3.8879,-3.7755,-3.8041,-3.7916,-3.7202,-3.7166,-3.7326,-3.7701,-3.8094,-3.8308,-3.8308,-3.8986,-3.9538,-3.9859,-3.9877,-3.9467,-3.8397,-3.8629,-3.9004,-3.936,-3.956,-3.962,-3.9618,-3.9199,-3.9035,-3.9279,-3.9077,-3.8821,-3.8496,-3.8203,-3.7888,-3.736,-3.7018,-3.6648,-3.613,-3.6081,-3.6034,-3.5633,-3.5593,-3.5517,-3.5318,-3.5283,-3.5121,-3.4748,-3.4376,-3.4311,-3.4586,-3.4327,-3.4279,-3.457,-3.4952,-3.56,-3.661,-3.6988,-3.7582,-3.823,-3.8391,-3.8391,-3.8391,-3.8307,-3.8132,-3.7915,-3.7799,-3.7608,-3.7447,-3.718,-3.6908,-5.7351,-5.7188,-5.7188,-5.7188,-5.7188,-5.7188,-5.6844,-5.6283,-5.6247,-5.5486,-5.4291,-5.4055,-5.353,-5.2806,-5.277,-5.2661,-5.2516,-5.2498,-5.248,-5.2426,-5.1665,-5.0941,-5.0307,-4.9383,-4.8565,-4.7986,-4.7787,-4.7699,-4.7699,-4.7699,-4.7699,-4.7699,-4.7699,-4.7699,-4.7699,-4.7699,-4.7699,-4.7699,-4.7699,-4.7699,-4.7681,-4.6777,-4.6302,-4.6155,-4.4168,-4.2936,-4.2685,-4.1437,-4.0269,-3.9414,-3.9325,-3.9236,-3.9056,-3.9058,-3.9288,-3.9823,-4.0073,-4.0271,-4.0431,-4.0449,-4.0449,-4.0449,-4.0431,-4.0449,-4.0449,-4.0431,-4.034,-4.0235,-4.0376,-4.0483,-4.0481,-4.0326,-4.0295,-4.041,-4.0313,-4.0082,-3.9633,-3.9193,-3.8763,-3.819,-3.7626,-3.7291,-3.6928,-3.6753,-3.6639,-3.6669,-3.6763,-3.6623,-3.634,-3.6276,-3.606,-3.5704,-3.5056,-3.4878,-3.5315,-3.504,-3.4635,-3.4424,-3.4797,-3.5406,-3.5995,-3.6513,-3.715,-3.7809,-3.8132,-3.8213,-3.8327,-3.8391,-3.8262,-3.8075,-3.8017,-3.7902,-3.7476,-3.7254,-3.6999,-5.7858,-5.7243,-5.7206,-5.7188,-5.7188,-5.7188,-5.7134,-5.7062,-5.708,-5.6591,-5.5703,-5.5088,-5.4363,-5.3639,-5.3548,-5.3168,-5.2516,-5.2498,-5.2498,-5.2408,-5.1665,-5.1249,-5.1031,-4.9655,-4.8855,-4.8674,-4.8058,-4.7753,-4.7699,-4.7699,-4.7699,-4.7699,-4.7699,-4.7699,-4.7699,-4.7699,-4.7699,-4.7699,-4.7699,-4.7699,-4.7642,-4.6798,-4.6302,-4.6302,-4.5189,-4.4241,-4.3581,-4.3295,-4.2448,-4.1056,-4.0895,-4.0574,-3.9914,-3.9825,-3.9841,-3.9948,-4.0592,-4.1306,-4.1948,-4.2076,-4.2002,-4.2076,-4.1984,-4.1966,-4.2002,-4.2019,-4.1734,-4.1252,-4.1627,-4.193,-4.2035,-4.1595,-4.1403,-4.1659,-4.1442,-4.1429,-4.1366,-4.1598,-4.145,-4.1221,-4.012,-3.98,-3.8606,-3.8022,-3.739,-3.6722,-3.6733,-3.6706,-3.6572,-3.6529,-3.6691,-3.6853,-3.6529,-3.6157,-3.6189,-3.6173,-3.5655,-3.5185,-3.5104,-3.5292,-3.5428,-3.5509,-3.5801,-3.7145,-3.7489,-3.77,-3.8116,-3.8391,-3.8363,-3.8307,-3.8234,-3.8148,-3.7594,-3.7358,-3.724,-5.8202,-5.7858,-5.7387,-5.7188,-5.7188,-5.7188,-5.7188,-5.7188,-5.7188,-5.7007,-5.6717,-5.6373,-5.5323,-5.3729,-5.3711,-5.3259,-5.2516,-5.2498,-5.2498,-5.248,-5.2154,-5.1756,-5.1249,-5.0669,-4.9872,-4.8927,-4.8547,-4.8149,-4.7772,-4.7699,-4.7699,-4.7699,-4.7699,-4.7699,-4.7699,-4.7699,-4.7699,-4.7699,-4.7699,-4.7699,-4.766,-4.7328,-4.7127,-4.7036,-4.6185,-4.554,-4.5117,-4.4617,-4.3724,-4.2626,-4.2498,-4.2144,-4.1359,-4.1324,-4.1306,-4.1341,-4.1609,-4.1948,-4.229,-4.2308,-4.2308,-4.2308,-4.2308,-4.2308,-4.2308,-4.2308,-4.2126,-4.1912,-4.2129,-4.2187,-4.1895,-4.1622,-4.1512,-4.1423,-4.122,-4.1088,-4.0995,-4.0814,-4.0642,-4.0531,-3.9893,-3.937,-3.9009,-3.8732,-3.8259,-3.7703,-3.7726,-3.7726,-3.7572,-3.7549,-3.7647,-3.7841,-3.7695,-3.7371,-3.6999,-3.6529,-3.6044,-3.5445,-3.5185,-3.5185,-3.5218,-3.5185,-3.5558,-3.6578,-3.6923,-3.7263,-3.7635,-3.8165,-3.8391,-3.8391,-3.8363,-3.8234,-3.777,-3.7535,-3.7314,-5.8927,-5.8637,-5.7858,-5.7406,-5.7188,-5.7188,-5.7188,-5.7188,-5.7188,-5.7188,-5.7188,-5.7188,-5.6138,-5.449,-5.4327,-5.3784,-5.2915,-5.2824,-5.2697,-5.2516,-5.2498,-5.219,-5.1647,-5.1398,-5.0578,-4.9383,-4.8985,-4.8456,-4.779,-4.7699,-4.7699,-4.7699,-4.7699,-4.7699,-4.7699,-4.7699,-4.7699,-4.7699,-4.7699,-4.7699,-4.7699,-4.7699,-4.7678,-4.7582,-4.6952,-4.6431,-4.6144,-4.5441,-4.4693,-4.3857,-4.38,-4.3536,-4.2983,-4.2733,-4.2519,-4.2361,-4.2501,-4.2519,-4.2343,-4.268,-4.284,-4.2662,-4.2787,-4.2929,-4.2929,-4.2929,-4.2929,-4.2947,-4.2929,-4.2711,-4.1831,-4.1709,-4.1556,-4.1225,-4.1105,-4.0902,-4.0761,-4.0334,-4.017,-4.0096,-3.9592,-3.8849,-3.8832,-3.8772,-3.8601,-3.8395,-3.8579,-3.8766,-3.8476,-3.8343,-3.8359,-3.8391,-3.8375,-3.8181,-3.7651,-3.7323,-3.6578,-3.6044,-3.5849,-3.5817,-3.5509,-3.538,-3.5428,-3.6319,-3.6643,-3.7015,-3.7388,-3.7857,-3.8278,-3.8359,-3.8391,-3.829,-3.7915,-3.7623,-3.7344,-6.0267,-5.9452,-5.8673,-5.7895,-5.7206,-5.7188,-5.7188,-5.7188,-5.7188,-5.7188,-5.7188,-5.7188,-5.6699,-5.5866,-5.5812,-5.5051,-5.3748,-5.3585,-5.3186,-5.2534,-5.2498,-5.248,-5.2408,-5.1665,-5.0891,-5.0017,-4.9329,-4.8529,-4.7753,-4.7699,-4.7699,-4.7699,-4.7699,-4.7699,-4.7699,-4.7699,-4.7699,-4.7699,-4.7678,-4.7678,-4.7678,-4.7678,-4.7615,-4.7511,-4.7331,-4.6845,-4.6179,-4.5851,-4.5392,-4.4567,-4.4549,-4.4514,-4.4407,-4.38,-4.3126,-4.2555,-4.3054,-4.3126,-4.268,-4.3625,-4.4121,-4.3658,-4.3961,-4.4424,-4.4264,-4.4264,-4.4264,-4.4424,-4.426,-4.3718,-4.2554,-4.2367,-4.2299,-4.2161,-4.1736,-4.1475,-4.1418,-4.089,-4.0778,-4.0587,-3.9927,-3.9179,-3.8544,-3.8436,-3.8448,-3.8391,-3.842,-3.842,-3.842,-3.8391,-3.8391,-3.8391,-3.8391,-3.8375,-3.8327,-3.8051,-3.7776,-3.7193,-3.6707,-3.6837,-3.6287,-3.5849,-3.5946,-3.593,-3.5914,-3.627,-3.6999,-3.7533,-3.7906,-3.8116,-3.8343,-3.8234,-3.7857,-3.7623,-3.7284,-6.0339,-5.9524,-5.8746,-5.822,-5.7931,-5.7424,-5.7188,-5.7188,-5.7188,-5.7188,-5.7188,-5.7188,-5.7043,-5.6754,-5.6754,-5.5649,-5.382,-5.3711,-5.3259,-5.2552,-5.2498,-5.2498,-5.2462,-5.2172,-5.1629,-5.085,-5.0035,-4.8985,-4.7808,-4.7699,-4.7699,-4.7699,-4.7699,-4.7699,-4.7699,-4.7699,-4.7699,-4.7696,-4.7636,-4.7572,-4.7572,-4.749,-4.7403,-4.7294,-4.7381,-4.7234,-4.6789,-4.6722,-4.6302,-4.541,-4.5374,-4.5142,-4.4638,-4.4353,-4.4086,-4.3857,-4.4032,-4.4068,-4.3893,-4.4264,-4.4496,-4.4264,-4.4424,-4.4638,-4.4585,-4.4585,-4.4585,-4.4559,-4.4276,-4.3769,-4.3482,-4.3315,-4.3185,-4.28,-4.223,-4.1811,-4.1637,-4.0968,-4.0368,-4.0392,-3.9825,-3.9098,-3.86,-3.8391,-3.8391,-3.8391,-3.8391,-3.8391,-3.8391,-3.8391,-3.8391,-3.8391,-3.8391,-3.8391,-3.8391,-3.8391,-3.8165,-3.7587,-3.7166,-3.6918,-3.6465,-3.6238,-3.627,-3.6287,-3.5963,-3.6157,-3.7128,-3.7776,-3.8035,-3.8197,-3.8391,-3.8103,-3.7666,-3.7476,-3.7164,-6.072,-5.9923,-5.9126,-5.8637,-5.8311,-5.755,-5.7188,-5.7188,-5.7188,-5.7188,-5.7188,-5.7188,-5.7188,-5.7188,-5.7188,-5.6247,-5.4526,-5.42,-5.3639,-5.2896,-5.2607,-5.2498,-5.2498,-5.2498,-5.2082,-5.1212,-5.0198,-4.9112,-4.8188,-4.7823,-4.7717,-4.7699,-4.7699,-4.7699,-4.7699,-4.7699,-4.7699,-4.7696,-4.7554,-4.749,-4.749,-4.7363,-4.7254,-4.7223,-4.7334,-4.7316,-4.7133,-4.7133,-4.6874,-4.6288,-4.6177,-4.5838,-4.5084,-4.4977,-4.4874,-4.4656,-4.4835,-4.4852,-4.471,-4.5088,-4.5263,-4.5031,-4.5249,-4.5392,-4.5392,-4.5392,-4.5392,-4.5285,-4.5088,-4.4817,-4.4812,-4.4724,-4.4211,-4.3254,-4.2454,-4.2054,-4.1995,-4.1129,-4.049,-4.0169,-3.9515,-3.8865,-3.8504,-3.842,-3.8391,-3.8391,-3.8391,-3.8391,-3.8391,-3.8391,-3.8391,-3.8391,-3.8391,-3.8391,-3.8391,-3.8391,-3.8391,-3.791,-3.7684,-3.7307,-3.7015,-3.6805,-3.6627,-3.6594,-3.6643,-3.6788,-3.7209,-3.7922,-3.8246,-3.8375,-3.8234,-3.8001,-3.7682,-3.7387,-3.7074,-6.1507,-6.0729,-5.9959,-5.918,-5.8456,-5.7659,-5.7224,-5.7206,-5.7188,-5.7188,-5.7188,-5.7188,-5.7188,-5.7188,-5.7188,-5.6717,-5.5921,-5.5196,-5.4418,-5.3585,-5.2896,-5.257,-5.2498,-5.2498,-5.2082,-5.1249,-4.9764,-4.8999,-4.8782,-4.8149,-4.7808,-4.7717,-4.7699,-4.7699,-4.7699,-4.7699,-4.7699,-4.7678,-4.7572,-4.749,-4.7472,-4.7363,-4.7254,-4.7196,-4.7219,-4.7174,-4.7002,-4.702,-4.6985,-4.6926,-4.6908,-4.6605,-4.5927,-4.5802,-4.5481,-4.5031,-4.5427,-4.541,-4.4977,-4.6034,-4.6409,-4.5926,-4.6435,-4.6621,-4.6458,-4.6552,-4.657,-4.6493,-4.6529,-4.6664,-4.6512,-4.6103,-4.5179,-4.3414,-4.2835,-4.2454,-4.2252,-4.1749,-4.1014,-4.0148,-3.935,-3.8669,-3.848,-3.8424,-3.8408,-3.8391,-3.8391,-3.8391,-3.8391,-3.8391,-3.8391,-3.8391,-3.8391,-3.8391,-3.8391,-3.8391,-3.8391,-3.8343,-3.8262,-3.8051,-3.7841,-3.763,-3.7404,-3.7307,-3.7096,-3.7209,-3.7209,-3.7857,-3.8262,-3.8363,-3.8132,-3.8001,-3.777,-3.7476,-3.7013,-6.186,-6.1553,-6.0792,-5.9977,-5.9162,-5.8365,-5.7732,-5.7206,-5.7188,-5.7188,-5.7188,-5.7188,-5.7188,-5.7188,-5.7188,-5.7062,-5.6754,-5.5993,-5.4961,-5.3856,-5.344,-5.2987,-5.257,-5.2498,-5.2063,-5.1339,-5.0814,-4.9963,-4.9036,-4.8659,-4.8275,-4.7808,-4.7717,-4.7699,-4.7699,-4.7699,-4.7699,-4.7678,-4.7572,-4.745,-4.7363,-4.7272,-4.7178,-4.7066,-4.7066,-4.7025,-4.6998,-4.6998,-4.6998,-4.6998,-4.6998,-4.6873,-4.6659,-4.6605,-4.6516,-4.632,-4.6462,-4.6551,-4.6355,-4.6618,-4.673,-4.6259,-4.6329,-4.6182,-4.5885,-4.586,-4.5885,-4.586,-4.5835,-4.5835,-4.5734,-4.5363,-4.5026,-4.5165,-4.4216,-4.3423,-4.325,-4.2547,-4.1649,-4.0766,-3.996,-3.9455,-3.9125,-3.8812,-3.8456,-3.8391,-3.8391,-3.8391,-3.8391,-3.8391,-3.8391,-3.8391,-3.8391,-3.8391,-3.8391,-3.8391,-3.8391,-3.8391,-3.8391,-3.8391,-3.8311,-3.823,-3.8035,-3.789,-3.7695,-3.7582,-3.7582,-3.7792,-3.823,-3.8391,-3.8262,-3.8103,-3.7915,-3.7565,-3.7134,-6.2023,-6.1906,-6.1109,-6.0512,-5.9941,-5.8891,-5.813,-5.7623,-5.7315,-5.7188,-5.7188,-5.7188,-5.7188,-5.7188,-5.7188,-5.7188,-5.7134,-5.6645,-5.5758,-5.4562,-5.3874,-5.3277,-5.2589,-5.2498,-5.2281,-5.1756,-5.143,-5.0778,-4.9818,-4.9202,-4.8659,-4.8206,-4.7841,-4.7699,-4.7699,-4.7699,-4.7699,-4.7696,-4.7511,-4.7385,-4.7298,-4.7201,-4.707,-4.702,-4.6998,-4.6998,-4.6998,-4.6998,-4.6998,-4.6998,-4.6998,-4.6998,-4.6998,-4.698,-4.6998,-4.6998,-4.698,-4.6962,-4.6998,-4.6742,-4.659,-4.6235,-4.5995,-4.5708,-4.5381,-4.5303,-4.5303,-4.5303,-4.5329,-4.5303,-4.5224,-4.4828,-4.4899,-4.5459,-4.4536,-4.3966,-4.3766,-4.2907,-4.211,-4.1391,-4.0696,-4.0094,-3.9498,-3.9197,-3.8667,-3.8505,-3.8391,-3.8391,-3.8391,-3.8391,-3.8391,-3.8391,-3.8391,-3.8391,-3.8391,-3.8391,-3.8391,-3.8391,-3.8391,-3.8391,-3.8359,-3.8343,-3.823,-3.8213,-3.8084,-3.8019,-3.8003,-3.8116,-3.8391,-3.8363,-3.8335,-3.8103,-3.7857,-3.7711,-3.7282,-6.2023,-6.1915,-6.1181,-6.0864,-6.0575,-5.9162,-5.8456,-5.8239,-5.755,-5.7188,-5.7188,-5.7188,-5.7188,-5.7188,-5.7188,-5.7188,-5.717,-5.7134,-5.6609,-5.5649,-5.4617,-5.3548,-5.2625,-5.2498,-5.2426,-5.2299,-5.1756,-5.1339,-5.0959,-4.9872,-4.8981,-4.8931,-4.8261,-4.7808,-4.7862,-4.7772,-4.7699,-4.7657,-4.7468,-4.7341,-4.7298,-4.7138,-4.7002,-4.6998,-4.6998,-4.6998,-4.6998,-4.6998,-4.6998,-4.6998,-4.6998,-4.6998,-4.6998,-4.6998,-4.6998,-4.6998,-4.6998,-4.6998,-4.6906,-4.6566,-4.6193,-4.6045,-4.5554,-4.5224,-4.5081,-4.4957,-4.4957,-4.5028,-4.5135,-4.5197,-4.5108,-4.4773,-4.4541,-4.439,-4.4021,-4.3656,-4.3529,-4.2861,-4.2417,-4.2045,-4.1376,-4.0544,-3.9794,-3.9538,-3.9072,-3.8586,-3.8391,-3.8391,-3.8391,-3.8391,-3.8391,-3.8391,-3.8391,-3.8391,-3.8391,-3.8391,-3.8391,-3.8391,-3.8391,-3.8391,-3.8391,-3.8391,-3.8391,-3.8391,-3.8391,-3.8375,-3.8375,-3.8391,-3.8391,-3.8391,-3.8234,-3.8001,-3.7886,-3.7828,-3.7415,-6.2023,-6.1987,-6.1761,-6.1344,-6.072,-5.9687,-5.8945,-5.8347,-5.755,-5.7188,-5.7188,-5.7188,-5.7188,-5.7188,-5.7188,-5.7188,-5.7188,-5.7188,-5.6754,-5.6047,-5.5649,-5.4237,-5.2824,-5.2498,-5.2498,-5.2444,-5.2226,-5.1905,-5.1321,-5.0796,-5.0289,-4.9745,-4.9003,-4.8565,-4.8529,-4.7986,-4.7717,-4.7696,-4.7551,-4.7385,-4.7298,-4.7201,-4.7088,-4.702,-4.6998,-4.6998,-4.6998,-4.6998,-4.6998,-4.6998,-4.6998,-4.6998,-4.6998,-4.6998,-4.6998,-4.6998,-4.698,-4.698,-4.6888,-4.6453,-4.5978,-4.5554,-4.5001,-4.4496,-4.4076,-4.4047,-4.4047,-4.4133,-4.4401,-4.4708,-4.468,-4.4569,-4.4305,-4.3906,-4.3717,-4.3568,-4.3446,-4.327,-4.3002,-4.2664,-4.1985,-4.1211,-4.0442,-3.9878,-3.9331,-3.8732,-3.8489,-3.8472,-3.8537,-3.8391,-3.8391,-3.8391,-3.8391,-3.8391,-3.8391,-3.8391,-3.8391,-3.8391,-3.8391,-3.8391,-3.8391,-3.8391,-3.8391,-3.8391,-3.8391,-3.8391,-3.8391,-3.8391,-3.8391,-3.8391,-3.8335,-3.8177,-3.8234,-3.8177,-3.7578,-6.2023,-6.2023,-6.2023,-6.1725,-6.1163,-6.0104,-5.9343,-5.8746,-5.7695,-5.7188,-5.7188,-5.7188,-5.7188,-5.7188,-5.7188,-5.7188,-5.7188,-5.7188,-5.6935,-5.6554,-5.612,-5.4834,-5.3349,-5.2733,-5.2498,-5.2498,-5.2498,-5.2226,-5.181,-5.1484,-5.1036,-5.0565,-4.9782,-4.9275,-4.8818,-4.8475,-4.7986,-4.7747,-4.7533,-4.7385,-4.7302,-4.7183,-4.7088,-4.702,-4.6998,-4.6998,-4.6998,-4.6998,-4.6998,-4.6998,-4.6998,-4.6998,-4.6998,-4.6998,-4.6998,-4.6998,-4.6819,-4.6661,-4.6501,-4.597,-4.5363,-4.4964,-4.4446,-4.4006,-4.37,-4.3615,-4.3615,-4.3687,-4.3964,-4.4093,-4.4121,-4.4121,-4.3964,-4.3717,-4.3615,-4.3568,-4.3402,-4.3386,-4.3221,-4.2925,-4.2525,-4.1927,-4.1107,-4.0591,-4.0043,-3.9476,-3.9088,-3.8991,-3.8893,-3.8618,-3.8391,-3.8391,-3.8391,-3.8391,-3.8391,-3.8391,-3.8391,-3.8391,-3.8391,-3.8391,-3.8391,-3.8391,-3.8391,-3.8391,-3.8391,-3.8391,-3.8391,-3.8391,-3.8391,-3.8391,-3.8391,-3.8363,-3.8363,-3.8091,-3.7533,-6.2023,-6.2023,-6.2023,-6.2023,-6.1734,-6.0321,-5.9579,-5.9289,-5.7876,-5.7188,-5.7188,-5.7188,-5.7188,-5.7188,-5.7188,-5.7188,-5.7188,-5.7188,-5.7188,-5.6862,-5.6337,-5.5214,-5.4128,-5.3132,-5.2697,-5.2534,-5.2498,-5.2462,-5.2245,-5.1719,-5.1484,-5.1235,-5.0637,-4.9886,-4.9376,-4.8996,-4.8471,-4.7901,-4.7457,-4.7316,-4.7254,-4.7116,-4.702,-4.702,-4.6998,-4.6998,-4.6975,-4.6934,-4.6865,-4.6906,-4.6975,-4.6998,-4.6998,-4.6998,-4.6888,-4.6754,-4.6405,-4.6094,-4.597,-4.5205,-4.4586,-4.4474,-4.4006,-4.3598,-4.3615,-4.3615,-4.3615,-4.3615,-4.3615,-4.3687,-4.3687,-4.3658,-4.3658,-4.3615,-4.3615,-4.3539,-4.3402,-4.3372,-4.3221,-4.293,-4.2852,-4.2449,-4.1933,-4.1547,-4.1288,-4.0075,-3.9719,-3.9509,-3.9282,-3.8974,-3.8667,-3.8391,-3.8391,-3.8391,-3.8391,-3.8391,-3.8391,-3.8391,-3.8391,-3.8391,-3.8391,-3.8391,-3.8391,-3.8391,-3.8391,-3.8391,-3.8391,-3.8391,-3.8391,-3.8391,-3.8391,-3.8363,-3.829,-3.7799,-3.7266,-6.2023,-6.2023,-6.2023,-6.2023,-6.177,-6.0321,-5.9615,-5.9434,-5.7895,-5.7188,-5.7188,-5.7188,-5.7188,-5.7188,-5.7188,-5.7188,-5.7188,-5.7188,-5.7188,-5.708,-5.6373,-5.5921,-5.516,-5.4092,-5.3132,-5.2715,-5.2516,-5.2498,-5.2389,-5.2299,-5.2226,-5.2082,-5.143,-5.0896,-5.048,-4.9432,-4.8644,-4.8231,-4.7631,-4.7277,-4.7201,-4.707,-4.6998,-4.6998,-4.6998,-4.6998,-4.6888,-4.659,-4.6381,-4.6471,-4.6725,-4.6865,-4.6801,-4.6566,-4.6381,-4.6259,-4.5852,-4.5503,-4.539,-4.4882,-4.4474,-4.439,-4.3948,-4.3615,-4.3615,-4.3615,-4.3615,-4.3615,-4.3615,-4.3615,-4.3615,-4.3615,-4.3615,-4.3615,-4.3598,-4.3479,-4.3251,-4.3174,-4.3037,-4.279,-4.2649,-4.2406,-4.1742,-4.1693,-4.1306,-4.0658,-4.0335,-4.0043,-3.9752,-3.9489,-3.9055,-3.8748,-3.8618,-3.8618,-3.8391,-3.8391,-3.8391,-3.8391,-3.8391,-3.8391,-3.8391,-3.8391,-3.8391,-3.8391,-3.8391,-3.8391,-3.8391,-3.8391,-3.8391,-3.8391,-3.8363,-3.8278,-3.8075,-3.7549,-3.689,-6.2023,-6.2023,-6.2023,-6.1779,-6.1254,-6.014,-5.9379,-5.8854,-5.775,-5.7188,-5.7188,-5.7188,-5.7188,-5.7188,-5.7188,-5.7188,-5.7188,-5.7188,-5.7188,-5.7116,-5.6699,-5.6373,-5.5812,-5.487,-5.3856,-5.3114,-5.2643,-5.2516,-5.2498,-5.2498,-5.2444,-5.2498,-5.2027,-5.1524,-5.1179,-5.0195,-4.9393,-4.856,-4.8016,-4.7572,-4.7245,-4.7066,-4.6998,-4.6998,-4.6998,-4.6998,-4.6957,-4.6495,-4.6259,-4.6211,-4.6193,-4.62,-4.6175,-4.5953,-4.5802,-4.57,-4.5258,-4.4947,-4.4801,-4.4429,-4.4047,-4.4093,-4.3759,-4.3658,-4.3615,-4.3615,-4.3615,-4.3615,-4.3615,-4.3615,-4.3615,-4.3615,-4.3615,-4.3598,-4.3539,-4.3372,-4.3157,-4.3096,-4.2959,-4.268,-4.2602,-4.2472,-4.2197,-4.2002,-4.197,-4.163,-4.1144,-4.0869,-4.0721,-4.0348,-3.9654,-3.9282,-3.9055,-3.8845,-3.8505,-3.8391,-3.8391,-3.8391,-3.8391,-3.8391,-3.8391,-3.8391,-3.8391,-3.8391,-3.8391,-3.8391,-3.8391,-3.8391,-3.8391,-3.8391,-3.8335,-3.8205,-3.7857,-3.7266,-3.6554,-6.2023,-6.196,-6.1851,-6.1471,-6.0864,-5.9887,-5.9126,-5.8583,-5.7587,-5.7188,-5.7188,-5.7188,-5.7188,-5.7188,-5.7188,-5.7188,-5.7188,-5.7188,-5.7188,-5.7152,-5.7116,-5.6772,-5.6174,-5.545,-5.4653,-5.3838,-5.2915,-5.2534,-5.2498,-5.2498,-5.2498,-5.2498,-5.248,-5.2025,-5.1427,-5.1038,-5.0297,-4.9134,-4.8647,-4.81,-4.7563,-4.7311,-4.7235,-4.6998,-4.6998,-4.6911,-4.6731,-4.6308,-4.597,-4.5938,-4.5372,-4.5091,-4.5064,-4.5161,-4.5188,-4.5144,-4.4663,-4.4373,-4.4276,-4.3964,-4.3658,-4.3615,-4.3598,-4.3598,-4.3615,-4.3615,-4.3615,-4.3615,-4.3615,-4.3615,-4.3615,-4.3568,-4.3568,-4.3539,-4.3432,-4.3265,-4.3113,-4.3052,-4.2898,-4.2696,-4.2602,-4.2505,-4.2505,-4.2424,-4.2538,-4.2522,-4.2051,-4.1661,-4.1466,-4.1158,-4.0461,-3.9735,-3.946,-3.8926,-3.8537,-3.844,-3.844,-3.8391,-3.8391,-3.8391,-3.8391,-3.8391,-3.8391,-3.8391,-3.8391,-3.8391,-3.8391,-3.8391,-3.8391,-3.8391,-3.8278,-3.8103,-3.7608,-3.6981,-3.6212,-6.2023,-6.1969,-6.1281,-6.1299,-6.1426,-5.9542,-5.8891,-5.9108,-5.775,-5.7206,-5.7188,-5.7188,-5.7188,-5.7188,-5.7188,-5.7188,-5.7188,-5.7188,-5.7188,-5.7188,-5.7188,-5.7007,-5.6772,-5.6029,-5.5359,-5.4472,-5.3349,-5.2607,-5.2498,-5.2498,-5.2498,-5.2498,-5.2498,-5.2201,-5.1784,-5.1317,-5.0659,-4.9823,-4.9311,-4.8681,-4.8022,-4.7737,-4.7493,-4.7025,-4.6895,-4.6684,-4.6308,-4.5776,-4.5241,-4.479,-4.4219,-4.3989,-4.4076,-4.4401,-4.4597,-4.4513,-4.415,-4.3877,-4.3818,-4.3717,-4.3615,-4.3615,-4.3615,-4.3615,-4.3615,-4.3615,-4.3615,-4.3615,-4.3615,-4.3615,-4.3615,-4.3509,-4.3432,-4.3402,-4.3281,-4.3082,-4.2976,-4.2914,-4.2852,-4.2634,-4.2602,-4.2602,-4.2602,-4.2602,-4.2602,-4.2602,-4.2376,-4.2019,-4.1759,-4.1547,-4.1158,-4.0478,-3.9829,-3.9169,-3.8537,-3.8505,-3.8489,-3.8408,-3.8391,-3.8391,-3.8391,-3.8391,-3.8391,-3.8391,-3.8391,-3.8391,-3.8391,-3.8391,-3.8278,-3.8205,-3.8119,-3.7988,-3.7266,-3.6538,-3.5929,-6.2023,-6.1906,-6.1109,-6.0792,-6.0502,-5.9126,-5.8365,-5.8257,-5.7532,-5.7188,-5.7188,-5.7188,-5.7188,-5.7188,-5.7188,-5.7188,-5.7188,-5.7188,-5.7188,-5.7188,-5.7188,-5.7188,-5.7098,-5.6373,-5.5884,-5.5081,-5.3899,-5.2832,-5.2534,-5.2498,-5.2498,-5.2457,-5.2428,-5.2293,-5.1982,-5.1322,-5.0659,-5.012,-4.9645,-4.8927,-4.7898,-4.7583,-4.7156,-4.7064,-4.6509,-4.6144,-4.6094,-4.5311,-4.4801,-4.4474,-4.3919,-4.3658,-4.3717,-4.3848,-4.4047,-4.4006,-4.3776,-4.3615,-4.3615,-4.3615,-4.3615,-4.3615,-4.3615,-4.3615,-4.3615,-4.3615,-4.3615,-4.3615,-4.3615,-4.3615,-4.3615,-4.3479,-4.3402,-4.3342,-4.316,-4.2992,-4.2899,-4.279,-4.2696,-4.265,-4.2602,-4.2602,-4.2602,-4.2602,-4.2602,-4.2602,-4.2602,-4.2376,-4.2083,-4.1921,-4.1711,-4.1093,-4.0413,-3.9768,-3.9169,-3.8991,-3.8748,-3.8586,-3.8505,-3.8505,-3.8391,-3.8391,-3.8391,-3.8391,-3.8391,-3.8391,-3.8391,-3.8391,-3.8205,-3.7988,-3.7799,-3.749,-3.6799,-3.6134,-3.5482,-6.1906,-6.1688,-6.0901,-6.0194,-5.9524,-5.8565,-5.7913,-5.746,-5.7279,-5.7188,-5.7188,-5.7188,-5.7188,-5.7188,-5.7188,-5.7188,-5.7188,-5.7188,-5.7188,-5.7188,-5.7188,-5.7188,-5.6989,-5.6627,-5.6156,-5.5679,-5.4827,-5.352,-5.2826,-5.2495,-5.2428,-5.2382,-5.2287,-5.2192,-5.1927,-5.1345,-5.0524,-5.0066,-4.9642,-4.8933,-4.7893,-4.7059,-4.6696,-4.6968,-4.6066,-4.5736,-4.5632,-4.5018,-4.4485,-4.4191,-4.3877,-4.3615,-4.3615,-4.3615,-4.3615,-4.3615,-4.3615,-4.3615,-4.3615,-4.3615,-4.3615,-4.3615,-4.3615,-4.3615,-4.3615,-4.3615,-4.3615,-4.3615,-4.3615,-4.3615,-4.3568,-4.3432,-4.3342,-4.3251,-4.3054,-4.2837,-4.2806,-4.2728,-4.2665,-4.2602,-4.2602,-4.2602,-4.2602,-4.2602,-4.2602,-4.2602,-4.2602,-4.2602,-4.2344,-4.2408,-4.218,-4.1628,-4.1029,-4.0461,-3.9978,-3.9703,-3.9347,-3.8942,-3.8829,-3.878,-3.857,-3.8391,-3.8424,-3.8456,-3.8391,-3.8391,-3.8391,-3.8335,-3.8119,-3.7873,-3.7506,-3.7057,-3.6461,-3.5787,-3.5088,-6.158,-6.0883,-6.0086,-5.9687,-5.9361,-5.8003,-5.7732,-5.8076,-5.746,-5.7206,-5.7188,-5.7188,-5.7188,-5.7188,-5.7188,-5.7188,-5.7188,-5.7188,-5.7188,-5.7188,-5.7188,-5.7188,-5.7188,-5.7152,-5.6472,-5.5938,-5.5491,-5.4699,-5.3544,-5.2618,-5.2246,-5.2264,-5.2204,-5.2078,-5.1907,-5.1184,-5.0893,-5.0546,-5.0007,-4.9304,-4.8529,-4.7687,-4.7045,-4.6672,-4.6264,-4.5774,-4.5138,-4.4666,-4.4332,-4.3789,-4.3687,-4.3615,-4.3615,-4.3615,-4.3615,-4.3615,-4.3615,-4.3615,-4.3615,-4.3615,-4.3615,-4.3615,-4.3615,-4.3615,-4.3615,-4.3615,-4.3615,-4.3615,-4.3615,-4.3598,-4.3539,-4.3312,-4.3174,-4.3052,-4.2867,-4.2728,-4.2634,-4.2665,-4.2602,-4.2602,-4.2602,-4.2602,-4.2602,-4.2602,-4.2602,-4.2602,-4.2602,-4.2602,-4.2602,-4.2602,-4.2554,-4.2002,-4.1693,-4.1144,-4.0691,-4.0461,-4.004,-3.9489,-3.9314,-3.9185,-3.9039,-3.8861,-3.8521,-3.8537,-3.8489,-3.8424,-3.8391,-3.8278,-3.8017,-3.7623,-3.7147,-3.6692,-3.6229,-3.5499,-3.4654,-6.0448,-6.0068,-5.9253,-5.8927,-5.8764,-5.7659,-5.7387,-5.7587,-5.7351,-5.7188,-5.7188,-5.7188,-5.7188,-5.7188,-5.7188,-5.7188,-5.7188,-5.7188,-5.7188,-5.7188,-5.7188,-5.7188,-5.7112,-5.6863,-5.6374,-5.5928,-5.5132,-5.4479,-5.3718,-5.3222,-5.2767,-5.2677,-5.2245,-5.1956,-5.1765,-5.0848,-5.0404,-4.9936,-4.9364,-4.8839,-4.8536,-4.7823,-4.7158,-4.706,-4.6443,-4.5751,-4.5245,-4.4725,-4.4286,-4.3777,-4.3615,-4.3615,-4.3615,-4.3615,-4.3615,-4.3615,-4.3615,-4.3615,-4.3615,-4.3615,-4.3615,-4.3615,-4.3615,-4.3615,-4.3615,-4.3615,-4.3615,-4.3615,-4.3615,-4.3568,-4.3479,-4.3281,-4.3129,-4.2945,-4.2743,-4.2665,-4.2602,-4.2602,-4.2602,-4.2602,-4.2602,-4.2602,-4.2602,-4.2602,-4.2602,-4.2602,-4.2602,-4.2602,-4.2602,-4.2602,-4.2522,-4.2359,-4.2132,-4.1905,-4.1468,-4.1126,-4.0753,-4.027,-4.0089,-3.9914,-3.9719,-3.9476,-3.905,-3.8694,-3.8638,-3.8557,-3.8444,-3.8234,-3.8046,-3.7431,-3.6723,-3.615,-3.5548,-3.4843,-3.4142,-5.9198,-5.8963,-5.8565,-5.8293,-5.8058,-5.7442,-5.7206,-5.7206,-5.7206,-5.7188,-5.7188,-5.7188,-5.7188,-5.7188,-5.7188,-5.7188,-5.7188,-5.7188,-5.7188,-5.7188,-5.7188,-5.7188,-5.7036,-5.6661,-5.6221,-5.5974,-5.4881,-5.4343,-5.4172,-5.3696,-5.3166,-5.3157,-5.2307,-5.1947,-5.1487,-5.0597,-4.9792,-4.9188,-4.8513,-4.8338,-4.8377,-4.7741,-4.7421,-4.7132,-4.6638,-4.5932,-4.563,-4.5287,-4.4669,-4.4075,-4.3946,-4.3896,-4.3664,-4.3615,-4.3615,-4.3615,-4.3615,-4.3615,-4.3615,-4.3615,-4.3615,-4.3615,-4.3615,-4.3615,-4.3615,-4.3615,-4.3615,-4.3615,-4.3615,-4.3539,-4.3419,-4.3251,-4.3068,-4.2914,-4.2728,-4.2665,-4.2602,-4.2602,-4.2602,-4.2602,-4.2602,-4.2602,-4.2602,-4.2602,-4.2602,-4.2602,-4.2602,-4.2602,-4.2602,-4.2602,-4.2554,-4.2457,-4.2392,-4.231,-4.2099,-4.1695,-4.1338,-4.1047,-4.0853,-4.0395,-4.0001,-3.97,-3.9338,-3.9074,-3.8782,-3.8518,-3.8325,-3.8171,-3.7988,-3.7131,-3.6244,-3.5434,-3.4743,-3.4128,-3.3744,-5.8039,-5.7424,-5.8112,-5.7967,-5.7315,-5.7224,-5.7188,-5.7188,-5.7188,-5.7188,-5.7188,-5.7188,-5.7188,-5.7188,-5.7188,-5.7188,-5.7188,-5.7188,-5.7188,-5.7188,-5.7188,-5.7163,-5.6889,-5.6501,-5.6055,-5.572,-5.4687,-5.4354,-5.436,-5.3479,-5.3134,-5.2829,-5.2129,-5.1873,-5.1317,-5.0335,-4.9188,-4.8591,-4.8066,-4.8033,-4.8147,-4.7835,-4.7635,-4.7137,-4.6888,-4.6509,-4.5875,-4.5746,-4.5384,-4.4671,-4.4489,-4.4274,-4.391,-4.3664,-4.3615,-4.3615,-4.3615,-4.3615,-4.3615,-4.3615,-4.3615,-4.3615,-4.3615,-4.3615,-4.3615,-4.3615,-4.3615,-4.3615,-4.3568,-4.3509,-4.3372,-4.3221,-4.3007,-4.2852,-4.2696,-4.2634,-4.2602,-4.2602,-4.2602,-4.2602,-4.2602,-4.2602,-4.2602,-4.2602,-4.2602,-4.2602,-4.2602,-4.2602,-4.2602,-4.2602,-4.2602,-4.257,-4.257,-4.2538,-4.2538,-4.2246,-4.1954,-4.1727,-4.1533,-4.0761,-3.9959,-3.9706,-3.9687,-3.9093,-3.8747,-3.8479,-3.8179,-3.797,-3.755,-3.6631,-3.5788,-3.5077,-3.439,-3.3785,-3.3501,-5.7478,-5.7224,-5.755,-5.7478,-5.7188,-5.7188,-5.7188,-5.7188,-5.7188,-5.7188,-5.7188,-5.7188,-5.7188,-5.7188,-5.7188,-5.7188,-5.7188,-5.7188,-5.7163,-5.7188,-5.7188,-5.6984,-5.6599,-5.5971,-5.5243,-5.473,-5.3975,-5.3698,-5.3727,-5.3109,-5.3049,-5.2658,-5.1917,-5.1389,-5.0783,-5.0016,-4.8903,-4.8292,-4.8001,-4.8001,-4.8001,-4.8001,-4.7868,-4.7636,-4.7587,-4.7189,-4.6593,-4.6477,-4.6013,-4.5467,-4.4986,-4.4622,-4.4257,-4.3926,-4.3681,-4.3648,-4.3648,-4.3615,-4.3615,-4.3615,-4.3615,-4.3615,-4.3615,-4.3615,-4.3615,-4.3615,-4.3615,-4.3568,-4.3539,-4.3449,-4.3235,-4.3068,-4.2883,-4.2759,-4.2681,-4.2602,-4.2602,-4.2602,-4.2602,-4.2602,-4.2602,-4.2602,-4.2602,-4.2602,-4.2602,-4.2602,-4.2602,-4.2602,-4.2602,-4.2602,-4.2602,-4.2602,-4.2602,-4.2602,-4.2602,-4.2554,-4.2489,-4.2295,-4.2132,-4.1277,-4.042,-4.023,-4.0056,-3.9371,-3.8639,-3.8189,-3.7884,-3.7655,-3.7017,-3.5955,-3.5352,-3.4843,-3.4133,-3.3543,-3.3529,-5.7188,-5.7188,-5.7188,-5.7188,-5.7188,-5.7188,-5.7188,-5.7188,-5.7188,-5.7188,-5.7188,-5.7188,-5.7188,-5.7188,-5.7188,-5.7036,-5.6915,-5.6889,-5.6889,-5.6889,-5.6811,-5.6679,-5.6156,-5.5543,-5.4791,-5.3879,-5.3111,-5.2886,-5.306,-5.264,-5.2639,-5.2414,-5.1736,-5.1179,-5.0634,-4.9613,-4.8623,-4.8147,-4.8001,-4.8001,-4.8001,-4.8001,-4.8001,-4.7951,-4.7934,-4.7752,-4.7338,-4.7173,-4.6825,-4.6245,-4.5715,-4.5317,-4.487,-4.4423,-4.4026,-4.3876,-4.3731,-4.3648,-4.3615,-4.3615,-4.3615,-4.3615,-4.3615,-4.3615,-4.3615,-4.3615,-4.3615,-4.3598,-4.3479,-4.3312,-4.3113,-4.3007,-4.2821,-4.2696,-4.2634,-4.2602,-4.2602,-4.2602,-4.2602,-4.2602,-4.2602,-4.2602,-4.2602,-4.2602,-4.2602,-4.2602,-4.2602,-4.2602,-4.2602,-4.2602,-4.2602,-4.2602,-4.2602,-4.2602,-4.2602,-4.2522,-4.2459,-4.2522,-4.225,-4.1757,-4.113,-4.0746,-4.0177,-3.9397,-3.8675,-3.7982,-3.7537,-3.7261,-3.6337,-3.521,-3.4746,-3.4345,-3.4329,-3.3839,-3.398,-5.7188,-5.7188,-5.7188,-5.7188,-5.7188,-5.7188,-5.7188,-5.7188,-5.7138,-5.7112,-5.7087,-5.7087,-5.7036,-5.7018,-5.6915,-5.6661,-5.6393,-5.6311,-5.6311,-5.6294,-5.6294,-5.6284,-5.5904,-5.5261,-5.4437,-5.3847,-5.3076,-5.2535,-5.2499,-5.2445,-5.247,-5.2272,-5.1697,-5.1008,-5.0759,-4.9596,-4.8625,-4.8082,-4.8001,-4.8001,-4.8001,-4.8001,-4.8001,-4.8001,-4.8001,-4.7868,-4.7802,-4.7752,-4.7421,-4.6924,-4.6643,-4.6245,-4.5748,-4.5069,-4.4705,-4.4655,-4.4092,-4.3764,-4.3648,-4.3631,-4.3615,-4.3615,-4.3615,-4.3615,-4.3615,-4.3615,-4.3585,-4.3568,-4.3432,-4.3281,-4.3129,-4.2976,-4.2759,-4.2665,-4.2634,-4.2602,-4.2602,-4.2602,-4.2602,-4.2602,-4.2602,-4.2602,-4.2602,-4.2602,-4.2602,-4.2602,-4.2602,-4.2602,-4.2602,-4.2602,-4.2602,-4.2602,-4.2602,-4.2602,-4.2602,-4.2492,-4.2476,-4.2571,-4.219,-4.1459,-4.0894,-4.0353,-3.9771,-3.9247,-3.8561,-3.7754,-3.7254,-3.6799,-3.5892,-3.4998,-3.4295,-3.3931,-3.4022,-3.4239,-3.4393,-5.7188,-5.7188,-5.7188,-5.7188,-5.7188,-5.7188,-5.7188,-5.7112,-5.6811,-5.6608,-5.6501,-5.6211,-5.6017,-5.6017,-5.6073,-5.5961,-5.5762,-5.5722,-5.5705,-5.5705,-5.5676,-5.5349,-5.5052,-5.4624,-5.396,-5.3315,-5.2676,-5.2464,-5.2445,-5.2409,-5.2409,-5.2227,-5.1696,-5.0708,-4.9923,-4.9091,-4.8712,-4.8133,-4.8001,-4.8001,-4.8001,-4.8001,-4.8001,-4.8001,-4.8001,-4.8001,-4.8001,-4.8001,-4.7819,-4.7504,-4.7289,-4.6825,-4.6444,-4.5831,-4.545,-4.5417,-4.5036,-4.4804,-4.4357,-4.3979,-4.3615,-4.3615,-4.3615,-4.3615,-4.3615,-4.3615,-4.3568,-4.3479,-4.3342,-4.316,-4.2976,-4.279,-4.2665,-4.2634,-4.2602,-4.2602,-4.2602,-4.2602,-4.2602,-4.2602,-4.2602,-4.2602,-4.2602,-4.2602,-4.2602,-4.2508,-4.2492,-4.2571,-4.2571,-4.2602,-4.2602,-4.2602,-4.2602,-4.2602,-4.2571,-4.2317,-4.211,-4.2045,-4.1426,-4.0588,-4.0104,-3.9859,-3.9326,-3.8789,-3.8178,-3.761,-3.7183,-3.6677,-3.576,-3.4915,-3.4685,-3.45,-3.4725,-3.488,-3.4922,-5.7188,-5.7188,-5.7188,-5.7188,-5.7188,-5.7188,-5.7188,-5.7087,-5.6582,-5.6311,-5.6201,-5.5676,-5.5414,-5.5414,-5.5385,-5.5177,-5.5087,-5.5056,-5.5056,-5.5056,-5.4978,-5.4747,-5.4422,-5.396,-5.355,-5.2956,-5.2605,-5.2409,-5.2409,-5.2409,-5.2409,-5.2293,-5.1912,-5.1184,-5.0223,-4.9526,-4.8895,-4.8431,-4.8282,-4.8001,-4.8001,-4.8001,-4.8001,-4.8001,-4.8001,-4.8001,-4.8001,-4.8001,-4.8001,-4.7852,-4.7603,-4.7255,-4.7057,-4.6676,-4.6228,-4.6162,-4.5831,-4.5433,-4.4705,-4.4357,-4.3992,-4.3631,-4.3615,-4.3615,-4.3615,-4.3615,-4.3539,-4.3402,-4.3204,-4.3068,-4.2899,-4.2696,-4.2634,-4.2602,-4.2602,-4.2602,-4.2602,-4.2602,-4.2602,-4.2602,-4.2602,-4.2602,-4.2602,-4.2602,-4.2602,-4.246,-4.2365,-4.2429,-4.246,-4.2429,-4.2397,-4.2397,-4.246,-4.2492,-4.2285,-4.1981,-4.177,-4.1541,-4.0808,-3.9929,-3.9718,-3.9484,-3.8899,-3.8412,-3.8123,-3.7754,-3.7261,-3.6673,-3.6239,-3.6056,-3.6,-3.5798,-3.5606,-3.5513,-3.5527,-5.7188,-5.7188,-5.7188,-5.7188,-5.7188,-5.7188,-5.7188,-5.7138,-5.6519,-5.6257,-5.6201,-5.5519,-5.5104,-5.5224,-5.5236,-5.4905,-5.4471,-5.4408,-5.4376,-5.4296,-5.42,-5.4136,-5.404,-5.3714,-5.323,-5.2903,-5.2622,-5.2409,-5.2409,-5.2409,-5.2409,-5.2409,-5.2293,-5.1711,-5.0966,-5.0021,-4.9293,-4.8845,-4.8315,-4.8067,-4.8001,-4.8001,-4.8001,-4.8001,-4.8001,-4.8001,-4.8001,-4.8001,-4.8001,-4.7968,-4.7934,-4.7951,-4.7752,-4.7305,-4.7057,-4.6742,-4.6278,-4.5632,-4.5135,-4.492,-4.434,-4.3926,-4.3664,-4.3631,-4.3598,-4.3568,-4.3462,-4.3342,-4.3143,-4.3007,-4.2868,-4.2728,-4.2602,-4.2602,-4.2602,-4.2602,-4.2602,-4.2602,-4.2602,-4.2602,-4.2602,-4.2602,-4.2602,-4.2602,-4.2492,-4.2429,-4.2254,-4.2077,-4.2077,-4.1965,-4.1965,-4.1981,-4.2077,-4.2317,-4.2077,-4.1525,-4.1278,-4.101,-4.0313,-3.9591,-3.9376,-3.9139,-3.8716,-3.8375,-3.824,-3.7898,-3.7462,-3.7301,-3.7282,-3.7124,-3.6797,-3.6584,-3.6212,-3.6159,-3.6216,-5.7188,-5.7188,-5.7188,-5.7188,-5.7188,-5.7188,-5.7188,-5.7069,-5.6156,-5.5647,-5.5589,-5.4506,-5.419,-5.4045,-5.4045,-5.3948,-5.3849,-5.375,-5.3684,-5.3583,-5.3566,-5.345,-5.3315,-5.3094,-5.2817,-5.2694,-5.2516,-5.2409,-5.2409,-5.2409,-5.2409,-5.2409,-5.2409,-5.221,-5.1595,-5.0601,-4.9806,-4.9077,-4.8431,-4.81,-4.8001,-4.8001,-4.8001,-4.8001,-4.8001,-4.8001,-4.8001,-4.8001,-4.8001,-4.8001,-4.8001,-4.8001,-4.7951,-4.7802,-4.7686,-4.7603,-4.7057,-4.6444,-4.6129,-4.5284,-4.4589,-4.4274,-4.388,-4.3631,-4.3568,-4.3492,-4.3402,-4.3221,-4.3068,-4.2961,-4.2806,-4.2665,-4.2602,-4.2602,-4.2602,-4.2602,-4.2602,-4.2602,-4.2602,-4.2602,-4.2602,-4.2492,-4.2492,-4.246,-4.2349,-4.2333,-4.2126,-4.177,-4.1624,-4.1492,-4.1444,-4.1444,-4.1444,-4.1591,-4.1278,-4.0758,-4.0622,-4.0382,-3.9697,-3.9103,-3.8789,-3.8583,-3.8412,-3.83,-3.8202,-3.7953,-3.7658,-3.7625,-3.7625,-3.7433,-3.7109,-3.7003,-3.6845,-3.6694,-3.6638,-5.7188,-5.7188,-5.7188,-5.7188,-5.7163,-5.6941,-5.6837,-5.6661,-5.5784,-5.5367,-5.5236,-5.4093,-5.3518,-5.3568,-5.3568,-5.3534,-5.3534,-5.3551,-5.3467,-5.3281,-5.311,-5.3076,-5.2868,-5.2659,-5.2605,-5.2535,-5.248,-5.2409,-5.2409,-5.2409,-5.2409,-5.2409,-5.2409,-5.2409,-5.1926,-5.0932,-5.0071,-4.9342,-4.8696,-4.8166,-4.8001,-4.8001,-4.8001,-4.8001,-4.8001,-4.8001,-4.8001,-4.8001,-4.8001,-4.8001,-4.8001,-4.8001,-4.8001,-4.8001,-4.7984,-4.7885,-4.7636,-4.7123,-4.6676,-4.5781,-4.5152,-4.4622,-4.4015,-4.3638,-4.3509,-4.3432,-4.3251,-4.3068,-4.2961,-4.2837,-4.2713,-4.2602,-4.2602,-4.2602,-4.2602,-4.2602,-4.2602,-4.2602,-4.2602,-4.2602,-4.2508,-4.2381,-4.2317,-4.2238,-4.2077,-4.177,-4.1327,-4.0842,-4.0808,-4.0876,-4.0826,-4.0792,-4.0724,-4.0724,-4.0366,-4.0139,-3.9964,-3.9718,-3.9103,-3.8583,-3.824,-3.824,-3.8277,-3.824,-3.8142,-3.7953,-3.7853,-3.7754,-3.7715,-3.751,-3.7317,-3.713,-3.7011,-3.6919,-3.6866,-5.7181,-5.7087,-5.7087,-5.6966,-5.6966,-5.6447,-5.6229,-5.6128,-5.5478,-5.5261,-5.5026,-5.4045,-5.3518,-5.3518,-5.3518,-5.3518,-5.3518,-5.3501,-5.3332,-5.3179,-5.3024,-5.292,-5.2746,-5.2587,-5.2499,-5.2516,-5.248,-5.2409,-5.2409,-5.2409,-5.2409,-5.2409,-5.2409,-5.2409,-5.2177,-5.1131,-5.0336,-4.9822,-4.8961,-4.8216,-4.805,-4.8001,-4.8001,-4.8001,-4.8001,-4.8001,-4.8001,-4.8001,-4.8001,-4.8001,-4.8001,-4.8001,-4.8001,-4.8001,-4.8001,-4.8001,-4.7885,-4.7636,-4.7123,-4.6329,-4.5568,-4.4811,-4.399,-4.3586,-4.341,-4.3314,-4.3099,-4.2976,-4.2868,-4.2775,-4.265,-4.2602,-4.2602,-4.2602,-4.2602,-4.2602,-4.2602,-4.2602,-4.2602,-4.2602,-4.2571,-4.2397,-4.19,-4.1803,-4.1624,-4.126,-4.0638,-4.0034,-3.9929,-4.0139,-4.0069,-4.0034,-3.9859,-3.9788,-3.9929,-3.9682,-3.9412,-3.903,-3.8583,-3.8337,-3.824,-3.8202,-3.8202,-3.8165,-3.8142,-3.8142,-3.8066,-3.7929,-3.7754,-3.751,-3.7356,-3.7226,-3.7095,-3.7017,-3.6978,-5.6941,-5.6492,-5.6017,-5.5848,-5.5801,-5.5676,-5.5636,-5.556,-5.49,-5.4624,-5.4502,-5.3882,-5.3518,-5.3518,-5.3518,-5.3518,-5.3518,-5.3467,-5.3264,-5.3076,-5.2903,-5.2746,-5.257,-5.248,-5.2445,-5.2409,-5.2409,-5.2409,-5.2409,-5.2409,-5.2409,-5.2409,-5.2409,-5.2409,-5.2359,-5.1313,-5.0717,-5.0153,-4.9326,-4.8431,-4.805,-4.8001,-4.8001,-4.8001,-4.8001,-4.8001,-4.8001,-4.8001,-4.8001,-4.8001,-4.8001,-4.8001,-4.8001,-4.8001,-4.8001,-4.8001,-4.8001,-4.7852,-4.7472,-4.6828,-4.6054,-4.5347,-4.4578,-4.3766,-4.3266,-4.3135,-4.2978,-4.2885,-4.2775,-4.2681,-4.265,-4.2602,-4.2602,-4.2602,-4.2602,-4.2602,-4.2602,-4.2602,-4.2602,-4.2602,-4.2602,-4.219,-4.1672,-4.1327,-4.116,-4.0672,-3.998,-3.9448,-3.9284,-3.932,-3.9066,-3.8972,-3.8789,-3.8789,-3.9103,-3.9247,-3.8957,-3.8863,-3.8546,-3.8375,-3.8202,-3.8202,-3.8202,-3.8202,-3.8202,-3.8104,-3.8028,-3.7929,-3.7739,-3.751,-3.7356,-3.7187,-3.7095,-3.6978,-3.6978,-5.6211,-5.5894,-5.5531,-5.5385,-5.5373,-5.5087,-5.4948,-5.4826,-5.4267,-5.3994,-5.3979,-5.3668,-5.3518,-5.3518,-5.3518,-5.3518,-5.3518,-5.3518,-5.3246,-5.3007,-5.2868,-5.2676,-5.2516,-5.2409,-5.2409,-5.2409,-5.2409,-5.2409,-5.2409,-5.2409,-5.2409,-5.2409,-5.2409,-5.2393,-5.231,-5.168,-5.0949,-5.0186,-4.9525,-4.8812,-4.815,-4.8017,-4.8017,-4.8001,-4.8001,-4.8001,-4.8001,-4.8001,-4.8001,-4.8001,-4.8001,-4.8001,-4.8001,-4.8001,-4.8001,-4.8001,-4.8001,-4.7985,-4.7687,-4.716,-4.6453,-4.5813,-4.5095,-4.4265,-4.4055,-4.3844,-4.3083,-4.294,-4.2729,-4.2602,-4.2602,-4.2602,-4.2602,-4.2602,-4.2602,-4.2602,-4.2602,-4.2602,-4.2602,-4.2602,-4.2429,-4.1981,-4.1459,-4.0876,-4.0603,-3.998,-3.9284,-3.9139,-3.8972,-3.8716,-3.8412,-3.8202,-3.8202,-3.824,-3.8583,-3.8657,-3.8509,-3.8449,-3.8472,-3.8337,-3.8202,-3.8202,-3.8202,-3.8142,-3.8066,-3.7967,-3.7853,-3.7777,-3.761,-3.738,-3.7264,-3.7095,-3.7056,-3.6978,-3.6978,-5.5385,-5.5266,-5.5177,-5.5134,-5.5056,-5.4565,-5.4281,-5.4203,-5.3734,-5.3534,-5.3568,-5.3534,-5.3518,-5.3518,-5.3518,-5.3518,-5.3518,-5.3518,-5.3246,-5.2972,-5.2903,-5.2676,-5.2516,-5.2409,-5.2409,-5.2409,-5.2409,-5.2409,-5.2409,-5.2409,-5.2409,-5.2409,-5.2409,-5.2409,-5.221,-5.1812,-5.1181,-5.0568,-4.9872,-4.9077,-4.8514,-4.8034,-4.8017,-4.8001,-4.8001,-4.8001,-4.8001,-4.8001,-4.8001,-4.8001,-4.8001,-4.8001,-4.8001,-4.8001,-4.8001,-4.8001,-4.8001,-4.7935,-4.7688,-4.7227,-4.675,-4.6225,-4.5489,-4.5049,-4.4838,-4.422,-4.3459,-4.3217,-4.2975,-4.2651,-4.2651,-4.2602,-4.2602,-4.2508,-4.2508,-4.2302,-4.2302,-4.2365,-4.2397,-4.2397,-4.2093,-4.1672,-4.1111,-4.0519,-3.9909,-3.9247,-3.8972,-3.8936,-3.8826,-3.8583,-3.8315,-3.8202,-3.8202,-3.824,-3.8277,-3.8277,-3.8277,-3.8277,-3.8337,-3.8277,-3.8202,-3.8142,-3.8066,-3.7967,-3.7891,-3.7777,-3.761,-3.7495,-3.7341,-3.7264,-3.7134,-3.7056,-3.7017,-3.6978,-3.6978,-5.5069,-5.4548,-5.4076,-5.3899,-5.3849,-5.3734,-5.3651,-5.3668,-5.3551,-5.3518,-5.3518,-5.3518,-5.3518,-5.3518,-5.3518,-5.3518,-5.3518,-5.3467,-5.3246,-5.2938,-5.2868,-5.2676,-5.248,-5.2409,-5.2409,-5.2409,-5.2409,-5.2409,-5.2409,-5.2409,-5.2409,-5.2409,-5.2409,-5.2409,-5.2393,-5.2028,-5.173,-5.1065,-5.0684,-5.0088,-4.8978,-4.8481,-4.805,-4.8001,-4.8001,-4.8001,-4.8001,-4.8001,-4.8001,-4.8001,-4.8001,-4.8001,-4.8001,-4.8001,-4.8001,-4.8001,-4.8001,-4.7935,-4.7704,-4.7408,-4.7029,-4.652,-4.588,-4.5503,-4.508,-4.4432,-4.4026,-4.4156,-4.38,-4.2942,-4.278,-4.2651,-4.2571,-4.2285,-4.2142,-4.1525,-4.1178,-4.1459,-4.1689,-4.1689,-4.1591,-4.1111,-4.0554,-3.9964,-3.9305,-3.8789,-3.8523,-3.8486,-3.8523,-3.8337,-3.8202,-3.8202,-3.8202,-3.8202,-3.824,-3.824,-3.824,-3.8202,-3.8202,-3.8165,-3.8104,-3.8005,-3.7929,-3.7777,-3.7701,-3.7572,-3.7419,-3.7264,-3.7226,-3.7134,-3.7056,-3.6978,-3.6978,-3.6978,-3.6978]},{"header":{"parameterUnit":"m.s-1","parameterCategory":1,"la1":31.0,"la2":29.5877,"lo1":-88.7671,"lo2":-86.6584,"dy":0.0162,"dx":0.0185,"nx":115,"ny":88,"refTime":"2025-04-12T12:00:00:Z","depth":0,"parameterNumber":3,"parameterNumberName":"V-component_of_WINDS"},"data":[0.0,0.0,0.0,0.0,0.0,0.0,0.0,0.0,0.0,0.0,0.0,0.0,0.0,0.0,0.0,0.0,0.0,0.0,0.0,0.0,0.0,0.0,0.0,0.0,0.0,0.0,0.0,0.0,0.0,0.0,0.0,0.0,0.0,0.0,0.0,0.0,0.0,0.0,0.0,0.0,0.0,0.0,0.0,0.0,0.0,0.0,0.0,0.0,0.0,0.0,0.0,0.0,0.0,0.0,0.0,0.0,0.0,0.0,0.0,0.0,0.0,0.0,0.0,0.0,0.0,0.0,0.0,0.0,0.0,0.0,0.0,0.0,0.0,0.0,0.0,0.0,0.0,0.0,0.0,0.0,0.0,0.0,0.0,0.0,0.0,0.0,0.0,0.0,0.0,0.0,0.0,0.0,0.0,0.0,0.0,0.0,0.0,0.0,0.0,0.0,0.0,0.0,0.0,0.0,0.0,0.0,0.0,0.0,0.0,0.0,0.0,0.0,0.0,0.0,0.0,0.0,0.0,0.0,0.0,0.0,0.0,0.0,0.0,0.0,0.0,0.0,0.0,0.0,0.0,0.0,0.0,0.0,0.0,0.0,0.0,0.0,0.0,0.0,0.0,0.0,0.0,0.0,0.0,0.0,0.0,0.0,0.0,0.0,0.0,0.0,0.0,0.0,0.0,0.0,0.0,0.0,0.0,0.0,0.0,0.0,0.0,0.0,0.0,0.0,0.0,0.0,0.0,0.0,0.0,0.0,0.0,0.0,0.0,0.0,0.0,0.0,0.0,0.0,0.0,0.0,0.0,0.0,0.0,0.0,0.0,0.0,0.0,0.0,0.0,0.0,0.0,0.0,0.0,0.0,0.0,0.0,0.0,0.0,0.0,0.0,0.0,0.0,0.0,0.0,0.0,0.0,0.0,0.0,0.0,0.0,0.0,0.0,0.0,0.0,0.0,0.0,0.0,0.0,0.0,0.0,0.0,0.0,0.0,0.0,0.0,0.0,0.0,0.0,0.0,0.0,0.0,0.0,0.0,0.0,0.0,0.0,0.0,0.0,0.0,0.0,0.0,0.0,0.0,0.0,0.0,0.0,0.0,0.0,0.0,0.0,0.0,0.0,0.0,0.0,0.0,0.0,0.0,0.0,0.0,0.0,0.0,0.0,0.0,0.0,0.0,0.0,0.0,0.0,0.0,0.0,0.0,0.0,0.0,0.0,0.0,0.0,0.0,0.0,0.0,0.0,0.0,0.0,0.0,0.0,0.0,0.0,0.0,0.0,0.0,0.0,0.0,0.0,0.0,0.0,0.0,0.0,0.0,0.0,0.0,0.0,0.0,0.0,0.0,0.0,0.0,0.0,0.0,0.0,0.0,0.0,0.0,0.0,0.0,0.0,0.0,0.0,0.0,0.0,0.0,0.0,0.0,0.0,0.0,0.0,0.0,0.0,0.0,0.0,0.0,0.0,0.0,0.0,0.0,0.0,0.0,0.0,0.0,0.0,0.0,0.0,0.0,0.0,0.0,0.0,0.0,0.0,0.0,0.0,0.0,0.0,0.0,0.0,0.0,0.0,0.0,0.0,0.0,0.0,0.0,0.0,0.0,0.0,0.0,0.0,0.0,0.0,0.0,0.0,0.0,0.0,0.0,0.0,0.0,0.0,0.0,0.0,0.0,0.0,0.0,0.0,0.0,0.0,0.0,0.0,0.0,0.0,0.0,0.0,0.0,0.0,0.0,0.0,0.0,0.0,0.0,0.0,0.0,0.0,0.0,0.0,0.0,0.0,0.0,0.0,0.0,0.0,0.0,0.0,0.0,0.0,0.0,0.0,0.0,0.0,0.0,0.0,0.0,0.0,0.0,0.0,0.0,0.0,0.0,0.0,0.0,0.0,0.0,0.0,0.0,0.0,0.0,0.0,0.0,0.0,0.0,0.0,0.0,0.0,0.0,0.0,0.0,0.0,0.0,0.0,0.0,0.0,0.0,0.0,0.0,0.0,0.0,0.0,0.0,0.0,0.0,0.0,0.0,0.0,0.0,0.0,0.0,0.0,0.0,0.0,0.0,0.0,0.0,0.0,0.0,0.0,0.0,0.0,0.0,0.0,0.0,0.0,0.0,0.0,0.0,0.0,0.0,0.0,0.0,0.0,0.0,0.0,0.0,0.0,0.0,0.0,0.0,0.0,0.0,0.0,0.0,0.0,0.0,0.0,0.0,0.0,0.0,0.0,0.0,0.0,0.0,0.0,0.0,0.0,0.0,0.0,0.0,0.0,0.0,0.0,0.0,0.0,0.0,0.0,0.0,0.0,0.0,0.0,0.0,0.0,0.0,0.0,0.0,0.0,0.0,0.0,0.0,0.0,0.0,0.0,0.0,0.0,0.0,0.0,0.0,0.0,0.0,0.0,0.0,0.0,0.0,0.0,0.0,0.0,0.0,0.0,0.0,0.0,0.0,0.0,0.0,0.0,0.0,0.0,0.0,0.0,0.0,0.0,0.0,0.0,0.0,0.0,0.0,0.0,0.0,0.0,0.0,0.0,0.0,0.0,0.0,0.0,0.0,0.0,0.0,0.0,0.0,0.0,0.0,0.0,0.0,0.0,0.0,0.0,0.0,0.0,0.0,0.0,0.0,0.0,0.0,0.0,0.0,0.0,0.0,0.0,0.0,0.0,0.0,0.0,0.0,0.0,0.0,0.0,0.0,0.0,0.0,0.0,0.0,0.0,0.0,0.0,0.0,0.0,0.0,0.0,0.0,0.0,0.0,0.0,0.0,0.0,0.0,0.0,0.0,0.0,0.0,0.0,0.0,0.0,0.0,0.0,0.0,0.0,0.0,0.0,0.0,0.0,0.0,0.0,0.0,0.0,0.0,0.0,0.0,0.0,0.0,0.0,0.0,0.0,0.0,0.0,0.0,0.0,0.0,0.0,0.0,0.0,0.0,0.0,0.0,0.0,0.0,0.0,0.0,0.0,0.0,0.0,0.0,0.0,0.0,0.0,0.0,0.0,0.0,0.0,0.0,0.0,0.0,0.0,0.0,0.0,0.0,0.0,0.0,0.0,0.0,0.0,0.0,0.0,0.0,0.0,0.0,0.0,0.0,0.0,0.0,0.0,0.0,0.0,0.0,0.0,0.0,0.0,0.0,0.0,0.0,0.0,0.0,0.0,0.0,0.0,0.0,0.0,0.0,0.0,0.0,0.0,0.0,0.0,0.0,0.0,0.0,0.0,0.0,0.0,0.0,0.0,0.0,0.0,0.0,0.0,0.0,0.0,0.0,0.0,0.0,0.0,0.0,0.0,0.0,0.0,0.0,0.0,0.0,0.0,0.0,0.0,0.0,0.0,0.0,0.0,0.0,0.0,0.0,0.0,0.0,0.0,0.0,0.0,0.0,0.0,0.0,0.0,0.0,0.0,0.0,0.0,0.0,0.0,0.0,0.0,0.0,0.0,0.0,0.0,0.0,0.0,0.0,0.0,0.0,0.0,0.0,0.0,0.0,0.0,0.0,0.0,0.0,0.0,0.0,0.0,0.0,0.0,0.0,0.0,0.0,0.0,0.0,0.0,0.0,0.0,0.0,0.0,0.0,0.0,0.0,0.0,0.0,0.0,0.0,0.0,0.0,0.0,0.0,0.0,0.0,0.0,0.0,0.0,0.0,0.0,0.0,0.0,0.0,0.0,0.0,0.0,0.0,0.0,0.0,0.0,0.0,0.0,0.0,0.0,0.0,0.0,0.0,0.0,0.0,0.0,0.0,0.0,0.0,0.0,0.0,0.0,0.0,0.0,0.0,0.0,0.0,0.0,0.0,0.0,0.0,0.0,0.0,0.0,0.0,0.0,0.0,0.0,0.0,0.0,0.0,0.0,0.0,0.0,0.0,0.0,0.0,0.0,0.0,0.0,0.0,0.0,0.0,0.0,0.0,0.0,0.0,0.0,0.0,0.0,0.0,0.0,0.0,0.0,0.0,0.0,0.0,0.0,0.0,0.0,0.0,0.0,0.0,0.0,0.0,0.0,0.0,0.0,0.0,0.0,0.0,0.0,0.0,0.0,0.0,0.0,0.0,0.0,0.0,0.0,0.0,0.0,0.0,0.0,0.0,0.0,0.0,0.0,0.0,0.0,0.0,0.0,0.0,0.0,0.0,0.0,0.0,0.0,0.0,0.0,0.0,0.0,0.0,0.0,0.0,0.0,0.0,0.0,0.0,0.0,0.0,0.0,0.0,0.0,0.0,0.0,0.0,0.0,0.0,0.0,0.0,0.0,0.0,0.0,0.0,0.0,1.09,0.0,0.0,0.0,0.0,0.0,0.0,0.0,0.0,0.0,0.0,0.0,0.0,0.0,0.0,0.0,0.0,0.0,0.0,0.0,0.0,0.0,0.0,0.0,0.0,0.0,0.0,0.0,0.0,0.0,0.0,0.0,0.0,0.0,0.0,0.0,0.0,0.0,0.0,0.0,0.0,0.0,0.0,0.0,0.0,0.0,0.0,0.0,0.0,0.0,0.0,0.0,0.0,0.0,0.0,0.0,0.0,0.0,0.0,0.0,0.0,0.0,0.0,0.0,0.0,0.0,0.0,0.0,0.0,0.0,0.0,0.0,0.0,0.0,0.0,0.0,0.0,0.0,0.0,0.0,0.0,0.0,0.0,0.0,0.0,0.0,0.0,0.0,0.0,0.0,0.0,0.0,0.0,0.0,0.0,0.0,0.0,0.0,0.0,0.0,0.0,0.0,0.0,0.0,0.0,0.0,0.0,0.0,0.0,0.0,0.0,1.09,1.09,1.09,1.09,1.091,0.0,0.0,0.0,0.0,0.0,0.0,0.0,0.0,0.0,0.0,0.0,0.0,0.0,0.0,0.0,0.0,0.0,0.0,0.0,0.0,0.0,0.0,0.0,0.0,0.0,0.0,0.0,0.0,0.0,0.0,0.0,0.0,0.0,0.0,0.0,0.0,0.0,0.0,0.0,0.0,0.0,0.0,0.0,0.0,0.0,0.0,0.0,0.0,0.0,0.0,0.0,0.0,0.0,0.0,0.0,0.0,0.0,0.0,0.0,0.0,0.0,0.0,0.0,0.0,0.0,0.0,0.0,0.0,0.0,0.0,0.0,0.0,0.0,0.0,0.0,0.0,0.0,0.0,0.0,0.0,0.0,0.0,0.0,0.0,0.0,0.0,0.0,0.0,0.0,0.0,0.0,0.0,0.0,0.0,0.0,0.0,0.0,0.0,0.0,0.0,0.0,0.0,0.0,0.0,0.0,0.0,0.0,0.0,0.0,0.0,0.0,0.0,1.12,1.121,1.1231,0.0,0.0,0.0,0.0,0.0,0.0,0.0,0.0,0.0,0.0,0.0,0.0,0.0,0.0,0.0,0.0,0.0,0.0,0.0,0.0,0.0,0.0,0.0,0.0,0.0,0.0,0.0,0.0,0.0,0.0,0.0,0.0,0.0,0.0,0.0,0.0,0.0,0.0,0.0,0.0,0.0,0.0,0.0,0.0,0.0,0.0,0.0,0.0,0.0,0.0,0.0,0.0,0.0,0.0,0.0,0.0,0.0,0.0,0.0,0.0,0.0,0.0,0.0,0.0,0.0,0.0,0.0,0.0,0.0,0.0,0.0,0.0,0.0,0.0,0.0,0.0,0.0,0.0,0.0,0.0,0.0,0.0,0.0,0.0,0.0,0.0,0.0,0.0,0.0,0.0,0.0,0.0,0.0,0.0,0.0,0.0,0.0,0.0,0.0,0.0,0.0,0.0,0.0,0.0,0.0,0.0,0.0,0.0,0.0,0.0,1.1293,1.2131,1.2151,0.0,1.2214,0.0,0.0,0.0,0.0,0.0,0.0,0.0,0.0,0.0,0.0,0.0,0.0,0.0,0.0,0.0,0.0,0.0,0.0,0.0,0.0,0.0,0.0,0.0,0.0,0.0,0.0,0.0,0.0,0.0,0.0,0.0,0.0,0.0,0.0,0.0,0.0,0.0,0.0,0.0,0.0,0.0,0.0,0.0,0.0,0.0,0.0,0.0,0.0,0.0,0.0,0.0,0.0,0.0,0.0,0.0,0.0,0.0,0.0,0.0,0.0,0.0,0.0,0.0,0.0,0.0,0.0,0.0,0.0,0.0,0.0,0.0,0.0,0.0,0.0,0.0,0.0,0.0,0.0,0.0,0.0,0.0,0.0,0.0,0.0,0.0,0.0,0.0,0.0,0.0,0.0,0.0,0.0,0.0,0.0,0.0,0.0,0.0,0.0,0.0,0.0,0.0,0.0,0.0,0.0,0.0,0.0,0.0,0.0,0.0,0.0,0.0,1.2297,1.2297,1.2297,0.0,0.0,0.0,0.0,0.0,0.0,0.0,0.0,0.0,0.0,0.0,0.0,0.0,0.0,0.0,0.0,0.0,0.0,0.0,0.0,0.0,0.0,0.0,0.0,0.0,0.0,0.0,0.0,0.0,0.0,0.0,0.0,0.0,0.0,0.0,0.0,0.0,0.0,0.0,0.0,0.0,0.0,0.0,0.0,0.0,0.0,0.0,0.0,0.0,0.0,0.0,0.0,0.0,0.0,0.0,0.0,0.0,0.0,0.0,0.0,0.0,0.0,0.0,0.0,0.0,0.0,0.0,0.0,0.0,0.0,0.0,0.0,0.0,0.0,0.0,0.0,0.0,0.0,0.0,0.0,0.0,0.0,0.0,0.0,0.0,0.0,0.0,0.0,0.0,0.0,0.0,0.0,0.0,0.0,0.0,0.0,0.0,0.0,0.0,0.0,0.0,0.0,0.0,0.0,0.0,0.0,0.0,0.0,0.0,0.0,1.2079,0.0,1.2639,1.2659,1.2545,1.2307,0.0,0.0,0.0,0.0,0.0,0.0,0.0,0.0,0.0,0.0,0.0,0.0,0.0,0.0,0.0,0.0,0.0,0.0,0.0,0.0,0.0,0.0,0.0,0.0,0.0,0.0,0.0,0.0,0.0,0.0,0.0,0.0,0.0,0.0,0.0,0.0,0.0,0.0,0.0,0.0,0.0,0.0,0.0,0.0,0.0,0.0,0.0,0.0,0.0,0.0,0.0,0.0,0.0,0.0,0.0,0.0,0.0,0.0,0.0,0.0,0.0,0.0,0.0,0.0,0.0,0.0,0.0,0.0,0.0,0.0,0.0,0.0,0.0,0.0,0.0,0.0,0.0,0.0,0.0,0.0,0.0,0.0,0.0,0.0,0.0,0.0,0.0,0.0,0.0,0.0,0.0,0.0,0.0,0.0,0.0,0.0,0.0,0.0,0.0,0.0,0.0,0.0,0.0,0.0,0.0,0.0,0.0,0.0,0.0,1.268,1.2701,1.3504,1.3524,1.3144,0.0,0.0,0.0,0.0,0.0,0.0,0.0,0.0,0.0,0.0,0.0,0.0,0.0,0.0,0.0,0.0,0.0,0.0,0.0,0.0,0.0,0.0,0.0,0.0,0.0,0.0,0.0,0.0,0.0,0.0,0.0,0.0,0.0,0.0,0.0,0.0,0.0,0.0,0.0,0.0,0.0,0.0,0.0,0.0,0.0,0.0,0.0,0.0,0.0,0.0,0.0,0.0,0.0,0.0,0.0,0.0,0.0,0.0,0.0,0.0,0.0,0.0,0.0,0.0,0.0,0.0,0.0,0.0,0.0,0.0,0.0,0.0,0.0,0.0,0.0,0.0,0.0,0.0,0.0,0.0,0.0,0.0,0.0,0.0,0.0,0.0,0.0,0.0,0.0,0.0,0.0,0.0,0.0,0.0,0.0,0.0,0.0,0.0,0.0,0.0,0.0,0.0,0.0,0.0,0.0,0.0,0.0,0.0,0.0,1.182,1.2141,1.3012,1.4361,1.3382,1.2865,0.0,0.0,0.0,0.0,0.0,0.0,0.0,0.0,0.0,0.0,0.0,0.0,0.0,0.0,0.0,0.0,0.0,0.0,0.0,0.0,0.0,0.0,0.0,0.0,0.0,0.0,0.0,0.0,0.0,0.0,0.0,0.0,0.0,0.0,0.0,0.0,0.0,0.0,0.0,0.0,0.0,0.0,0.0,0.0,0.0,0.0,0.0,0.0,0.0,0.0,0.0,0.0,0.0,0.0,0.0,0.0,0.0,0.0,0.0,0.0,0.0,0.0,0.0,0.0,0.0,0.0,0.0,0.0,0.0,0.0,0.0,0.0,0.0,0.0,0.0,0.0,0.0,0.0,0.0,0.0,0.0,0.0,0.0,0.0,0.0,0.0,0.0,0.0,0.0,0.0,0.0,0.0,0.0,0.0,0.0,0.0,0.0,0.0,0.0,0.0,0.0,0.0,0.0,0.0,0.0,0.0,0.0,0.0,0.0,1.1572,0.0,1.361,0.0,1.3351,1.272,0.0,0.0,0.0,0.0,0.0,0.0,0.0,0.0,0.0,0.0,0.0,0.0,0.0,0.0,0.0,0.0,0.0,0.0,0.0,0.0,0.0,0.0,0.0,0.0,0.0,0.0,0.0,0.0,0.0,0.0,0.0,0.0,0.0,0.0,0.0,0.0,0.0,0.0,0.0,0.0,0.0,0.0,0.0,0.0,0.0,0.0,0.0,0.0,0.0,0.0,0.0,0.0,0.0,0.0,0.0,0.0,0.0,0.0,0.0,0.0,0.0,0.0,0.0,0.0,0.0,0.0,0.0,0.0,0.0,0.0,0.0,0.0,0.0,0.0,0.0,0.0,0.0,0.0,0.0,0.0,0.0,0.0,0.0,0.0,0.0,0.0,0.0,0.0,0.0,0.0,0.0,0.0,0.0,0.0,0.0,0.0,0.0,0.0,0.0,0.0,0.0,0.0,0.0,0.0,0.0,0.0,0.0,0.0,0.0,1.2908,1.4226,1.448,1.3659,1.3576,1.275,0.0,0.0,0.0,0.0,0.0,0.0,0.0,0.0,0.0,0.0,0.0,0.0,0.0,0.0,0.0,0.0,0.0,0.0,0.0,0.0,0.0,0.0,0.0,0.0,0.0,0.0,0.0,0.0,0.0,0.0,0.0,0.0,0.0,0.0,0.0,0.0,0.0,0.0,0.0,0.0,0.0,0.0,0.0,0.0,0.0,0.0,0.0,0.0,0.0,0.0,0.0,0.0,0.0,0.0,0.0,0.0,0.0,0.0,0.0,0.0,0.0,0.0,0.0,0.0,0.0,0.0,0.0,0.0,0.0,0.0,0.0,0.0,0.0,0.0,0.0,0.0,0.0,0.0,0.0,0.0,0.0,0.0,0.0,0.0,0.0,0.0,0.0,0.0,0.0,0.0,0.0,0.0,0.0,0.0,0.0,0.0,0.0,0.0,0.0,0.0,0.0,0.0,0.0,0.0,0.0,0.0,0.0,0.0,0.0,1.2449,1.3494,1.4221,1.4521,1.3617,1.3008,0.0,0.0,0.0,0.0,0.0,0.0,0.0,0.0,0.0,0.0,0.0,0.0,0.0,0.0,0.0,0.0,0.0,0.0,0.0,0.0,0.0,0.0,0.0,0.0,0.0,0.0,0.0,0.0,0.0,0.0,0.0,0.0,0.0,0.0,0.0,0.0,0.0,0.0,0.0,0.0,0.0,0.0,0.0,0.0,0.0,0.0,0.0,0.0,0.0,0.0,0.0,0.0,0.0,0.0,0.0,0.0,0.0,0.0,0.0,0.0,0.0,0.0,0.0,0.0,0.0,0.0,0.0,0.0,0.0,0.0,0.0,0.0,0.0,0.0,0.0,0.0,0.0,0.0,0.0,0.0,0.0,0.0,0.0,0.0,0.0,0.0,0.0,0.0,0.0,0.0,0.0,0.0,0.0,0.0,0.0,0.0,0.0,0.0,0.0,0.0,0.0,0.0,0.0,0.0,0.0,0.0,0.0,0.0,0.0,1.2905,1.3949,1.4629,1.4861,1.4082,1.3566,1.3318,0.0,0.0,0.0,0.0,0.0,0.0,0.0,0.0,0.0,0.0,0.0,0.0,0.0,0.0,0.0,0.0,0.0,0.0,0.0,0.0,0.0,0.0,0.0,0.0,0.0,0.0,0.0,0.0,0.0,0.0,0.0,0.0,0.0,0.0,0.0,0.0,0.0,0.0,0.0,0.0,0.0,0.0,0.0,0.0,0.0,0.0,0.0,0.0,0.0,0.0,0.0,0.0,0.0,0.0,0.0,0.0,0.0,0.0,0.0,0.0,0.0,0.0,0.0,0.0,0.0,0.0,0.0,0.0,0.0,0.0,0.0,0.0,0.0,0.0,0.0,0.0,0.0,0.0,0.0,0.0,0.0,0.0,0.0,0.0,0.0,0.0,0.0,0.0,0.0,0.0,0.0,0.0,0.0,0.0,0.0,0.0,0.0,0.0,0.0,0.0,0.0,0.0,0.0,0.0,0.0,0.0,0.0,0.0,1.3992,1.5424,1.5722,1.4781,1.4918,1.4388,0.0,0.0,0.0,0.0,0.0,0.0,0.0,0.0,0.0,0.0,0.0,0.0,0.0,0.0,0.0,0.0,0.0,0.0,0.0,0.0,0.0,0.0,0.0,0.0,0.0,0.0,0.0,0.0,0.0,0.0,0.0,0.0,0.0,0.0,0.0,0.0,0.0,0.0,0.0,0.0,0.0,0.0,0.0,0.0,0.0,0.0,0.0,0.0,0.0,0.0,0.0,0.0,0.0,0.0,0.0,0.0,0.0,0.0,0.0,0.0,0.0,0.0,0.0,0.0,0.0,0.0,0.0,0.0,0.0,0.0,0.0,0.0,0.0,0.0,0.0,0.0,0.0,0.0,0.0,0.0,0.0,0.0,0.0,0.0,0.0,0.0,0.0,0.0,0.0,0.0,0.0,0.0,0.0,0.0,0.0,0.0,0.0,0.0,0.0,0.0,0.0,0.0,0.0,0.0,0.0,0.0,0.0,0.0,0.0,1.4111,1.6081,1.6769,1.6006,1.5732,1.5064,0.0,0.0,0.0,0.0,0.0,0.0,0.0,0.0,0.0,0.0,0.0,0.0,0.0,0.0,0.0,0.0,0.0,0.0,0.0,0.0,0.0,0.0,0.0,0.0,0.0,0.0,0.0,0.0,0.0,0.0,0.0,0.0,0.0,0.0,0.0,0.0,0.0,0.0,0.0,0.0,0.0,0.0,0.0,0.0,0.0,0.0,0.0,0.0,0.0,0.0,0.0,0.0,0.0,0.0,0.0,0.0,0.0,0.0,0.0,0.0,0.0,0.0,0.0,0.0,0.0,0.0,0.0,0.0,0.0,0.0,0.0,0.0,0.0,0.0,0.0,0.0,0.0,0.0,0.0,0.0,0.0,0.0,0.0,0.0,0.0,0.0,0.0,0.0,0.0,0.0,0.0,0.0,0.0,0.0,0.0,0.0,0.0,0.0,0.0,0.0,0.0,0.0,0.0,0.0,0.0,0.0,0.0,0.0,1.3719,1.4546,1.6147,1.6826,1.6542,1.6963,1.6457,0.0,0.0,0.0,0.0,0.0,0.0,0.0,0.0,0.0,0.0,0.0,0.0,0.0,0.0,0.0,0.0,0.0,0.0,0.0,0.0,0.0,0.0,0.0,0.0,0.0,0.0,0.0,0.0,0.0,0.0,0.0,0.0,0.0,0.0,0.0,0.0,0.0,0.0,0.0,0.0,0.0,0.0,0.0,0.0,0.0,0.0,0.0,0.0,0.0,0.0,0.0,0.0,0.0,0.0,0.0,0.0,0.0,0.0,0.0,0.0,0.0,0.0,0.0,0.0,0.0,0.0,0.0,0.0,0.0,0.0,0.0,0.0,0.0,0.0,0.0,0.0,0.0,0.0,0.0,0.0,0.0,0.0,0.0,0.0,0.0,0.0,0.0,0.0,0.0,0.0,0.0,0.0,0.0,0.0,0.0,0.0,0.0,0.0,0.0,0.0,0.0,0.0,0.0,0.0,0.0,0.0,0.0,0.0,1.4212,1.5268,1.6037,1.6488,1.675,1.8145,1.7902,0.0,0.0,0.0,0.0,0.0,0.0,0.0,0.0,0.0,0.0,0.0,0.0,0.0,0.0,0.0,0.0,0.0,0.0,0.0,0.0,0.0,0.0,0.0,0.0,0.0,0.0,0.0,0.0,0.0,0.0,0.0,0.0,0.0,0.0,0.0,0.0,0.0,0.0,0.0,0.0,0.0,0.0,0.0,0.0,0.0,0.0,0.0,0.0,0.0,0.0,0.0,0.0,0.0,0.0,0.0,0.0,0.0,0.0,0.0,0.0,0.0,0.0,0.0,0.0,0.0,0.0,0.0,0.0,0.0,0.0,0.0,0.0,0.0,0.0,0.0,0.0,0.0,0.0,0.0,0.0,0.0,0.0,0.0,0.0,0.0,0.0,0.0,0.0,0.0,0.0,0.0,0.0,0.0,0.0,0.0,0.0,0.0,0.0,0.0,0.0,0.0,0.0,0.0,0.0,0.0,0.0,0.0,0.0,1.4927,1.596,1.706,1.7603,1.755,1.7594,1.7005,0.0,0.0,0.0,0.0,0.0,0.0,0.0,0.0,0.0,0.0,0.0,0.0,0.0,0.0,0.0,0.0,0.0,0.0,0.0,0.0,0.0,0.0,0.0,0.0,0.0,0.0,0.0,0.0,0.0,0.0,0.0,0.0,0.0,0.0,0.0,0.0,0.0,0.0,0.0,0.0,0.0,0.0,0.0,0.0,0.0,0.0,0.0,0.0,1.4873,0.0,0.0,0.0,0.0,0.0,0.0,0.0,0.0,0.0,0.0,0.0,0.0,0.0,0.0,0.0,0.0,0.0,0.0,0.0,0.0,0.0,0.0,0.0,0.0,0.0,0.0,0.0,0.0,0.0,0.0,0.0,0.0,0.0,0.0,0.0,0.0,0.0,0.0,0.0,0.0,0.0,0.0,0.0,0.0,0.0,0.0,0.0,0.0,0.0,0.0,0.0,0.0,0.0,0.0,0.0,0.0,0.0,0.0,0.0,1.5554,1.642,1.7237,1.7639,1.7557,1.7214,1.6755,0.0,0.0,0.0,0.0,0.0,0.0,0.0,0.0,0.0,0.0,0.0,0.0,0.0,0.0,0.0,0.0,0.0,0.0,0.0,0.0,0.0,0.0,0.0,0.0,0.0,0.0,0.0,0.0,0.0,0.0,0.0,0.0,0.0,0.0,0.0,0.0,0.0,0.0,0.0,0.0,0.0,0.0,0.0,0.0,0.0,0.0,0.0,0.0,0.0,0.0,0.0,0.0,0.0,0.0,0.0,0.0,0.0,0.0,0.0,0.0,0.0,0.0,0.0,0.0,0.0,0.0,0.0,0.0,0.0,0.0,0.0,0.0,0.0,0.0,0.0,0.0,0.0,0.0,0.0,0.0,0.0,0.0,0.0,0.0,0.0,0.0,0.0,0.0,0.0,0.0,0.0,0.0,0.0,0.0,0.0,0.0,0.0,0.0,0.0,0.0,0.0,0.0,0.0,0.0,0.0,0.0,0.0,1.4927,1.6095,1.6895,1.727,1.7491,1.7554,1.7113,1.6829,1.6696,0.0,0.0,0.0,0.0,0.0,0.0,0.0,0.0,0.0,0.0,0.0,0.0,0.0,0.0,0.0,0.0,0.0,0.0,0.0,0.0,0.0,0.0,0.0,0.0,0.0,0.0,0.0,0.0,0.0,0.0,0.0,0.0,0.0,0.0,0.0,0.0,0.0,0.0,1.2322,1.4953,0.0,0.0,0.0,0.0,0.0,0.0,0.0,0.0,1.6634,0.0,0.0,0.0,0.0,0.0,0.0,0.0,0.0,0.0,0.0,0.0,0.0,0.0,0.0,0.0,0.0,0.0,0.0,0.0,0.0,0.0,0.0,0.0,0.0,0.0,0.0,0.0,0.0,0.0,0.0,0.0,0.0,0.0,0.0,0.0,0.0,0.0,0.0,0.0,0.0,0.0,0.0,0.0,0.0,0.0,0.0,0.0,0.0,0.0,0.0,0.0,0.0,0.0,0.0,0.0,0.0,1.4967,1.5462,1.6444,1.7993,1.8097,1.8337,1.8751,1.7785,1.7333,1.7514,0.0,0.0,0.0,0.0,0.0,0.0,0.0,0.0,0.0,0.0,0.0,0.0,0.0,0.0,0.0,0.0,0.0,0.0,0.0,0.0,0.0,0.0,0.0,0.0,0.0,0.0,0.0,0.0,0.0,0.0,0.0,0.0,0.0,0.0,0.0,0.0,0.0,0.0,0.0,1.6578,1.8024,0.0,0.0,0.0,0.0,0.0,0.0,0.0,0.0,1.5783,0.0,0.0,0.0,0.0,0.0,0.0,0.0,0.0,0.0,0.0,0.0,0.0,0.0,0.0,0.0,0.0,0.0,0.0,0.0,0.0,0.0,0.0,0.0,0.0,0.0,0.0,0.0,0.0,0.0,0.0,0.0,0.0,0.0,0.0,0.0,0.0,0.0,0.0,0.0,0.0,0.0,0.0,0.0,0.0,0.0,0.0,0.0,0.0,0.0,0.0,0.0,0.0,0.0,0.0,0.0,1.5076,1.6229,1.7488,1.8796,1.8669,1.8587,1.8641,1.7543,1.6994,0.0,0.0,0.0,0.0,0.0,0.0,0.0,0.0,0.0,0.0,0.0,0.0,0.0,0.0,0.0,0.0,0.0,0.0,0.0,0.0,0.0,0.0,0.0,0.0,0.0,0.0,0.0,0.0,0.0,0.0,0.0,0.0,0.0,0.0,0.0,0.0,0.0,0.0,0.0,0.0,1.711,1.8289,1.8613,0.0,0.0,0.0,0.0,0.0,0.0,1.7612,1.6764,0.0,0.0,0.0,0.0,0.0,0.0,0.0,0.0,0.0,0.0,0.0,0.0,0.0,0.0,0.0,0.0,0.0,0.0,0.0,0.0,0.0,0.0,0.0,0.0,0.0,0.0,0.0,0.0,0.0,0.0,0.0,0.0,0.0,0.0,0.0,0.0,0.0,0.0,0.0,0.0,0.0,0.0,0.0,0.0,0.0,0.0,0.0,0.0,0.0,0.0,0.0,0.0,0.0,0.0,0.0,1.4976,1.6775,1.8228,1.9193,1.905,1.8792,1.8451,1.7407,1.6782,0.0,0.0,0.0,0.0,0.0,0.0,0.0,0.0,0.0,0.0,0.0,0.0,0.0,0.0,0.0,0.0,0.0,0.0,0.0,0.0,0.0,0.0,0.0,0.0,0.0,0.0,0.0,0.0,0.0,0.0,0.0,0.0,0.0,0.0,0.0,0.0,0.0,0.0,0.0,0.0,0.0,1.8498,1.9294,1.8819,0.0,0.0,0.0,0.0,1.8924,1.8525,0.0,0.0,0.0,0.0,0.0,0.0,0.0,0.0,0.0,0.0,0.0,0.0,0.0,0.0,0.0,0.0,0.0,0.0,0.0,0.0,0.0,0.0,0.0,0.0,0.0,0.0,0.0,0.0,0.0,0.0,0.0,0.0,0.0,0.0,0.0,0.0,0.0,0.0,0.0,0.0,0.0,0.0,0.0,0.0,0.0,0.0,0.0,0.0,0.0,0.0,0.0,0.0,0.0,0.0,0.0,0.0,1.5134,1.6598,1.7834,1.8843,1.9169,1.925,1.8988,1.8134,1.7431,0.0,0.0,0.0,0.0,0.0,0.0,0.0,0.0,0.0,0.0,0.0,0.0,0.0,0.0,0.0,0.0,0.0,0.0,0.0,0.0,0.0,0.0,0.0,0.0,0.0,0.0,0.0,0.0,0.0,0.0,0.0,0.0,0.0,0.0,0.0,0.0,0.0,0.0,0.0,0.0,0.0,1.9158,1.8031,1.8188,1.8367,0.0,0.0,1.8505,1.9169,1.905,0.0,0.0,0.0,0.0,0.0,0.0,0.0,0.0,0.0,0.0,0.0,0.0,0.0,0.0,0.0,0.0,0.0,0.0,0.0,0.0,0.0,0.0,0.0,0.0,0.0,0.0,0.0,0.0,0.0,0.0,0.0,0.0,0.0,0.0,0.0,0.0,0.0,0.0,0.0,0.0,0.0,0.0,0.0,0.0,0.0,0.0,0.0,0.0,0.0,0.0,0.0,0.0,0.0,0.0,0.0,1.3627,1.5474,1.7054,1.8359,1.9368,1.9391,1.9148,1.8655,1.8264,1.7386,0.0,0.0,0.0,0.0,0.0,0.0,0.0,0.0,0.0,0.0,0.0,0.0,0.0,0.0,0.0,0.0,0.0,0.0,0.0,0.0,0.0,0.0,0.0,0.0,0.0,0.0,0.0,0.0,0.0,0.0,0.0,0.0,0.0,0.0,0.0,0.0,0.0,0.0,0.0,0.0,0.0,0.0,1.8531,1.8846,0.0,0.0,0.0,1.9284,1.9862,0.0,0.0,0.0,0.0,0.0,0.0,0.0,0.0,0.0,0.0,0.0,0.0,0.0,0.0,0.0,0.0,0.0,0.0,0.0,0.0,0.0,0.0,0.0,0.0,0.0,0.0,0.0,0.0,0.0,0.0,0.0,0.0,0.0,0.0,0.0,0.0,0.0,0.0,0.0,0.0,0.0,0.0,0.0,0.0,0.0,0.0,0.0,0.0,0.0,0.0,0.0,0.0,0.0,0.0,0.0,0.0,0.0,1.555,1.7282,1.8629,1.9558,1.9368,1.8937,1.8221,1.7985,0.0,0.0,0.0,0.0,0.0,0.0,0.0,0.0,0.0,0.0,0.0,0.0,0.0,0.0,0.0,0.0,0.0,0.0,0.0,0.0,0.0,0.0,0.0,0.0,0.0,0.0,0.0,0.6815,0.0,0.0,0.0,0.0,0.0,0.0,0.0,0.0,0.0,0.0,0.0,0.0,0.0,0.0,1.8206,1.8768,1.9337,1.9856,0.0,0.0,1.9939,2.0224,2.0221,1.9472,0.0,0.0,0.0,0.0,0.0,0.0,0.0,0.0,0.0,0.0,0.0,0.0,0.0,0.0,0.0,0.0,0.0,0.0,0.0,0.0,0.0,0.0,0.0,0.0,0.0,0.0,0.0,0.0,0.0,0.0,0.0,0.0,0.0,0.0,0.0,0.0,0.0,0.0,0.0,0.0,0.0,0.0,0.0,0.0,0.0,0.0,0.0,0.0,0.0,0.0,0.0,0.0,0.0,0.0,0.0,1.5219,1.6936,1.8168,1.8867,1.8829,1.8526,1.7862,1.7171,1.6149,0.0,0.0,0.0,0.0,0.0,0.0,0.0,0.0,0.0,0.0,0.0,0.0,0.0,0.0,0.0,0.0,0.0,0.0,0.0,0.0,0.0,0.0,0.0,0.0,0.0,0.0,0.0,0.0,0.0,0.0,0.0,0.0,0.0,0.0,0.0,0.0,0.0,0.0,0.0,0.0,0.0,1.7749,1.7783,1.9084,2.0075,0.0,0.0,2.0362,1.9908,2.0168,1.9603,1.7376,0.0,0.0,0.0,0.0,0.0,0.0,0.0,0.0,0.0,0.0,0.0,0.0,0.0,0.0,0.0,0.0,0.0,0.0,0.0,0.0,0.0,0.0,0.0,0.0,0.0,0.0,0.0,0.0,0.0,0.0,0.0,0.0,0.0,0.0,0.0,0.0,0.0,0.0,0.0,0.0,0.0,0.0,0.0,0.0,0.0,0.0,0.0,0.0,0.0,0.0,0.0,0.0,0.0,1.3737,1.5196,1.6778,1.7995,1.875,1.8781,1.8494,1.783,1.7547,1.6389,0.0,0.0,0.0,0.0,0.0,0.0,0.0,0.0,0.0,0.0,0.0,0.0,0.0,0.0,0.0,0.0,0.0,0.0,0.0,0.0,0.0,0.0,0.0,0.0,0.0,0.0,0.0,0.0,0.8741,0.8831,0.8556,0.0,0.0,0.0,0.0,0.0,0.0,0.0,0.0,0.0,0.0,1.8289,1.8534,1.9559,0.0,0.0,2.0712,2.0772,2.0774,2.0645,1.9946,1.825,1.7677,0.0,0.0,0.0,0.0,0.0,0.0,0.0,0.0,0.0,0.0,0.0,0.0,0.0,0.0,0.0,0.0,0.0,0.0,0.0,0.0,0.0,0.0,0.0,0.0,0.0,0.0,0.0,0.0,0.0,0.0,0.0,0.0,0.0,0.0,0.0,0.0,0.0,0.0,0.0,0.0,0.0,0.0,0.0,0.0,0.0,0.0,0.0,0.0,0.0,0.0,0.0,0.0,1.3709,1.5196,1.6786,1.7995,1.8765,1.8781,1.8541,1.799,1.7752,1.6702,0.0,0.0,0.0,0.0,0.0,0.0,0.0,0.0,0.0,0.0,0.0,0.0,0.0,0.0,0.0,0.0,0.0,0.0,0.0,0.0,0.0,0.0,0.0,0.0,0.0,0.0,0.0,0.0,0.9547,0.934,0.8875,0.0,0.0,0.0,0.0,0.0,0.0,0.0,0.0,0.0,0.0,1.8558,1.9121,1.991,2.0537,2.0773,2.0756,2.0756,2.0837,2.0535,1.9826,1.8432,0.0,0.0,0.0,0.0,0.0,0.0,0.0,0.0,0.0,0.0,0.0,0.0,0.0,0.0,0.0,0.0,0.0,0.0,0.0,0.0,0.0,0.0,0.0,0.0,0.0,0.0,0.0,0.0,0.0,0.0,0.9643,0.0,0.0,0.0,0.0,0.0,0.0,0.0,0.0,0.0,0.0,0.0,0.0,0.0,0.0,0.0,0.0,0.0,0.0,0.0,0.0,0.0,0.0,0.0,1.5196,1.6896,1.8112,1.8758,1.8781,1.8653,1.8279,1.7663,1.6787,1.5664,0.0,0.0,0.0,0.0,0.0,0.0,0.0,0.0,0.0,0.0,0.0,0.0,0.0,0.0,0.0,0.0,0.0,0.0,0.0,0.0,0.0,0.0,0.0,0.0,0.0,0.0,1.0527,0.9815,0.9117,0.0,0.0,0.0,0.0,0.0,0.0,0.0,0.0,0.0,0.0,1.7376,1.8359,1.9266,2.0088,2.0602,2.0613,2.0512,2.0235,1.9787,1.9672,1.9103,0.0,0.0,0.0,0.0,0.0,0.0,0.0,0.0,0.0,0.0,0.0,0.0,0.0,0.0,0.0,0.0,0.0,0.0,0.0,0.0,0.0,0.0,0.0,0.0,0.0,0.0,0.0,1.1889,1.1406,0.0,0.0,0.0,0.0,0.0,0.0,0.0,0.0,0.0,0.0,0.0,1.3836,1.4105,0.0,0.0,0.0,0.0,0.0,0.0,0.0,0.0,0.0,0.0,0.0,0.0,1.3699,1.4956,1.6519,1.7765,1.8589,1.8743,1.8661,1.8303,1.7636,1.6444,1.4689,0.0,0.0,0.0,0.0,0.0,0.0,0.0,0.0,0.0,0.0,0.0,0.0,0.0,0.0,0.0,0.0,0.0,0.0,0.0,0.0,0.0,0.0,0.0,0.0,0.0,1.0256,0.0,0.0,0.0,0.0,0.0,0.0,0.0,0.0,0.0,0.0,0.0,1.623,1.7355,1.8338,1.9147,1.978,2.0095,2.0367,0.0,0.0,0.0,0.0,0.0,0.0,0.0,0.0,0.0,0.0,0.0,0.0,0.0,0.0,2.0001,1.7406,1.6781,1.6705,1.6956,0.0,0.0,0.0,0.0,0.0,0.0,0.0,0.0,0.0,0.0,0.0,0.0,0.0,0.0,0.0,0.0,1.2643,0.0,0.0,0.0,0.0,0.0,0.0,0.0,0.0,1.4326,1.494,1.5186,1.5452,1.5438,0.0,1.4731,1.3777,0.0,0.0,0.0,0.0,0.0,0.0,0.0,0.0,1.3926,1.5289,1.6664,1.7799,1.8581,1.8735,1.867,1.8478,1.7699,1.6397,1.4546,1.3711,1.3051,0.0,0.0,0.0,0.0,0.0,0.0,0.0,0.0,0.0,0.0,0.0,0.0,0.0,0.0,0.0,0.0,0.0,0.0,0.0,0.0,0.0,0.0,0.0,1.0695,0.0,0.0,0.0,0.0,0.0,0.0,0.0,0.0,0.0,1.5026,1.6088,1.7202,1.8348,1.9026,1.9594,2.0042,0.0,0.0,0.0,0.0,0.0,0.0,0.0,2.0036,1.9974,1.968,1.9396,1.9306,2.0193,2.0979,2.1235,0.0,0.0,1.9534,1.8982,1.9044,1.9674,2.0234,2.0707,2.0887,2.1196,2.1562,0.0,0.0,0.0,0.0,0.0,0.0,0.0,0.0,1.4291,1.4275,0.0,1.3879,0.0,0.0,0.0,0.0,0.0,1.3755,0.0,0.0,1.6418,1.6996,1.6521,1.6793,1.6785,1.6485,1.6441,1.5906,1.4893,1.3076,0.0,0.0,0.0,0.0,0.0,0.0,1.46,1.6147,1.7283,1.8153,1.8719,1.8773,1.8765,1.8702,1.7819,1.6684,1.533,1.4839,1.3828,1.2202,1.2027,0.0,0.0,0.0,0.0,0.0,0.0,0.0,0.0,0.0,0.0,0.0,0.0,0.0,0.0,0.0,0.0,0.0,0.0,0.0,0.0,1.1628,0.0,0.0,0.0,0.0,0.0,0.0,0.0,0.0,0.0,0.0,1.6629,1.7043,1.7857,1.9222,0.0,0.0,0.0,0.0,2.0325,2.085,2.0489,2.0358,2.085,2.0894,2.0719,2.0238,0.0,0.0,2.0858,2.1602,2.2082,2.1578,2.1632,2.1952,2.319,2.2647,2.24,2.2906,2.2598,2.2563,2.303,2.2989,2.311,1.6784,0.0,0.0,0.0,0.0,1.5452,1.5935,1.6835,1.6513,1.6162,1.5854,1.567,0.0,0.0,0.0,0.0,0.0,0.0,1.5518,1.6235,1.6974,1.7472,1.775,1.7845,1.7838,1.7743,1.7508,1.7143,1.6571,1.5621,1.4099,1.2153,0.0,0.0,0.0,0.0,1.5054,1.5972,1.6891,1.7705,1.8311,1.8512,1.8415,1.8089,1.7795,1.7096,1.596,1.5348,1.4681,1.3876,1.2663,0.0,0.0,0.0,0.0,0.0,0.0,0.0,0.0,0.0,0.0,0.0,0.0,0.0,0.0,0.0,0.0,0.0,0.0,0.0,1.0294,1.1314,1.1762,0.0,0.0,0.0,0.0,0.0,0.0,0.0,0.0,0.0,1.8812,1.8579,1.8518,0.0,0.0,2.0035,2.0598,2.0948,2.1232,2.1363,0.0,0.0,0.0,2.1124,2.0971,2.1134,2.155,2.1846,2.1732,2.2701,2.3441,2.3287,2.3774,2.4309,2.4521,2.2979,2.187,2.2127,2.2433,2.2629,2.2823,2.3178,2.3493,1.8803,1.7545,1.6542,1.6477,1.6916,1.6748,1.7179,1.7984,1.7662,1.7443,1.7358,1.7055,1.644,1.5577,1.5204,0.0,0.0,0.0,1.6565,1.7252,1.7706,1.8116,1.8489,1.8628,1.8621,1.8482,1.8299,1.8035,1.7665,1.7194,1.603,1.4282,0.0,0.0,1.3674,1.4732,1.5727,1.6579,1.7244,1.7842,1.8357,1.8512,1.8366,1.7803,1.7806,1.7278,1.6246,1.5817,1.5292,1.4621,1.3599,1.2616,0.0,0.0,0.0,0.0,0.0,0.0,0.0,0.0,0.0,0.0,0.0,0.9208,0.0,0.0,0.0,0.0,0.9985,1.0786,1.1781,1.2474,0.0,0.0,0.0,0.0,0.0,0.0,0.0,1.673,1.7395,1.8367,2.0172,1.9873,1.9666,2.0216,2.047,2.0855,2.1372,0.0,2.2007,2.2379,2.228,2.2215,2.239,2.2029,2.1846,2.2095,2.2459,2.2672,2.2719,2.3488,2.4096,2.4319,2.4589,2.4896,2.5228,2.3616,2.2632,2.3611,2.3611,2.3547,2.3935,2.3975,2.3872,2.0489,2.0066,1.8264,1.7687,1.7999,1.8006,1.8182,1.8423,1.8116,1.8291,1.8767,1.8167,1.7665,1.7308,1.6499,0.0,1.6631,1.7172,1.7618,1.7955,1.8547,1.8825,1.884,1.9133,1.9118,1.8825,1.8833,1.8672,1.8379,1.805,1.7589,1.7035,1.5804,1.5279,1.5548,1.5891,1.658,1.7644,1.7964,1.8342,1.8783,1.8797,1.8494,1.783,1.7806,1.7294,1.6309,1.619,1.5713,1.4748,1.4613,1.3805,1.2164,0.0,0.0,0.0,0.0,0.0,0.0,0.0,0.0,0.0,0.0,0.0,0.0,0.0,0.0,0.0,1.2639,0.0,1.4487,1.4415,0.0,0.0,0.0,1.35,1.476,1.5536,1.6594,1.815,0.0,0.0,2.0938,0.0,2.1129,2.1686,2.1688,2.1808,2.2233,2.2342,2.2739,2.3422,2.3274,2.3143,2.3394,2.3209,2.2979,2.3012,2.3386,2.3642,2.3679,2.3985,2.4411,2.4725,2.446,2.4437,2.5266,2.4662,2.4685,2.6549,2.5607,2.4755,2.5464,2.5027,2.4437,2.0621,2.0545,1.9789,1.9541,1.9606,1.9606,1.965,1.974,1.9433,1.925,1.9133,1.8738,1.8379,1.8057,1.7838,1.7911,1.8225,1.8372,1.8621,1.8928,1.9089,1.9162,1.9162,1.9235,1.9235,1.9162,1.9162,1.9118,1.903,1.8716,1.8482,1.8306,1.7779,1.7172,1.6565,1.7077,1.76,1.8148,1.823,1.839,1.8658,1.8738,1.8486,1.783,1.7806,1.7405,1.6635,1.6087,1.569,1.5427,1.4673,1.3781,1.2877,1.1829,0.0,0.0,0.0,0.0,0.0,0.0,0.0,0.0,0.0,1.0757,0.9299,0.0,1.2085,0.0,1.3563,1.4276,1.4026,1.4559,0.0,0.0,1.5365,1.5801,1.7986,1.7892,1.8291,2.0019,2.0511,2.1013,2.1865,2.1955,2.2277,2.3062,2.2547,2.2098,2.2281,2.2957,2.3302,2.322,2.311,2.3034,2.3187,2.3405,2.3509,2.352,2.3941,2.4293,2.4282,2.457,2.4856,2.497,2.5422,2.58,2.6007,2.6089,2.6457,2.7185,2.591,2.4575,2.482,2.4985,2.5197,2.1372,2.135,2.102,2.0889,2.0859,2.0373,2.0183,2.0168,2.0055,1.9872,1.9681,1.9367,1.9118,1.895,1.8803,1.8833,1.9008,1.9008,1.9103,1.9272,1.9272,1.9272,1.9272,1.9272,1.9272,1.9272,1.9272,1.9272,1.9264,1.914,1.9008,1.9008,1.8818,1.8467,1.8011,1.8006,1.8172,1.8461,1.8602,1.8683,1.8733,1.8824,1.8508,1.7854,1.7806,1.7366,1.6491,1.6118,1.5697,1.5229,1.4665,1.4029,1.3338,1.2464,1.1638,0.0,0.0,0.0,0.0,0.0,0.0,0.0,0.0,0.0,0.0,0.0,1.2447,0.0,1.3861,1.4673,1.4277,1.513,1.5996,1.6698,1.6882,1.7632,1.9445,1.9509,1.9937,2.135,2.1516,2.1789,2.251,2.2619,2.2805,2.334,2.3096,2.2977,2.3231,2.3542,2.3662,2.3656,2.3471,2.3291,2.3329,2.3547,2.3771,2.4039,2.4312,2.4526,2.4526,2.4662,2.4837,2.501,2.5399,2.5877,2.6267,2.6485,2.6783,2.7117,2.6649,2.5901,2.5629,2.5603,2.5756,2.2184,2.2154,2.1876,2.1759,2.1686,2.0794,2.0398,2.0307,2.0318,2.0219,2.0161,1.9945,1.9828,1.9806,1.958,1.9403,1.9396,1.9412,1.939,1.9338,1.9346,1.9272,1.9272,1.9272,1.9272,1.9272,1.9272,1.9272,1.9272,1.9272,1.9272,1.9272,1.9272,1.9272,1.925,1.8708,1.853,1.8793,1.8988,1.9043,1.8883,1.8876,1.8504,1.7791,1.7731,1.7231,1.6261,1.6166,1.5697,1.4748,1.4676,1.4351,1.3688,1.3076,1.2543,0.0,1.1487,0.0,0.0,0.0,0.0,0.0,0.0,0.0,0.0,1.2633,1.2808,1.2494,1.4219,1.5296,1.5204,1.6232,1.7064,1.7457,1.8298,1.9216,2.0059,2.0694,2.1396,2.2302,2.24,2.2528,2.2925,2.3001,2.3012,2.3154,2.3335,2.3662,2.4192,2.3962,2.3804,2.4279,2.3929,2.3476,2.352,2.3618,2.3897,2.4355,2.4563,2.4596,2.4727,2.4716,2.4792,2.5087,2.5228,2.5537,2.6303,2.6461,2.6694,2.716,2.7457,2.7507,2.7054,2.6685,2.6362,2.2184,2.2176,2.2125,2.2089,2.2052,2.1613,2.1269,2.1006,2.0742,2.0479,2.0176,2.0172,2.0095,2.0081,2.0084,2.0,2.004,1.9784,1.9727,1.972,1.9456,1.9272,1.9272,1.9272,1.9272,1.9272,1.9272,1.9272,1.9272,1.9272,1.9272,1.9272,1.9272,1.9272,1.9272,0.0,0.0,0.0,1.9181,1.9032,1.8773,1.8856,1.8465,1.7512,1.7431,0.0,1.6246,1.5928,1.5601,1.5118,1.5086,0.0,0.0,0.0,0.0,0.0,0.0,0.0,0.0,0.0,0.0,0.0,1.3428,1.3467,1.3275,1.4515,1.5232,1.4985,1.6364,1.7259,1.7268,1.8422,1.925,1.9452,1.9927,2.0656,2.1503,2.1711,2.2056,2.2757,2.287,2.2903,2.2968,2.3001,2.3154,2.3411,2.3329,2.3351,2.3771,2.3738,2.3613,2.3351,2.3241,2.3154,2.3132,2.3493,2.3908,2.4377,2.4854,2.5193,2.5469,2.559,2.5622,2.5703,2.6024,2.6237,2.6442,2.7048,2.7512,2.7705,2.8036,2.8162,2.7664,2.7823,2.8157,2.2637,0.0,2.2469,2.2396,0.0,2.2067,2.1847,2.1657,2.1174,2.0867,2.0706,2.0552,2.0424,2.0409,2.0256,2.0183,2.0176,2.0069,1.9996,1.9981,1.9659,1.952,1.9558,1.9404,1.9272,1.9272,1.9272,1.9272,1.9272,1.9272,1.9272,1.9272,1.9272,1.9272,1.9272,1.9272,1.9272,1.9272,1.9258,1.9124,1.8947,1.8961,1.8666,1.793,0.0,0.0,0.0,0.0,0.0,0.0,0.0,0.0,0.0,0.0,0.0,1.4135,1.3926,1.3751,1.36,1.3785,1.4005,1.4347,1.4697,1.4648,1.4106,1.5017,1.5556,1.5424,1.6235,1.6765,1.6783,1.7523,1.8138,1.8452,1.9088,1.9904,2.094,2.1489,2.2004,2.2713,2.2938,2.3001,2.3001,2.3001,2.3088,2.3318,2.3176,2.3088,2.3307,2.3372,2.3263,2.3034,2.3001,2.3099,2.3329,2.3498,2.3858,2.441,2.4909,2.5281,2.5543,2.5742,2.5895,2.5937,2.6063,2.6207,2.626,2.6757,2.729,2.7534,2.7909,2.8211,2.8083,2.833,2.859,2.3106,2.3084,2.282,2.271,2.2681,2.2389,2.2228,2.214,0.0,0.0,0.0,2.0925,2.0808,2.0786,2.053,2.0351,2.0351,2.0292,2.0263,2.0311,1.9938,1.9815,1.9801,1.9425,1.9272,1.9272,1.9272,1.9272,1.9272,1.9272,1.9272,1.9272,1.9272,1.9272,1.9272,1.9272,1.9272,1.9272,1.9272,1.9214,1.9136,1.9121,1.8822,1.8334,1.8011,1.7469,1.6808,1.6547,1.5944,1.4946,1.4938,1.4914,1.4795,1.4787,1.5041,1.5656,1.5768,1.565,1.5388,1.5483,1.5616,1.568,1.5888,1.5729,1.4946,1.5245,1.5483,1.5547,1.6012,1.6322,1.6322,1.6882,1.7263,1.7519,1.8327,1.9347,2.03,2.0977,2.1716,2.2484,2.2766,2.2907,2.2929,2.2918,2.2976,2.2986,2.3023,2.3001,2.3001,2.3034,2.3034,2.3001,2.3001,2.3143,2.3422,2.352,2.3798,2.4235,2.4628,2.4996,2.5226,2.5502,2.5764,2.5895,2.5895,2.5937,2.5937,2.629,2.661,2.6969,2.7452,2.7881,2.8179,2.8351,2.8391,2.3106,2.3106,2.3062,2.304,2.3018,2.2696,2.241,2.2154,2.1789,2.1467,2.1211,2.1159,2.1145,2.1137,2.1094,2.1072,2.105,2.0786,2.0655,0.0,2.004,1.9815,1.9801,1.9485,1.9272,1.9272,1.9272,1.9272,1.9272,1.9272,1.9272,1.9272,1.9272,1.9272,1.9272,1.9272,1.9272,1.9272,1.9272,1.917,1.8847,1.9029,1.8773,1.8094,1.793,1.7639,1.7215,1.7151,1.6778,1.6039,1.6277,1.6127,1.5578,1.5539,1.5578,1.572,1.596,1.6111,1.6079,1.6635,1.7111,1.7416,1.7496,1.7056,1.6103,1.6269,1.6651,1.6994,1.7853,1.8625,1.871,1.9805,2.025,1.9841,2.0568,2.1192,2.1072,2.1195,2.1613,2.2392,2.2473,2.264,2.2829,2.2833,2.2937,2.2982,2.3042,2.3045,2.3099,2.3001,2.3001,2.3001,2.3001,2.3034,2.3198,2.3121,2.3302,2.3716,2.3919,2.4301,2.5011,2.5281,2.5511,2.5841,2.5895,2.5895,2.5895,2.6207,2.6487,2.6652,2.7021,2.7319,2.747,2.7736,2.8082,2.3106,2.3106,2.3106,2.3106,2.3098,2.2945,2.271,2.2418,2.2264,2.1928,2.1496,2.1474,2.1379,2.1211,2.1211,2.1211,2.1203,2.105,2.0984,2.0955,2.0494,2.0186,2.0003,1.9689,1.9507,1.9286,1.9272,1.9272,1.9272,1.9272,1.9272,1.9272,1.9272,1.9272,1.9272,1.9272,1.9272,1.9272,1.9272,1.9199,1.9104,1.9134,1.8969,1.8645,1.8303,1.8063,1.7906,1.7711,1.731,1.681,1.6937,1.6881,1.6612,1.6547,1.6668,1.6835,1.6961,1.7056,1.7056,1.7358,1.7655,1.7798,1.7806,1.7623,1.7096,1.7199,1.7366,1.7575,1.8081,1.837,1.8422,1.9119,1.9409,1.8999,1.9324,1.9833,2.0415,2.0959,2.16,2.2615,2.3244,2.3572,2.3688,2.3656,2.3513,2.3306,2.3225,2.3341,2.371,2.3798,2.3689,2.3438,2.3187,2.3143,2.3329,2.3154,2.3121,2.3318,2.352,2.3956,2.4694,2.5007,2.5349,2.5786,2.5895,2.5895,2.5895,2.6021,2.6207,2.6487,2.6652,2.6887,2.7144,2.7574,2.8002,2.3171,2.3106,2.3106,2.3106,2.3106,2.3106,2.2967,2.274,2.2725,2.2418,2.1935,2.184,2.1628,2.1335,2.132,2.1276,2.1218,2.1211,2.1203,2.1181,2.0874,2.0581,2.0325,1.9952,1.9683,1.9448,1.9368,1.9272,1.9272,1.9272,1.9272,1.9272,1.9272,1.9272,1.9272,1.9272,1.9272,1.9272,1.9272,1.9272,1.9264,1.9256,1.9179,1.9177,1.8862,1.8613,1.8505,1.8287,1.7982,1.7548,1.7509,1.7469,1.744,1.739,1.7544,1.7783,1.7894,1.793,1.8001,1.8009,1.8009,1.8009,1.8001,1.8009,1.8009,1.8001,1.8013,1.7914,1.8029,1.8077,1.8129,1.8378,1.8257,1.8097,1.8265,1.8904,1.9653,2.0348,2.1156,2.2328,2.334,2.3872,2.4038,2.4269,2.4193,2.3756,2.3646,2.3897,2.4396,2.4526,2.4323,2.4082,2.3646,2.3525,2.382,2.3635,2.3362,2.322,2.3471,2.3825,2.4279,2.4628,2.5117,2.5502,2.5721,2.5775,2.5852,2.5895,2.6052,2.629,2.6373,2.6539,2.7103,2.7441,2.7881,2.3376,2.3128,2.3113,2.3106,2.3106,2.3106,2.3084,2.3054,2.3062,2.2864,2.2506,2.2257,2.1964,2.1672,2.1635,2.1481,2.1218,2.1211,2.1211,2.1174,2.0874,2.0706,2.0618,2.0062,1.9801,1.9727,1.9478,1.9294,1.9272,1.9272,1.9272,1.9272,1.9272,1.9272,1.9272,1.9272,1.9272,1.9272,1.9272,1.9272,1.9309,1.9205,1.9179,1.9179,1.9356,1.9236,1.8893,1.9107,1.8899,1.8279,1.8208,1.8065,1.7771,1.7731,1.779,1.7838,1.8073,1.839,1.8676,1.8678,1.87,1.8678,1.8692,1.8684,1.87,1.8708,1.8581,1.8367,1.8533,1.8669,1.877,1.9451,1.9582,1.8985,1.9545,1.9983,1.9842,1.9674,1.9938,2.0496,2.2011,2.2346,2.2968,2.3701,2.4223,2.4421,2.4371,2.4411,2.461,2.4639,2.4749,2.4858,2.4639,2.4388,2.441,2.4399,2.405,2.3733,2.3678,2.3749,2.3897,2.3951,2.4148,2.5054,2.5347,2.5489,2.571,2.5895,2.5937,2.6021,2.6093,2.6218,2.694,2.7267,2.7493,2.3515,2.3376,2.3186,2.3106,2.3106,2.3106,2.3106,2.3106,2.3106,2.3032,2.2915,2.2776,2.2352,2.1708,2.1701,2.1518,2.1218,2.1211,2.1211,2.1203,2.1072,2.0911,2.0706,2.0472,2.015,1.983,1.9676,1.9514,1.9301,1.9272,1.9272,1.9272,1.9272,1.9272,1.9272,1.9272,1.9272,1.9272,1.9272,1.9272,1.9316,1.9302,1.928,1.9243,1.9308,1.933,1.9326,1.94,1.9296,1.8978,1.8977,1.8764,1.8414,1.8398,1.839,1.8406,1.8526,1.8676,1.8773,1.8781,1.8781,1.8781,1.8781,1.8781,1.8781,1.8781,1.8756,1.8661,1.8702,1.9004,1.9592,2.0076,2.0303,2.0484,2.0889,2.1105,2.1284,2.1587,2.1952,2.2236,2.3323,2.4008,2.3963,2.4261,2.4786,2.5133,2.5029,2.4852,2.5224,2.5327,2.5393,2.5524,2.5426,2.5207,2.4956,2.4639,2.4312,2.3908,2.3733,2.3733,2.3755,2.3733,2.3984,2.4672,2.4964,2.5193,2.5445,2.5742,2.5895,2.5895,2.5937,2.6093,2.6693,2.7021,2.736,2.3808,2.3691,2.3376,2.3193,2.3106,2.3106,2.3106,2.3106,2.3106,2.3106,2.3106,2.3106,2.2681,2.2015,2.195,2.173,2.1379,2.1342,2.1291,2.1218,2.1211,2.1086,2.0867,2.0701,2.0435,1.9952,1.9791,1.9639,1.9308,1.9272,1.9272,1.9272,1.9272,1.9272,1.9272,1.9272,1.9272,1.9272,1.9272,1.9272,1.9272,1.9272,1.9324,1.9406,1.9448,1.953,1.9706,1.9758,1.9665,1.9526,1.9558,1.9383,1.9137,1.9026,1.8931,1.8805,1.8923,1.8931,1.8797,1.9002,1.9074,1.8994,1.905,1.9113,1.9113,1.9113,1.9113,1.9121,1.9113,1.9408,1.9729,1.9894,2.0212,2.0836,2.1114,2.1463,2.173,2.2473,2.2843,2.3091,2.3907,2.5168,2.5158,2.5179,2.5368,2.5715,2.5474,2.5295,2.577,2.5863,2.5874,2.5895,2.5884,2.5753,2.5456,2.5175,2.4672,2.4312,2.4181,2.4159,2.3951,2.3864,2.3897,2.4497,2.4716,2.4967,2.5218,2.5535,2.5819,2.5874,2.5895,2.601,2.6487,2.6899,2.7319,2.4349,2.402,2.3706,2.3391,2.3113,2.3106,2.3106,2.3106,2.3106,2.3106,2.3106,2.3106,2.2908,2.2571,2.255,2.2242,2.1715,2.165,2.1489,2.1225,2.1211,2.1203,2.1174,2.0874,2.0497,2.0208,1.993,1.9669,1.9294,1.9272,1.9272,1.9272,1.9272,1.9272,1.9272,1.9272,1.9272,1.9272,1.9324,1.9324,1.9324,1.9324,1.948,1.968,1.9908,2.0005,2.0019,2.0235,2.021,1.9901,1.9893,1.9877,1.9829,1.9558,1.9201,1.8947,1.9169,1.9201,1.9002,1.9423,1.9702,1.9495,1.963,1.9837,1.9765,1.9765,1.9765,1.9837,1.9822,1.9694,1.9281,1.9363,1.9277,1.9437,2.0019,2.051,2.0538,2.157,2.1739,2.2094,2.3226,2.4541,2.5633,2.5864,2.5812,2.5895,2.5853,2.5853,2.5853,2.5895,2.5895,2.5895,2.5895,2.5884,2.5852,2.5666,2.548,2.5087,2.476,2.4847,2.4476,2.4181,2.4246,2.4235,2.4224,2.4465,2.4956,2.5317,2.5568,2.571,2.5863,2.6093,2.6569,2.6899,2.74,2.4379,2.4049,2.3735,2.3523,2.3406,2.3201,2.3106,2.3106,2.3106,2.3106,2.3106,2.3106,2.3047,2.293,2.293,2.2484,2.1745,2.1701,2.1518,2.1233,2.1211,2.1211,2.1196,2.1079,2.0859,2.0545,2.0216,1.9791,1.9316,1.9272,1.9272,1.9272,1.9272,1.9272,1.9272,1.9272,1.9272,1.9331,1.9428,1.9583,1.9583,1.9732,1.9939,2.0197,1.999,1.9989,2.0284,2.0437,2.0373,2.0218,2.0202,2.0098,1.9933,1.9805,1.9686,1.9526,1.9662,1.9678,1.9542,1.9765,1.9869,1.9765,1.9837,1.9933,1.9909,1.9909,1.9909,2.0014,2.0587,2.0701,2.0623,2.0429,2.0656,2.1223,2.1401,2.1534,2.1617,2.2128,2.2492,2.2448,2.34,2.4669,2.5549,2.5895,2.5895,2.5895,2.5895,2.5895,2.5895,2.5895,2.5895,2.5895,2.5895,2.5895,2.5895,2.5895,2.5742,2.5412,2.5128,2.4902,2.4596,2.4443,2.4465,2.4476,2.4257,2.4388,2.5043,2.548,2.5655,2.5764,2.5895,2.6249,2.6805,2.7103,2.7563,2.4532,2.421,2.3888,2.3691,2.3559,2.3252,2.3106,2.3106,2.3106,2.3106,2.3106,2.3106,2.3106,2.3106,2.3106,2.2725,2.203,2.1898,2.1672,2.1372,2.1254,2.1211,2.1211,2.1211,2.1042,2.0691,2.0281,1.9842,1.9469,1.9382,1.9279,1.9272,1.9272,1.9272,1.9272,1.9272,1.9272,1.9331,1.9576,1.9732,1.9732,1.9983,2.0241,2.0411,2.0153,2.0145,2.0617,2.0617,2.0625,2.0548,2.0559,2.0408,2.0132,2.0084,1.9979,1.9941,2.002,2.0028,1.9965,2.0075,2.0211,2.0108,2.0146,2.021,2.021,2.021,2.021,2.04,2.0786,2.1317,2.1374,2.1512,2.1983,2.2697,2.2871,2.2953,2.298,2.3567,2.385,2.3779,2.4333,2.5179,2.5728,2.5853,2.5895,2.5895,2.5895,2.5895,2.5895,2.5895,2.5895,2.5895,2.5895,2.5895,2.5895,2.5895,2.5895,2.5631,2.5478,2.5164,2.4967,2.4825,2.4705,2.4683,2.4716,2.4814,2.5098,2.5579,2.5797,2.5884,2.6093,2.6362,2.6816,2.7226,2.7684,2.4929,2.4613,2.4225,2.391,2.3618,2.3296,2.312,2.3113,2.3106,2.3106,2.3106,2.3106,2.3106,2.3106,2.3106,2.2915,2.2593,2.2301,2.1986,2.165,2.1372,2.124,2.1211,2.1211,2.1042,2.0706,2.0106,1.9859,1.9771,1.9514,1.9316,1.9279,1.9272,1.9272,1.9272,1.9272,1.9272,1.9324,1.9583,1.9732,1.9724,1.9983,2.0241,2.0522,2.047,2.0573,2.0865,2.0873,2.0858,2.0893,2.0885,2.075,2.0448,2.0392,2.0249,2.0108,2.0226,2.0218,2.0084,2.0496,2.0662,2.0688,2.0796,2.1001,2.1172,2.1154,2.1162,2.1188,2.1204,2.1143,2.1381,2.2114,2.2711,2.3023,2.3561,2.4081,2.4394,2.5209,2.5878,2.5639,2.5615,2.5655,2.5833,2.5917,2.5906,2.5895,2.5895,2.5895,2.5895,2.5895,2.5895,2.5895,2.5895,2.5895,2.5895,2.5895,2.5895,2.5863,2.5808,2.5666,2.5524,2.5382,2.5229,2.5164,2.5022,2.5098,2.5098,2.5535,2.5808,2.5937,2.6207,2.6362,2.6693,2.7103,2.7765,2.4993,2.4869,2.4562,2.4232,2.3903,2.3581,2.3325,2.3113,2.3106,2.3106,2.3106,2.3106,2.3106,2.3106,2.3106,2.3054,2.293,2.2623,2.2206,2.1759,2.1591,2.1408,2.124,2.1211,2.1035,2.0742,2.053,2.0186,1.9874,1.9659,1.9566,1.9316,1.9279,1.9272,1.9272,1.9272,1.9272,1.9324,1.9583,1.9776,1.9983,2.0248,2.0514,2.0771,2.0771,2.0814,2.0925,2.0925,2.0925,2.0925,2.0925,2.0869,2.0774,2.075,2.071,2.0623,2.0686,2.0726,2.0639,2.0817,2.1234,2.1694,2.1912,2.24,2.3003,2.3053,2.3003,2.3053,2.3103,2.3103,2.3302,2.4057,2.4067,2.2827,2.3386,2.407,2.4221,2.4626,2.5336,2.6159,2.6075,2.5991,2.6204,2.6179,2.5939,2.5895,2.5895,2.5895,2.5895,2.5895,2.5895,2.5895,2.5895,2.5895,2.5895,2.5895,2.5895,2.5895,2.5895,2.5895,2.5841,2.5786,2.5655,2.5557,2.5426,2.5349,2.5349,2.5491,2.5786,2.5895,2.6052,2.6249,2.6487,2.6981,2.7603,2.5059,2.509,2.4767,2.4525,2.4218,2.3793,2.3486,2.3281,2.3157,2.3106,2.3106,2.3106,2.3106,2.3106,2.3106,2.3106,2.3084,2.2886,2.2528,2.2045,2.1767,2.1525,2.1247,2.1211,2.1123,2.0911,2.0779,2.0516,2.0128,1.9879,1.9659,1.9477,1.939,1.9272,1.9272,1.9272,1.9272,1.9331,1.968,1.9931,2.0138,2.0462,2.0712,2.0873,2.0925,2.0925,2.0925,2.0925,2.0925,2.0925,2.0925,2.0925,2.0925,2.0917,2.0925,2.0925,2.0917,2.0909,2.0925,2.1302,2.1725,2.2426,2.287,2.3352,2.3939,2.4088,2.4088,2.4088,2.4038,2.4088,2.4236,2.5041,2.4952,2.3917,2.456,2.4938,2.5014,2.5211,2.5742,2.656,2.6555,2.6475,2.6454,2.6377,2.6081,2.5972,2.5895,2.5895,2.5895,2.5895,2.5895,2.5895,2.5895,2.5895,2.5895,2.5895,2.5895,2.5895,2.5895,2.5895,2.5874,2.5863,2.5786,2.5775,2.5688,2.5644,2.5633,2.571,2.5895,2.5937,2.5979,2.6249,2.6569,2.6775,2.7336,2.5059,2.5015,2.4797,2.4591,2.4474,2.3903,2.3618,2.353,2.3252,2.3106,2.3106,2.3106,2.3106,2.3106,2.3106,2.3106,2.3098,2.3084,2.2871,2.2484,2.2067,2.1635,2.1262,2.1211,2.1181,2.113,2.0911,2.0742,2.0589,2.015,1.9852,1.9769,1.9499,1.9316,1.9338,1.9301,1.9272,1.9376,1.9783,2.0034,2.0138,2.0557,2.0865,2.0925,2.0925,2.0925,2.0925,2.0925,2.0925,2.0925,2.0925,2.0925,2.0925,2.0925,2.0925,2.0925,2.0925,2.0925,2.113,2.1776,2.2467,2.2769,2.3651,2.4236,2.4541,2.4728,2.4728,2.4639,2.4442,2.4285,2.4492,2.5138,2.5586,2.5887,2.632,2.6884,2.72,2.6978,2.7022,2.7239,2.7192,2.6963,2.6715,2.6606,2.6354,2.6026,2.5895,2.5895,2.5895,2.5895,2.5895,2.5895,2.5895,2.5895,2.5895,2.5895,2.5895,2.5895,2.5895,2.5895,2.5895,2.5895,2.5895,2.5895,2.5895,2.5884,2.5884,2.5895,2.5895,2.5895,2.6093,2.6362,2.6528,2.661,2.7121,2.5059,2.5044,2.5031,2.4863,2.4532,2.4115,2.3815,2.3574,2.3252,2.3106,2.3106,2.3106,2.3106,2.3106,2.3106,2.3106,2.3106,2.3106,2.293,2.2645,2.2484,2.1913,2.1342,2.1211,2.1211,2.1189,2.1101,2.0905,2.0735,2.0523,2.0318,2.0098,1.9798,1.9683,1.9669,1.9448,1.9279,1.9331,1.9635,1.9931,2.0138,2.0462,2.0719,2.0873,2.0925,2.0925,2.0925,2.0925,2.0925,2.0925,2.0925,2.0925,2.0925,2.0925,2.0925,2.0925,2.0917,2.0917,2.1121,2.1971,2.2861,2.3651,2.4688,2.5625,2.6418,2.6466,2.6466,2.6322,2.5829,2.5294,2.5343,2.5538,2.6032,2.6774,2.7119,2.7357,2.7478,2.75,2.7593,2.7971,2.7723,2.7406,2.7151,2.6835,2.6529,2.6125,2.5961,2.595,2.5994,2.5895,2.5895,2.5895,2.5895,2.5895,2.5895,2.5895,2.5895,2.5895,2.5895,2.5895,2.5895,2.5895,2.5895,2.5895,2.5895,2.5895,2.5895,2.5895,2.5895,2.5895,2.5979,2.6177,2.6093,2.6177,2.6928,2.5059,2.5059,2.5059,2.5017,2.4789,2.4284,2.3976,2.3735,2.331,2.3106,2.3106,2.3106,2.3106,2.3106,2.3106,2.3106,2.3106,2.3106,2.3003,2.2849,2.2674,2.2154,2.1554,2.1306,2.1211,2.1211,2.1211,2.1101,2.0933,2.0801,2.0555,2.0365,2.0113,1.9908,1.9786,1.9647,1.9448,1.9413,1.9628,1.9931,2.0078,2.0454,2.0719,2.0873,2.0925,2.0925,2.0925,2.0925,2.0925,2.0925,2.0925,2.0925,2.0925,2.0925,2.0925,2.0925,2.1275,2.1573,2.1869,2.292,2.4057,2.4796,2.579,2.6572,2.7109,2.732,2.732,2.7167,2.6678,2.6428,2.638,2.638,2.6678,2.7119,2.732,2.7357,2.7584,2.7573,2.7867,2.8143,2.8147,2.7882,2.7597,2.7315,2.7009,2.6627,2.6365,2.6299,2.6234,2.6048,2.5895,2.5895,2.5895,2.5895,2.5895,2.5895,2.5895,2.5895,2.5895,2.5895,2.5895,2.5895,2.5895,2.5895,2.5895,2.5895,2.5895,2.5895,2.5895,2.5895,2.5895,2.5937,2.5937,2.6302,2.6958,2.5059,2.5059,2.5059,2.5059,2.4942,2.4371,2.4071,2.3954,2.3384,2.3106,2.3106,2.3106,2.3106,2.3106,2.3106,2.3106,2.3106,2.3106,2.3106,2.2974,2.2762,2.2308,2.1869,2.1467,2.1291,2.1225,2.1211,2.1196,2.1108,2.0896,2.0801,2.0635,2.0394,2.0219,2.0075,1.992,1.9707,1.9658,1.9961,2.0145,2.0241,2.0609,2.0873,2.0873,2.0925,2.0925,2.0976,2.1019,2.1173,2.113,2.0976,2.0925,2.0925,2.0925,2.1121,2.1369,2.2072,2.2669,2.292,2.4353,2.5548,2.5742,2.6572,2.7309,2.732,2.732,2.732,2.732,2.732,2.7167,2.7167,2.7214,2.7214,2.732,2.732,2.7404,2.7584,2.7631,2.7867,2.8348,2.843,2.8296,2.8085,2.7958,2.7783,2.7031,2.6791,2.6649,2.6496,2.6289,2.6081,2.5895,2.5895,2.5895,2.5895,2.5895,2.5895,2.5895,2.5895,2.5895,2.5895,2.5895,2.5895,2.5895,2.5895,2.5895,2.5895,2.5895,2.5895,2.5895,2.5895,2.5937,2.601,2.6652,2.7325,2.5059,2.5059,2.5059,2.5059,2.4957,2.4371,2.4086,2.4013,2.3391,2.3106,2.3106,2.3106,2.3106,2.3106,2.3106,2.3106,2.3106,2.3106,2.3106,2.3062,2.2776,2.2593,2.2286,2.1854,2.1467,2.1298,2.1218,2.1211,2.1167,2.113,2.1101,2.1042,2.0779,2.0692,2.0781,2.0349,2.0211,2.0287,2.0402,2.0434,2.0462,2.0712,2.0925,2.0925,2.0925,2.0925,2.1121,2.1725,2.2123,2.1979,2.1479,2.1173,2.1267,2.1776,2.2123,2.2375,2.3111,2.375,2.4007,2.4943,2.5742,2.5887,2.6668,2.732,2.732,2.732,2.732,2.732,2.732,2.732,2.732,2.732,2.732,2.732,2.7309,2.7499,2.782,2.7904,2.8149,2.8524,2.8699,2.8536,2.8089,2.8056,2.7861,2.7424,2.7206,2.7009,2.6813,2.6573,2.6343,2.6136,2.6048,2.6048,2.5895,2.5895,2.5895,2.5895,2.5895,2.5895,2.5895,2.5895,2.5895,2.5895,2.5895,2.5895,2.5895,2.5895,2.5895,2.5895,2.5937,2.6063,2.629,2.6969,2.7799,2.5059,2.5059,2.5059,2.5039,2.4826,2.4298,2.3991,2.3779,2.3332,2.3106,2.3106,2.3106,2.3106,2.3106,2.3106,2.3106,2.3106,2.3106,2.3106,2.3076,2.2908,2.2776,2.255,2.2169,2.1759,2.1459,2.1269,2.1218,2.1211,2.1211,2.1189,2.1211,2.102,2.1013,2.1134,2.0856,2.0649,2.0613,2.0692,2.0685,2.0604,2.0771,2.0925,2.0925,2.0925,2.0925,2.0968,2.1928,2.2375,2.2476,2.2467,2.2409,2.2459,2.2911,2.3211,2.3411,2.4254,2.4786,2.5089,2.5781,2.6466,2.6428,2.7013,2.7214,2.732,2.732,2.732,2.732,2.732,2.732,2.732,2.732,2.732,2.7309,2.7404,2.7631,2.7893,2.7987,2.8233,2.8653,2.8803,2.8648,2.8462,2.8331,2.8309,2.808,2.7752,2.7566,2.7402,2.7151,2.6747,2.6496,2.6343,2.6201,2.5972,2.5895,2.5895,2.5895,2.5895,2.5895,2.5895,2.5895,2.5895,2.5895,2.5895,2.5895,2.5895,2.5895,2.5895,2.5895,2.5979,2.6135,2.6569,2.7325,2.8239,2.5059,2.5112,2.5068,2.4914,2.4591,2.4196,2.3888,2.3669,2.3267,2.3106,2.3106,2.3106,2.3106,2.3106,2.3106,2.3106,2.3106,2.3106,2.3106,2.3091,2.3076,2.2937,2.2696,2.2403,2.2081,2.1752,2.1379,2.1225,2.1211,2.1211,2.1211,2.1211,2.1203,2.1284,2.1302,2.1271,2.122,2.1109,2.1152,2.1039,2.0804,2.0941,2.0968,2.0925,2.0925,2.107,2.142,2.2274,2.292,2.3029,2.3998,2.4482,2.4531,2.4393,2.4344,2.4384,2.5333,2.5877,2.6081,2.6678,2.7214,2.732,2.7309,2.7309,2.732,2.732,2.732,2.732,2.732,2.732,2.732,2.7357,2.7357,2.7404,2.7536,2.7762,2.7998,2.8092,2.8326,2.8664,2.8803,2.8738,2.8738,2.8683,2.876,2.8749,2.8364,2.8034,2.7903,2.7696,2.7227,2.6802,2.6616,2.6256,2.5994,2.5928,2.5928,2.5895,2.5895,2.5895,2.5895,2.5895,2.5895,2.5895,2.5895,2.5895,2.5895,2.5895,2.5895,2.5895,2.6063,2.6249,2.6887,2.7678,2.8676,2.5059,2.5037,2.4759,2.4766,2.4818,2.4057,2.3793,2.3881,2.3332,2.3113,2.3106,2.3106,2.3106,2.3106,2.3106,2.3106,2.3106,2.3106,2.3106,2.3106,2.3106,2.3032,2.2937,2.2637,2.2367,2.2008,2.1554,2.1254,2.1211,2.1211,2.1211,2.1211,2.1211,2.1422,2.1715,2.1717,2.1962,2.2118,2.2019,2.1801,2.1695,2.1567,2.1394,2.1245,2.1248,2.1522,2.2274,2.3261,2.4245,2.5148,2.6177,2.6562,2.6418,2.5829,2.5489,2.5635,2.6332,2.6822,2.6918,2.7119,2.732,2.732,2.732,2.732,2.732,2.732,2.732,2.732,2.732,2.732,2.732,2.7452,2.7536,2.7584,2.7773,2.8045,2.8243,2.8337,2.843,2.8757,2.8803,2.8803,2.8803,2.8803,2.8803,2.8803,2.865,2.8342,2.8167,2.7958,2.7696,2.7238,2.6802,2.642,2.5994,2.5972,2.5961,2.5906,2.5895,2.5895,2.5895,2.5895,2.5895,2.5895,2.5895,2.5895,2.5895,2.5895,2.6063,2.6135,2.626,2.6415,2.7325,2.8227,2.903,2.5059,2.509,2.4767,2.4562,2.4444,2.3888,2.3581,2.3537,2.3245,2.3106,2.3106,2.3106,2.3106,2.3106,2.3106,2.3106,2.3106,2.3106,2.3106,2.3106,2.3106,2.3106,2.3069,2.2776,2.2579,2.2324,2.1914,2.148,2.1225,2.1211,2.1211,2.1261,2.1382,2.166,2.2199,2.2783,2.302,2.3305,2.3216,2.3272,2.3426,2.3272,2.2809,2.2323,2.2308,2.2568,2.2669,2.4156,2.5089,2.5742,2.6716,2.7214,2.7119,2.687,2.6466,2.6572,2.7023,2.732,2.732,2.732,2.732,2.732,2.732,2.732,2.732,2.732,2.732,2.732,2.732,2.732,2.732,2.7499,2.7584,2.7678,2.7961,2.8254,2.8395,2.8524,2.8664,2.8768,2.8803,2.8803,2.8803,2.8803,2.8803,2.8803,2.8803,2.865,2.8386,2.8276,2.8134,2.7653,2.7195,2.6824,2.642,2.6299,2.6136,2.6026,2.5972,2.5972,2.5895,2.5895,2.5895,2.5895,2.5895,2.5895,2.5895,2.5895,2.6135,2.6415,2.6652,2.7051,2.7919,2.8743,2.9575,2.509,2.5002,2.4605,2.432,2.4049,2.3662,2.3398,2.3215,2.3142,2.3106,2.3106,2.3106,2.3106,2.3106,2.3106,2.3106,2.3106,2.3106,2.3106,2.3106,2.3106,2.3106,2.3025,2.2879,2.2689,2.2566,2.243,2.1964,2.1545,2.1476,2.1382,2.1497,2.1725,2.1953,2.2377,2.3399,2.4098,2.4419,2.4616,2.5067,2.5331,2.5153,2.4503,2.3674,2.398,2.3809,2.3628,2.4698,2.5684,2.6225,2.6822,2.732,2.732,2.732,2.732,2.732,2.732,2.732,2.732,2.732,2.732,2.732,2.732,2.732,2.732,2.732,2.732,2.732,2.732,2.732,2.7357,2.7536,2.7678,2.782,2.816,2.8488,2.8535,2.8617,2.871,2.8803,2.8803,2.8803,2.8803,2.8803,2.8803,2.8803,2.8803,2.8803,2.8628,2.8672,2.8451,2.8012,2.7609,2.7227,2.6966,2.678,2.654,2.6267,2.619,2.6157,2.6016,2.5895,2.5917,2.5939,2.5895,2.5895,2.5895,2.5979,2.626,2.658,2.7062,2.7609,2.8295,2.9174,3.0101,2.4958,2.4598,2.4276,2.4115,2.3984,2.3435,2.3325,2.3464,2.3215,2.3113,2.3106,2.3106,2.3106,2.3106,2.3106,2.3106,2.3106,2.3106,2.3106,2.3106,2.3106,2.3106,2.3106,2.3091,2.3103,2.317,2.3127,2.2587,2.2315,2.22,2.1976,2.1983,2.2025,2.2173,2.257,2.3935,2.4411,2.4858,2.5755,2.6215,2.6007,2.5758,2.5344,2.4882,2.4858,2.4983,2.5085,2.5723,2.6179,2.6965,2.7167,2.732,2.732,2.732,2.732,2.732,2.732,2.732,2.732,2.732,2.732,2.732,2.732,2.732,2.732,2.732,2.732,2.732,2.732,2.7309,2.7404,2.7726,2.7904,2.8092,2.8373,2.8617,2.8757,2.871,2.8803,2.8803,2.8803,2.8803,2.8803,2.8803,2.8803,2.8803,2.8803,2.8803,2.8803,2.8803,2.8771,2.8331,2.8056,2.7752,2.7446,2.7227,2.6944,2.6573,2.6518,2.6431,2.6332,2.6212,2.5983,2.5994,2.5961,2.5917,2.5895,2.6063,2.6373,2.6899,2.7487,2.8028,2.856,2.9524,3.0659,2.4423,2.4269,2.394,2.3808,2.3742,2.3296,2.3186,2.3267,2.3171,2.3106,2.3106,2.3106,2.3106,2.3106,2.3106,2.3106,2.3106,2.3106,2.3106,2.3106,2.3106,2.3106,2.3293,2.3845,2.4147,2.4391,2.498,2.5187,2.4269,2.3072,2.2398,2.236,2.2379,2.2456,2.2845,2.4595,2.5406,2.6273,2.7292,2.7985,2.7531,2.7402,2.7226,2.649,2.6746,2.6615,2.632,2.6741,2.6939,2.7355,2.732,2.732,2.732,2.732,2.732,2.732,2.732,2.732,2.732,2.732,2.732,2.732,2.732,2.732,2.732,2.732,2.732,2.732,2.732,2.7357,2.7499,2.7773,2.8008,2.829,2.856,2.871,2.8803,2.8803,2.8803,2.8803,2.8803,2.8803,2.8803,2.8803,2.8803,2.8803,2.8803,2.8803,2.8803,2.8803,2.8749,2.8571,2.8418,2.8265,2.7971,2.7674,2.7424,2.7162,2.6977,2.6922,2.6791,2.6627,2.6526,2.6284,2.6123,2.6069,2.5992,2.6093,2.6332,2.7133,2.8051,2.8691,2.9434,3.0355,3.1286,2.3918,2.3823,2.3662,2.3552,2.3457,2.3208,2.3113,2.3113,2.3113,2.3106,2.3106,2.3106,2.3106,2.3106,2.3106,2.3106,2.3106,2.3106,2.3106,2.3106,2.3106,2.3106,2.3479,2.427,2.5178,2.5582,2.6619,2.6873,2.6202,2.511,2.4019,2.2976,2.3357,2.3061,2.3464,2.502,2.6545,2.7688,2.9006,2.926,2.8853,2.9113,2.8776,2.846,2.8371,2.8216,2.7282,2.7548,2.7844,2.7541,2.7527,2.7496,2.7351,2.732,2.732,2.732,2.732,2.732,2.732,2.732,2.732,2.732,2.732,2.732,2.732,2.732,2.732,2.732,2.732,2.7404,2.7594,2.782,2.8102,2.8337,2.8617,2.871,2.8803,2.8803,2.8803,2.8803,2.8803,2.8803,2.8803,2.8803,2.8803,2.8803,2.8803,2.8803,2.8803,2.8803,2.8771,2.8705,2.8661,2.8538,2.8396,2.8123,2.7883,2.7687,2.7555,2.7569,2.7556,2.7477,2.7417,2.7043,2.6779,2.6783,2.7023,2.6665,2.6415,2.7476,2.8573,2.9601,3.0469,3.1272,3.1743,2.3449,2.3201,2.3479,2.342,2.3157,2.312,2.3106,2.3106,2.3106,2.3106,2.3106,2.3106,2.3106,2.3106,2.3106,2.3106,2.3106,2.3106,2.3106,2.3106,2.3106,2.3168,2.3783,2.4641,2.5546,2.6131,2.7714,2.8446,2.8223,2.8137,2.6059,2.4006,2.4725,2.412,2.434,2.5716,2.7688,2.8837,2.9889,2.9942,2.9722,2.9818,2.9621,2.9312,2.9157,2.8991,2.8457,2.8516,2.8359,2.7914,2.78,2.7665,2.7438,2.7351,2.732,2.732,2.732,2.732,2.732,2.732,2.732,2.732,2.732,2.732,2.732,2.732,2.732,2.732,2.7357,2.7452,2.7631,2.7867,2.8196,2.843,2.8664,2.8757,2.8803,2.8803,2.8803,2.8803,2.8803,2.8803,2.8803,2.8803,2.8803,2.8803,2.8803,2.8803,2.8803,2.8803,2.8803,2.8781,2.8781,2.876,2.876,2.8563,2.8298,2.8145,2.8014,2.8277,2.8568,2.8453,2.8243,2.8533,2.8411,2.8214,2.793,2.7587,2.7533,2.8235,2.911,3.0024,3.0897,3.1643,3.2,2.3223,2.312,2.3252,2.3223,2.3106,2.3106,2.3106,2.3106,2.3106,2.3106,2.3106,2.3106,2.3106,2.3106,2.3106,2.3106,2.3106,2.3106,2.3168,2.3106,2.3106,2.3604,2.4463,2.5729,2.7168,2.8188,2.9688,3.0227,2.9935,3.0354,2.9104,2.7558,2.6739,2.6184,2.6295,2.6664,2.8305,2.9448,2.9994,2.9994,2.9994,2.9994,2.9911,2.9766,2.9735,2.9487,2.9114,2.9042,2.8752,2.8411,2.811,2.7883,2.7655,2.7448,2.7361,2.734,2.734,2.732,2.732,2.732,2.732,2.732,2.732,2.732,2.732,2.732,2.732,2.7357,2.7404,2.7547,2.7809,2.8102,2.8384,2.8571,2.8721,2.8803,2.8803,2.8803,2.8803,2.8803,2.8803,2.8803,2.8803,2.8803,2.8803,2.8803,2.8803,2.8803,2.8803,2.8803,2.8803,2.8803,2.8803,2.8803,2.8803,2.8771,2.8727,2.8596,2.8418,2.8903,2.9299,2.9228,2.9169,2.9601,2.9917,2.9636,2.9201,2.8633,2.8662,2.9246,2.973,3.0355,3.1209,3.204,3.2308,2.3106,2.3106,2.3106,2.3106,2.3106,2.3106,2.3106,2.3106,2.3106,2.3106,2.3106,2.3106,2.3106,2.3106,2.3106,2.3479,2.372,2.3783,2.3783,2.3783,2.3969,2.4278,2.537,2.6641,2.8068,2.9943,3.1363,3.1777,3.1411,3.2258,3.1317,2.9957,2.8974,2.8369,2.7207,2.7927,2.8784,2.9722,2.9994,2.9994,2.9994,2.9994,2.9994,2.9963,2.9953,2.9839,2.958,2.9477,2.9259,2.8897,2.8566,2.8317,2.8038,2.7759,2.751,2.7417,2.7392,2.734,2.732,2.732,2.732,2.732,2.732,2.732,2.732,2.732,2.732,2.7309,2.7499,2.7726,2.7998,2.8196,2.8477,2.8664,2.8757,2.8803,2.8803,2.8803,2.8803,2.8803,2.8803,2.8803,2.8803,2.8803,2.8803,2.8803,2.8803,2.8803,2.8803,2.8803,2.8803,2.8803,2.8803,2.8803,2.8803,2.8817,2.8841,2.8749,2.8835,2.9579,2.9883,2.9945,3.0413,3.1198,3.1318,3.0964,3.0737,3.058,3.0288,3.0139,3.0673,3.1266,3.1803,3.2607,3.2742,2.3106,2.3106,2.3106,2.3106,2.3106,2.3106,2.3106,2.3106,2.323,2.3293,2.3355,2.3355,2.3479,2.3472,2.372,2.427,2.4887,2.5071,2.5071,2.5063,2.5063,2.5133,2.592,2.7177,2.8792,3.0001,3.1421,3.243,3.2487,3.2612,3.2311,3.2111,3.114,3.0046,2.7632,2.7918,2.8857,2.9827,2.9994,2.9994,2.9994,2.9994,2.9994,2.9994,2.9994,2.9911,2.987,2.9839,2.9632,2.9321,2.9145,2.8897,2.8587,2.8162,2.7935,2.7903,2.7552,2.7413,2.734,2.733,2.732,2.732,2.732,2.732,2.732,2.732,2.7367,2.7357,2.7536,2.7773,2.8008,2.8243,2.8571,2.871,2.8757,2.8803,2.8803,2.8803,2.8803,2.8803,2.8803,2.8803,2.8803,2.8803,2.8803,2.8803,2.8803,2.8803,2.8803,2.8803,2.8803,2.8803,2.8803,2.8803,2.8803,2.8932,2.8921,2.885,2.9336,3.026,3.0956,3.1245,3.192,3.2714,3.2862,3.2603,3.2671,3.2773,3.2176,3.1651,3.1841,3.2341,3.2783,3.3064,3.3213,2.3106,2.3106,2.3106,2.3106,2.3106,2.3106,2.3106,2.3293,2.3969,2.4394,2.4641,2.5248,2.5676,2.5676,2.5554,2.5798,2.6225,2.6355,2.6346,2.6346,2.6407,2.6996,2.7598,2.8435,2.9757,3.1014,3.2201,3.2545,3.2612,3.2669,3.2669,3.2556,3.2225,3.115,2.9997,2.9789,3.0071,3.0004,2.9994,2.9994,2.9994,2.9994,2.9994,2.9994,2.9994,2.9994,2.9994,2.9994,2.988,2.9684,2.9549,2.9259,2.9021,2.8638,2.84,2.838,2.8142,2.7997,2.7717,2.7548,2.732,2.732,2.732,2.732,2.732,2.732,2.7357,2.7499,2.7678,2.7961,2.8243,2.8524,2.871,2.8757,2.8803,2.8803,2.8803,2.8803,2.8803,2.8803,2.8803,2.8803,2.8803,2.8803,2.8803,2.8943,2.8932,2.885,2.885,2.8803,2.8803,2.8803,2.8803,2.8803,2.885,2.9152,2.9417,2.9509,3.0306,3.1356,3.1972,3.2277,3.2925,3.3496,3.3926,3.4237,3.3923,3.3608,3.342,3.3205,3.3276,3.3244,3.346,3.3609,3.365,2.3106,2.3106,2.3106,2.3106,2.3106,2.3106,2.3106,2.3355,2.4456,2.5071,2.5317,2.6407,2.6952,2.6952,2.7013,2.7435,2.7615,2.7675,2.7675,2.7675,2.7787,2.8197,2.8861,2.9757,3.0529,3.1662,3.2315,3.2669,3.2669,3.2669,3.2669,3.2597,3.2359,3.1828,3.1155,3.0797,3.0479,3.0263,3.017,2.9994,2.9994,2.9994,2.9994,2.9994,2.9994,2.9994,2.9994,2.9994,2.9994,2.9901,2.9746,2.9528,2.9404,2.9166,2.8887,2.8845,2.8638,2.839,2.7935,2.7717,2.7489,2.733,2.732,2.732,2.732,2.732,2.7404,2.7584,2.7857,2.8102,2.8395,2.8664,2.8757,2.8803,2.8803,2.8803,2.8803,2.8803,2.8803,2.8803,2.8803,2.8803,2.8803,2.8803,2.8803,2.8978,2.9117,2.9024,2.8978,2.9024,2.9071,2.9071,2.8978,2.8932,2.9198,2.96,2.9863,3.0181,3.1101,3.219,3.2451,3.2766,3.3518,3.4134,3.4251,3.4369,3.4444,3.4273,3.4165,3.4216,3.4388,3.4345,3.4235,3.4219,3.4233,2.3106,2.3106,2.3106,2.3106,2.3106,2.3106,2.3106,2.323,2.4649,2.5194,2.5317,2.6779,2.7624,2.7383,2.7315,2.7975,2.8811,2.8929,2.8989,2.9098,2.9275,2.9394,2.9571,3.0158,3.1121,3.1787,3.2326,3.2669,3.2669,3.2669,3.2669,3.2669,3.2597,3.2313,3.1847,3.1257,3.0801,3.0522,3.0191,3.0036,2.9994,2.9994,2.9994,2.9994,2.9994,2.9994,2.9994,2.9994,2.9994,2.9973,2.9953,2.9963,2.9839,2.9559,2.9404,2.9208,2.8918,2.8514,2.8204,2.8069,2.7707,2.7448,2.7351,2.733,2.7309,2.7357,2.7489,2.7678,2.7951,2.8196,2.8441,2.8617,2.8803,2.8803,2.8803,2.8803,2.8803,2.8803,2.8803,2.8803,2.8803,2.8803,2.8803,2.8803,2.8932,2.9024,2.9244,2.9463,2.9463,2.9589,2.9589,2.96,2.9463,2.9152,2.9463,3.017,3.0474,3.0833,3.1709,3.2636,3.2895,3.3207,3.3729,3.4176,3.4356,3.45,3.4629,3.486,3.4995,3.5076,3.4996,3.5021,3.4817,3.4843,3.4897,2.3106,2.3106,2.3106,2.3106,2.3106,2.3106,2.3106,2.3347,2.537,2.6468,2.6589,2.8829,2.9499,2.9804,2.9804,2.9981,3.0157,3.0333,3.045,3.0548,3.0538,3.0781,3.1014,3.1353,3.1893,3.2133,3.2498,3.2669,3.2669,3.2669,3.2669,3.2669,3.2669,3.2545,3.224,3.1619,3.1122,3.0667,3.0263,3.0056,2.9994,2.9994,2.9994,2.9994,2.9994,2.9994,2.9994,2.9994,2.9994,2.9994,2.9994,2.9994,2.9963,2.987,2.9798,2.9746,2.9404,2.9021,2.8825,2.8297,2.7862,2.7665,2.7486,2.733,2.7357,2.7441,2.7584,2.7867,2.8102,2.8301,2.8535,2.871,2.8803,2.8803,2.8803,2.8803,2.8803,2.8803,2.8803,2.8803,2.8803,2.8932,2.8932,2.8978,2.9106,2.9163,2.9428,2.9863,3.0034,3.0215,3.0249,3.0249,3.0249,3.0079,3.0474,3.1134,3.1311,3.1621,3.2506,3.325,3.3645,3.3911,3.4134,3.4259,3.4397,3.4701,3.4964,3.5086,3.5086,3.529,3.5292,3.5346,3.5426,3.5358,3.5303,2.3106,2.3106,2.3106,2.3106,2.3168,2.3658,2.3907,2.427,2.6086,2.7004,2.7315,2.9677,3.0898,3.0772,3.0772,3.083,3.083,3.0762,3.0869,3.115,3.1441,3.1498,3.1845,3.219,3.2315,3.243,3.2555,3.2669,3.2669,3.2669,3.2669,3.2669,3.2669,3.2669,3.2447,3.1826,3.1288,3.0833,3.0429,3.0098,2.9994,2.9994,2.9994,2.9994,2.9994,2.9994,2.9994,2.9994,2.9994,2.9994,2.9994,2.9994,2.9994,2.9994,2.9984,2.9922,2.9766,2.9446,2.9166,2.8607,2.8214,2.7883,2.7637,2.7467,2.7452,2.7536,2.782,2.8102,2.8301,2.8488,2.8675,2.8803,2.8803,2.8803,2.8803,2.8803,2.8803,2.8803,2.8803,2.8803,2.8943,2.9059,2.9152,2.9233,2.9463,2.9863,3.0441,3.1057,3.1101,3.1012,3.1045,3.1089,3.1178,3.1178,3.1609,3.1928,3.2147,3.2451,3.325,3.3911,3.4356,3.4356,3.4314,3.4356,3.4494,3.4701,3.4839,3.4975,3.5017,3.5208,3.5413,3.5467,3.5507,3.5574,3.5601,2.3175,2.3355,2.3355,2.3596,2.3596,2.4764,2.5256,2.5431,2.6685,2.7177,2.7735,2.9804,3.0898,3.0898,3.0898,3.0898,3.0898,3.0889,3.1102,3.1325,3.1624,3.1797,3.2086,3.2383,3.2487,3.2498,3.2555,3.2669,3.2669,3.2669,3.2669,3.2669,3.2669,3.2669,3.2525,3.195,3.1454,3.1208,3.0594,3.0129,3.0025,2.9994,2.9994,2.9994,2.9994,2.9994,2.9994,2.9994,2.9994,2.9994,2.9994,2.9994,2.9994,2.9994,2.9994,2.9994,2.9922,2.9766,2.9446,2.902,2.8543,2.8206,2.7823,2.7767,2.7789,2.7794,2.8055,2.8243,2.8441,2.8581,2.8768,2.8803,2.8803,2.8803,2.8803,2.8803,2.8803,2.8803,2.8803,2.8803,2.885,2.9071,2.9681,2.9818,3.0034,3.0531,3.1323,3.2059,3.219,3.1928,3.2016,3.2059,3.2277,3.2364,3.219,3.2494,3.2852,3.3335,3.3911,3.4217,3.4356,3.4397,3.4397,3.4439,3.4494,3.4494,3.4577,3.4756,3.4975,3.5208,3.5372,3.548,3.5588,3.5669,3.571,2.3658,2.471,2.5676,2.6042,2.6095,2.6407,2.6537,2.665,2.7898,2.8435,2.8751,3.0098,3.0898,3.0898,3.0898,3.0898,3.0898,3.0947,3.1218,3.1498,3.1787,3.2086,3.2373,3.2555,3.2612,3.2669,3.2669,3.2669,3.2669,3.2669,3.2669,3.2669,3.2669,3.2669,3.2638,3.2064,3.1692,3.1415,3.0822,3.0263,3.0025,2.9994,2.9994,2.9994,2.9994,2.9994,2.9994,2.9994,2.9994,2.9994,2.9994,2.9994,2.9994,2.9994,2.9994,2.9994,2.9994,2.9901,2.9808,2.9475,2.9128,2.882,2.8536,2.8354,2.8299,2.8214,2.8312,2.8452,2.8581,2.8721,2.8768,2.8803,2.8803,2.8803,2.8803,2.8803,2.8803,2.8803,2.8803,2.8803,2.8803,2.9336,3.0,3.0441,3.0666,3.1279,3.2159,3.2809,3.3036,3.2993,3.3292,3.3433,3.3645,3.3645,3.325,3.3079,3.342,3.356,3.3953,3.4176,3.4397,3.4397,3.4397,3.4397,3.4397,3.4535,3.4618,3.4756,3.4962,3.5208,3.5372,3.5521,3.5588,3.571,3.571,2.5248,2.5989,2.671,2.7013,2.7082,2.7615,2.7847,2.8086,2.9235,2.9776,2.9844,3.0518,3.0898,3.0898,3.0898,3.0898,3.0898,3.0898,3.1286,3.1614,3.1845,3.2201,3.2498,3.2669,3.2669,3.2669,3.2669,3.2669,3.2669,3.2669,3.2669,3.2669,3.2669,3.2659,3.2607,3.2215,3.1836,3.1436,3.0946,3.0501,3.0087,3.0005,3.0005,2.9994,2.9994,2.9994,2.9994,2.9994,2.9994,2.9994,2.9994,2.9994,2.9994,2.9994,2.9994,2.9994,2.9994,3.0057,3.0016,2.99,2.9665,2.9397,2.9285,2.9091,2.909,2.902,2.8719,2.8827,2.8686,2.8803,2.8803,2.8803,2.8803,2.8803,2.8803,2.8803,2.8803,2.8803,2.8803,2.8803,2.9024,2.96,3.026,3.1012,3.1368,3.2159,3.3036,3.3207,3.3433,3.3729,3.4134,3.4397,3.4397,3.4356,3.3911,3.3827,3.3995,3.4092,3.4037,3.4217,3.4397,3.4397,3.4397,3.4494,3.4577,3.4714,3.4839,3.4921,3.5072,3.5318,3.544,3.5588,3.5629,3.571,3.571,2.7013,2.7254,2.7435,2.7564,2.7675,2.8632,2.9166,2.9353,3.0401,3.083,3.0772,3.083,3.0898,3.0898,3.0898,3.0898,3.0898,3.0898,3.1286,3.1672,3.1787,3.2201,3.2498,3.2669,3.2669,3.2669,3.2669,3.2669,3.2669,3.2669,3.2669,3.2669,3.2669,3.2669,3.2545,3.2297,3.1981,3.1598,3.1164,3.0667,3.0315,3.0015,3.0005,2.9994,2.9994,2.9994,2.9994,2.9994,2.9994,2.9994,2.9994,2.9994,2.9994,2.9994,2.9994,2.9994,2.9994,3.0099,3.0162,3.0087,2.9998,2.9947,2.9966,2.9888,2.9818,2.9547,2.9245,2.915,2.9055,2.8836,2.8836,2.8803,2.8803,2.8943,2.8943,2.9209,2.9209,2.9117,2.9071,2.9071,2.9474,3.0,3.0699,3.1444,3.2246,3.3079,3.3433,3.3475,3.3602,3.3911,3.4272,3.4397,3.4397,3.4356,3.4314,3.4314,3.4314,3.4314,3.4217,3.4314,3.4397,3.4494,3.4577,3.4714,3.4797,3.4921,3.5072,3.5195,3.5358,3.544,3.5548,3.5629,3.5669,3.571,3.571,2.7607,2.8623,2.9667,3.0108,3.0157,3.0401,3.0509,3.0518,3.0762,3.0898,3.0898,3.0898,3.0898,3.0898,3.0898,3.0898,3.0898,3.0947,3.1286,3.173,3.1845,3.2201,3.2555,3.2669,3.2669,3.2669,3.2669,3.2669,3.2669,3.2669,3.2669,3.2669,3.2669,3.2669,3.2659,3.2432,3.2246,3.1909,3.1671,3.1298,3.0605,3.0294,3.0025,2.9994,2.9994,2.9994,2.9994,2.9994,2.9994,2.9994,2.9994,2.9994,2.9994,2.9994,2.9994,2.9994,2.9994,3.0099,3.0099,3.0348,3.0395,3.0282,3.0296,3.0476,3.0264,2.9829,2.9696,2.9784,2.9543,2.9033,2.8924,2.8836,2.885,2.9198,2.9371,3.017,3.0609,3.026,2.9943,2.9943,3.0079,3.0699,3.14,3.2147,3.298,3.3645,3.4008,3.405,3.4008,3.4217,3.4397,3.4397,3.4397,3.4397,3.4356,3.4356,3.4356,3.4397,3.4397,3.4439,3.4535,3.4673,3.4756,3.4921,3.5003,3.5113,3.5277,3.544,3.548,3.5548,3.5629,3.571,3.571,3.571,3.571]}]]